[[{"header":{"parameterUnit":"m.s-1","parameterCategory":1,"la1":30.6,"la2":29.2853,"lo1":-89.7004,"lo2":-87.6739,"dy":0.0162,"dx":0.0183,"nx":112,"ny":82,"refTime":"2023-06-17T00:00:00:Z","depth":0,"parameterNumber":2,"parameterNumberName":"U-component_of_WINDS"},"data":[0.0,0.0,0.0,0.0,0.0,0.0,0.0,0.0,0.0,0.0,0.0,0.0,0.0,0.0,0.0,0.0,0.0,0.0,0.0,0.0,0.0,0.0,0.0,0.0,0.0,0.0,0.0,0.0,0.0,0.0,0.0,0.0,0.0,0.0,0.0,0.0,0.0,0.0,0.0,0.0,0.0,0.0,0.0,0.0,0.0,0.0,0.0,0.0,0.0,0.0,0.0,0.0,0.0,0.0,0.0,0.0,0.0,0.0,0.0,0.0,0.0,0.0,0.0,0.0,0.0,0.0,0.0,0.0,0.0,0.0,0.0,0.0,0.0,0.0,0.0,0.0,0.0,0.0,0.0,0.0,0.0,0.0,0.0,0.0,0.0,0.0,0.0,0.0,0.0,0.0,-2.4678,-2.7659,-2.8483,-2.8839,-2.8949,-2.5937,-2.3117,-2.104,0.0,0.0,0.0,0.0,0.0,0.0,0.0,0.0,0.0,0.0,0.0,0.0,0.0,0.0,0.0,0.0,0.0,0.0,0.0,0.0,0.0,0.0,0.0,0.0,0.0,0.0,0.0,0.0,0.0,0.0,0.0,0.0,0.0,0.0,0.0,0.0,0.0,0.0,0.0,0.0,0.0,0.0,0.0,0.0,0.0,0.0,0.0,0.0,0.0,0.0,0.0,0.0,0.0,0.0,0.0,0.0,0.0,0.0,0.0,0.0,0.0,0.0,0.0,0.0,0.0,0.0,0.0,0.0,0.0,0.0,0.0,0.0,0.0,0.0,0.0,0.0,0.0,0.0,0.0,0.0,0.0,0.0,0.0,0.0,0.0,0.0,0.0,0.0,0.0,0.0,0.0,0.0,0.0,0.0,0.0,0.0,0.0,0.0,0.0,0.0,0.0,0.0,0.0,0.0,-2.6489,-2.7853,-2.7958,-2.812,-2.8692,-2.5259,-2.306,-2.3015,0.0,0.0,0.0,0.0,0.0,0.0,0.0,0.0,0.0,0.0,0.0,0.0,0.0,0.0,0.0,0.0,0.0,0.0,0.0,0.0,0.0,0.0,0.0,0.0,0.0,0.0,0.0,0.0,0.0,0.0,0.0,0.0,0.0,0.0,0.0,0.0,0.0,0.0,0.0,0.0,0.0,0.0,0.0,0.0,0.0,0.0,0.0,0.0,0.0,0.0,0.0,0.0,0.0,0.0,0.0,0.0,0.0,0.0,0.0,0.0,0.0,0.0,0.0,0.0,0.0,0.0,0.0,0.0,0.0,0.0,0.0,0.0,0.0,0.0,0.0,0.0,0.0,0.0,0.0,0.0,0.0,0.0,0.0,0.0,0.0,0.0,0.0,0.0,0.0,0.0,0.0,0.0,0.0,0.0,0.0,0.0,0.0,0.0,0.0,0.0,0.0,0.0,0.0,-2.7698,-2.7348,-2.8955,-2.8265,-2.7947,-2.8528,-2.5724,-2.3798,-2.349,-2.0933,0.0,0.0,0.0,0.0,0.0,0.0,0.0,0.0,0.0,0.0,0.0,0.0,0.0,0.0,0.0,0.0,0.0,0.0,0.0,0.0,0.0,0.0,0.0,0.0,0.0,0.0,0.0,0.0,0.0,0.0,0.0,0.0,0.0,0.0,0.0,0.0,0.0,0.0,0.0,0.0,0.0,0.0,0.0,0.0,0.0,0.0,0.0,0.0,0.0,0.0,0.0,0.0,0.0,0.0,0.0,0.0,0.0,0.0,0.0,0.0,0.0,0.0,0.0,0.0,0.0,0.0,0.0,0.0,0.0,0.0,0.0,0.0,0.0,0.0,0.0,0.0,0.0,0.0,0.0,0.0,0.0,0.0,0.0,0.0,0.0,0.0,0.0,0.0,0.0,0.0,0.0,0.0,0.0,0.0,0.0,0.0,0.0,0.0,0.0,0.0,0.0,0.0,-2.7561,-2.7469,-2.9346,-2.8368,-2.7717,-2.8004,-2.6063,-2.4568,-2.4083,-2.2237,0.0,0.0,0.0,0.0,0.0,0.0,0.0,0.0,0.0,0.0,0.0,0.0,0.0,0.0,0.0,0.0,0.0,0.0,0.0,0.0,0.0,0.0,0.0,0.0,0.0,0.0,0.0,0.0,0.0,0.0,0.0,0.0,0.0,0.0,0.0,0.0,0.0,0.0,0.0,0.0,0.0,0.0,0.0,0.0,0.0,0.0,0.0,0.0,0.0,0.0,0.0,0.0,0.0,0.0,0.0,0.0,0.0,0.0,0.0,0.0,0.0,0.0,0.0,0.0,0.0,0.0,0.0,0.0,0.0,0.0,0.0,0.0,0.0,0.0,0.0,0.0,0.0,0.0,0.0,0.0,0.0,0.0,0.0,0.0,0.0,0.0,0.0,0.0,0.0,0.0,0.0,0.0,0.0,0.0,0.0,0.0,0.0,0.0,0.0,0.0,0.0,0.0,-2.7199,-2.6412,-2.7733,-2.7559,-2.7157,-2.6678,-2.5499,-2.5075,-2.5694,-2.274,0.0,0.0,0.0,0.0,0.0,0.0,0.0,0.0,0.0,0.0,0.0,0.0,0.0,0.0,0.0,0.0,0.0,0.0,0.0,0.0,0.0,0.0,0.0,0.0,0.0,0.0,0.0,0.0,0.0,0.0,0.0,0.0,0.0,0.0,0.0,0.0,0.0,0.0,0.0,0.0,0.0,0.0,0.0,0.0,0.0,0.0,0.0,0.0,0.0,0.0,0.0,0.0,0.0,0.0,0.0,0.0,0.0,0.0,0.0,0.0,0.0,0.0,0.0,0.0,0.0,0.0,0.0,0.0,0.0,0.0,0.0,0.0,0.0,0.0,0.0,0.0,0.0,0.0,0.0,0.0,0.0,0.0,0.0,0.0,0.0,0.0,0.0,0.0,0.0,0.0,0.0,0.0,0.0,0.0,0.0,0.0,0.0,0.0,0.0,0.0,0.0,0.0,-2.752,-2.6703,0.0,-2.7686,-2.6816,-2.6967,-2.5658,-2.49,-2.5205,0.0,0.0,0.0,0.0,0.0,0.0,0.0,0.0,0.0,0.0,0.0,0.0,0.0,0.0,0.0,0.0,0.0,0.0,0.0,0.0,0.0,0.0,0.0,0.0,0.0,0.0,0.0,0.0,0.0,0.0,0.0,0.0,0.0,0.0,0.0,0.0,0.0,0.0,0.0,0.0,0.0,0.0,0.0,0.0,0.0,0.0,0.0,0.0,0.0,0.0,0.0,0.0,0.0,0.0,0.0,0.0,0.0,0.0,0.0,0.0,0.0,0.0,0.0,0.0,0.0,0.0,0.0,0.0,0.0,0.0,0.0,0.0,0.0,0.0,0.0,0.0,0.0,0.0,0.0,0.0,0.0,0.0,0.0,0.0,0.0,0.0,0.0,0.0,0.0,0.0,0.0,0.0,0.0,0.0,0.0,0.0,0.0,0.0,0.0,0.0,0.0,0.0,-2.9388,-2.7,-2.6099,0.0,-2.7582,-2.6791,-2.6992,-2.5466,-2.4735,-2.5396,0.0,0.0,0.0,0.0,0.0,0.0,0.0,0.0,0.0,0.0,0.0,0.0,0.0,0.0,0.0,0.0,0.0,0.0,0.0,0.0,0.0,0.0,0.0,0.0,0.0,0.0,0.0,0.0,0.0,0.0,0.0,0.0,0.0,0.0,0.0,0.0,0.0,0.0,0.0,0.0,0.0,0.0,0.0,0.0,0.0,0.0,0.0,0.0,0.0,0.0,0.0,0.0,0.0,0.0,0.0,0.0,0.0,0.0,0.0,0.0,0.0,0.0,0.0,0.0,0.0,0.0,0.0,0.0,0.0,0.0,0.0,0.0,0.0,0.0,0.0,0.0,0.0,0.0,0.0,0.0,0.0,0.0,0.0,0.0,0.0,0.0,0.0,0.0,0.0,0.0,0.0,0.0,0.0,0.0,0.0,0.0,0.0,0.0,0.0,0.0,0.0,0.0,-2.7859,-2.5313,-2.4221,-2.6601,-2.7114,-2.7042,-2.649,-2.4884,-2.4632,0.0,0.0,0.0,0.0,0.0,0.0,0.0,0.0,0.0,0.0,0.0,0.0,0.0,0.0,0.0,0.0,0.0,0.0,0.0,0.0,0.0,0.0,0.0,0.0,0.0,0.0,0.0,0.0,0.0,0.0,0.0,0.0,0.0,0.0,0.0,0.0,0.0,0.0,0.0,0.0,0.0,0.0,0.0,0.0,0.0,0.0,0.0,0.0,0.0,0.0,0.0,0.0,0.0,0.0,0.0,0.0,0.0,0.0,0.0,0.0,0.0,0.0,0.0,0.0,0.0,0.0,0.0,0.0,0.0,0.0,0.0,0.0,0.0,0.0,0.0,0.0,0.0,0.0,0.0,0.0,0.0,0.0,0.0,0.0,0.0,0.0,0.0,0.0,0.0,0.0,0.0,0.0,0.0,0.0,0.0,0.0,0.0,0.0,0.0,0.0,0.0,0.0,0.0,-2.6925,-2.4056,-2.268,-2.5014,-2.4619,-2.4119,-2.3956,-2.2831,-2.245,-2.3341,0.0,0.0,0.0,0.0,0.0,0.0,0.0,0.0,0.0,0.0,0.0,0.0,0.0,0.0,0.0,0.0,0.0,0.0,0.0,0.0,0.0,0.0,0.0,0.0,0.0,0.0,0.0,0.0,0.0,0.0,0.0,0.0,0.0,0.0,0.0,0.0,0.0,0.0,0.0,0.0,0.0,0.0,0.0,0.0,0.0,0.0,0.0,0.0,0.0,0.0,0.0,0.0,0.0,0.0,0.0,0.0,0.0,0.0,0.0,0.0,0.0,0.0,0.0,0.0,0.0,0.0,0.0,0.0,0.0,0.0,0.0,0.0,0.0,0.0,0.0,0.0,0.0,0.0,0.0,0.0,0.0,0.0,0.0,0.0,0.0,0.0,0.0,0.0,0.0,0.0,0.0,0.0,0.0,0.0,0.0,0.0,0.0,0.0,0.0,0.0,0.0,0.0,-2.428,-2.1875,-2.0875,-2.2877,-2.2796,-2.2635,-2.2635,-2.1486,-2.1082,-2.1778,0.0,0.0,0.0,0.0,0.0,0.0,0.0,0.0,0.0,0.0,0.0,0.0,0.0,0.0,0.0,0.0,0.0,0.0,0.0,0.0,0.0,0.0,0.0,0.0,0.0,0.0,0.0,0.0,0.0,0.0,0.0,0.0,0.0,0.0,0.0,0.0,0.0,0.0,0.0,0.0,0.0,0.0,0.0,0.0,0.0,0.0,0.0,0.0,0.0,0.0,0.0,0.0,0.0,0.0,0.0,0.0,0.0,0.0,0.0,0.0,0.0,0.0,0.0,0.0,0.0,0.0,0.0,0.0,0.0,0.0,0.0,0.0,0.0,0.0,0.0,0.0,0.0,0.0,0.0,0.0,0.0,0.0,0.0,0.0,0.0,0.0,0.0,0.0,0.0,0.0,0.0,0.0,0.0,0.0,0.0,0.0,0.0,0.0,0.0,0.0,0.0,0.0,-2.0364,-1.9057,-1.8696,-2.022,-2.113,-2.1614,-2.1705,-2.0399,-2.002,-2.1171,0.0,0.0,0.0,0.0,0.0,0.0,0.0,0.0,0.0,0.0,0.0,0.0,0.0,0.0,0.0,0.0,0.0,0.0,0.0,0.0,0.0,0.0,0.0,0.0,0.0,0.0,0.0,0.0,0.0,0.0,0.0,0.0,0.0,0.0,0.0,0.0,0.0,0.0,0.0,0.0,0.0,0.0,0.0,0.0,0.0,0.0,0.0,0.0,0.0,0.0,0.0,0.0,0.0,0.0,0.0,0.0,0.0,0.0,0.0,0.0,-2.1005,0.0,0.0,0.0,0.0,0.0,0.0,0.0,0.0,0.0,0.0,0.0,0.0,0.0,0.0,0.0,0.0,0.0,0.0,0.0,0.0,0.0,0.0,0.0,0.0,0.0,0.0,0.0,0.0,0.0,0.0,0.0,0.0,0.0,0.0,0.0,0.0,0.0,0.0,0.0,0.0,0.0,-1.651,-1.6016,-1.5782,-1.7139,-1.7202,-1.746,-1.8214,-1.7339,-1.7166,-1.8193,-1.7259,0.0,0.0,0.0,0.0,0.0,0.0,0.0,0.0,0.0,0.0,0.0,0.0,0.0,0.0,0.0,0.0,0.0,0.0,0.0,0.0,0.0,0.0,0.0,0.0,0.0,0.0,0.0,0.0,0.0,0.0,0.0,0.0,0.0,0.0,0.0,0.0,0.0,0.0,0.0,0.0,0.0,0.0,0.0,0.0,0.0,0.0,0.0,0.0,0.0,0.0,0.0,0.0,0.0,0.0,0.0,0.0,0.0,0.0,0.0,0.0,-2.1812,0.0,0.0,0.0,0.0,0.0,0.0,0.0,0.0,0.0,0.0,0.0,0.0,0.0,0.0,0.0,0.0,0.0,0.0,0.0,0.0,0.0,0.0,0.0,0.0,0.0,0.0,0.0,0.0,0.0,0.0,0.0,0.0,0.0,0.0,0.0,0.0,0.0,0.0,0.0,0.0,-1.3202,-1.3655,-1.3897,-1.4763,-1.5363,-1.5853,-1.6188,-1.5872,-1.5824,-1.6384,-1.6369,0.0,0.0,0.0,0.0,0.0,0.0,0.0,0.0,0.0,0.0,0.0,0.0,0.0,0.0,0.0,0.0,0.0,0.0,0.0,0.0,0.0,0.0,0.0,0.0,0.0,0.0,0.0,0.0,0.0,0.0,0.0,0.0,0.0,0.0,0.0,0.0,0.0,0.0,0.0,0.0,0.0,0.0,0.0,0.0,0.0,0.0,0.0,0.0,0.0,0.0,0.0,0.0,0.0,0.0,0.0,-3.0304,-3.1634,-3.219,-3.1931,-2.812,-2.5102,-2.2885,0.0,0.0,0.0,0.0,0.0,0.0,0.0,0.0,0.0,0.0,0.0,0.0,0.0,0.0,0.0,0.0,0.0,0.0,0.0,0.0,0.0,0.0,0.0,0.0,0.0,-2.6451,-2.4266,0.0,0.0,0.0,0.0,0.0,0.0,0.0,0.0,0.0,0.0,0.0,0.0,-1.009,-1.1624,-1.2585,-1.2764,-1.4154,-1.504,-1.4974,-1.4883,-1.4937,-1.5062,-1.5734,-1.5965,0.0,0.0,0.0,0.0,0.0,0.0,0.0,0.0,0.0,0.0,0.0,0.0,0.0,0.0,0.0,0.0,0.0,0.0,0.0,0.0,0.0,0.0,0.0,0.0,0.0,0.0,0.0,0.0,0.0,0.0,0.0,0.0,-0.7835,-0.7682,0.0,0.0,0.0,0.0,0.0,0.0,0.0,0.0,0.0,0.0,0.0,0.0,0.0,0.0,-2.4292,-2.4456,-2.4847,-2.5582,-2.7065,-2.8825,-3.0915,-3.2823,-3.4307,-3.5324,-3.3779,0.0,-2.6406,-2.5014,0.0,0.0,0.0,0.0,0.0,0.0,0.0,0.0,0.0,0.0,0.0,0.0,0.0,0.0,0.0,0.0,0.0,0.0,0.0,0.0,0.0,0.0,-3.0488,-2.9708,-2.8652,-2.789,0.0,-2.5973,-2.3325,-2.1112,0.0,0.0,0.0,0.0,0.0,0.0,0.0,0.0,-0.6937,-0.9873,-1.123,-1.1266,-1.2387,-1.3365,-1.384,-1.362,-1.3614,-1.4032,-1.3785,-1.3863,-1.4326,-1.4008,0.0,0.0,0.0,0.0,0.0,0.0,0.0,0.0,0.0,0.0,0.0,0.0,0.0,0.0,0.0,0.0,0.0,0.0,0.0,0.0,0.0,0.0,0.0,0.0,0.0,0.0,0.0,0.0,0.0,-0.7063,-0.7533,-0.7976,-0.8639,-0.8978,0.0,0.0,0.0,0.0,0.0,0.0,0.0,0.0,0.0,-2.0104,-2.0602,-2.2221,-2.5234,-2.5586,-2.6257,-2.724,-2.8559,-3.0357,-3.2443,-3.4024,-3.5405,-3.6585,-3.5843,-3.3751,-3.0685,-2.815,-2.6033,-2.4327,0.0,0.0,0.0,0.0,0.0,0.0,-2.4965,0.0,0.0,0.0,0.0,0.0,0.0,0.0,0.0,0.0,0.0,0.0,0.0,0.0,0.0,-3.2973,-3.1831,-3.0826,-3.0831,-2.8323,-2.5681,0.0,-2.2454,-2.0323,-1.7223,0.0,0.0,0.0,0.0,0.0,-0.9034,-1.038,-1.0825,-1.1248,-1.2361,-1.2966,-1.2921,-1.3027,-1.32,-1.3461,-1.3521,-1.3721,-1.395,-1.4246,-1.4509,0.0,0.0,0.0,0.0,0.0,0.0,0.0,0.0,0.0,0.0,0.0,0.0,0.0,0.0,0.0,0.0,0.0,0.0,0.0,0.0,0.0,0.0,0.0,0.0,0.0,0.0,0.0,0.0,-0.6411,-0.738,-0.7968,-0.9202,-0.9978,0.0,0.0,0.0,0.0,0.0,0.0,-1.4013,-1.4967,-1.7142,-2.0864,-2.1621,-2.3374,-2.6128,-2.6951,-2.7901,-2.9054,-2.9881,-3.1315,-3.3336,-3.4476,-3.5782,-3.7097,-3.6716,-3.5864,-3.4466,-3.0981,-2.8194,-2.6052,-2.5011,-2.4299,0.0,-2.3127,-2.2876,-2.2969,-2.3296,-2.3465,-2.3717,-2.4853,0.0,-2.6859,-2.8448,0.0,0.0,0.0,0.0,-3.6122,-3.6429,0.0,-3.5684,-3.6014,-3.4802,-3.3445,-3.3113,-3.072,-2.819,0.0,-2.4126,-2.1838,-2.0519,0.0,0.0,0.0,0.0,-0.6929,-1.0896,-1.1088,-1.1001,-1.1433,-1.2552,-1.2959,-1.2358,-1.2669,-1.2899,-1.2899,-1.3293,-1.3452,-1.3359,-1.3979,-1.4308,-1.4274,0.0,0.0,0.0,0.0,0.0,0.0,0.0,0.0,0.0,0.0,0.0,0.0,0.0,0.0,0.0,0.0,0.0,0.0,0.0,0.0,0.0,0.0,0.0,0.0,0.0,0.0,0.0,0.0,0.0,-0.7136,-0.9345,0.0,0.0,0.0,0.0,-1.3345,-1.4082,-1.473,-1.5368,-1.645,-1.8438,-2.1292,-2.2928,-2.5084,-2.7735,-2.9036,-2.9905,-3.0511,-3.0033,-3.0984,-3.3065,-3.3754,-3.5224,-3.7206,-3.723,-3.7246,-3.6841,-3.2867,-2.9861,-2.7622,-2.6086,-2.5126,-2.4409,-2.3072,-2.2512,-2.2562,-2.2587,-2.2864,-2.3464,-2.447,-2.6058,-2.7694,-2.8133,-3.0158,0.0,0.0,-3.5198,-3.6653,-3.6787,-3.7644,-3.8322,-3.7586,-3.6918,-3.5992,-3.4523,-3.3074,-3.0896,0.0,-2.3304,-2.0554,-1.997,0.0,-1.3962,-1.312,-1.2043,-1.1095,-1.0335,-1.1433,-1.2027,-1.1537,-1.2552,-1.2959,-1.2358,-1.2291,-1.2352,-1.2352,-1.2338,-1.2276,-1.1992,-1.2019,-1.2571,-1.3708,-1.2893,0.0,0.0,0.0,0.0,0.0,0.0,0.0,0.0,0.0,0.0,0.0,0.0,0.0,0.0,0.0,0.0,0.0,0.0,0.0,0.0,0.0,0.0,0.0,0.0,0.0,0.0,0.0,0.0,-0.997,-1.1575,0.0,0.0,-1.4761,-1.5519,-1.6805,-1.6934,-1.7526,-1.8811,-1.9314,-2.1021,-2.4293,-2.5239,-2.7102,-3.0114,-3.0568,-3.0909,-3.111,-2.9788,-2.9976,-3.1339,-3.0834,-3.1834,-3.3972,-3.4653,-3.5253,-3.5468,-3.3531,-3.1376,-2.9281,-2.8113,-2.6322,-2.4337,-2.3654,-2.3164,-2.2977,-2.2899,-2.3489,-2.4475,-2.5973,-2.6872,-2.7679,-2.8882,-3.0191,-3.1806,-3.4347,-3.586,-3.7101,-3.852,-3.9174,-3.9326,-3.9049,-3.8087,-3.6962,-3.5992,-3.431,-3.2421,-3.0572,-2.7611,-2.4613,-2.2134,-1.9938,-1.7751,-1.5412,-1.402,-1.318,-1.3002,-1.2733,-1.2637,-1.2789,-1.3238,-1.324,-1.2639,-1.2585,-1.2505,-1.2318,-1.2305,-1.2251,-1.2144,-1.2144,-1.2792,-1.4126,-1.3844,-1.4456,0.0,0.0,0.0,0.0,0.0,0.0,0.0,0.0,0.0,0.0,0.0,0.0,0.0,0.0,0.0,0.0,0.0,0.0,0.0,0.0,0.0,0.0,0.0,0.0,0.0,0.0,-1.1533,-1.2868,-1.412,-1.5342,-1.6741,-1.7361,-1.8291,-1.9616,-2.0105,-2.0948,-2.2244,-2.2635,-2.4062,-2.664,-2.772,-2.9343,-3.16,-3.218,-3.2428,-3.2215,-3.0337,-2.9772,-3.0351,-2.9212,-2.9669,-3.1272,-3.23,-3.3126,-3.3687,-3.3217,-3.1945,-3.0132,-2.9343,-2.7537,-2.5273,-2.5156,-2.4746,-2.4271,-2.4581,-2.5083,-2.5893,-2.7606,-2.8405,-2.8978,-3.0052,-3.1198,-3.2529,-3.5038,-3.643,-3.7584,-3.9568,-4.048,-4.0787,-4.0498,-3.9876,-3.8971,-3.7759,-3.6255,-3.4745,-3.3447,-3.0713,-2.7501,-2.4281,-2.2497,-2.043,-1.7549,-1.5723,-1.4782,-1.4935,-1.3996,-1.341,-1.3625,-1.3559,-1.34,-1.2876,-1.2839,-1.2732,-1.2331,-1.2398,-1.2547,-1.2732,-1.2903,-1.3711,-1.5331,-1.5535,-1.6027,-1.6929,0.0,0.0,0.0,0.0,0.0,0.0,0.0,0.0,0.0,0.0,0.0,0.0,0.0,0.0,0.0,0.0,0.0,0.0,0.0,0.0,0.0,0.0,0.0,-1.2459,-1.3031,-1.4214,-1.5368,-1.6707,-1.7807,-1.8592,-2.0086,-2.1275,-2.1743,-2.372,-2.5013,-2.5492,-2.6371,-2.7266,-2.82,-3.0333,-3.1704,-3.2189,-3.3871,-3.4406,-3.3809,-3.1511,-3.0375,-3.0288,-2.9035,-2.8767,-2.9371,-3.0426,-3.1143,-3.1735,-3.2107,-3.1418,-3.0286,-2.9722,-2.8493,-2.709,-2.7519,-2.7129,-2.6507,-2.7424,-2.7498,-2.7431,-2.9297,-3.0682,-3.1653,-3.1598,-3.2987,-3.4691,-3.549,-3.6731,-3.8245,-3.9841,-4.1641,-4.2845,-4.2015,-4.2262,-4.2075,-3.985,-3.9015,-3.802,-3.5634,-3.2169,-2.8874,-2.6262,-2.4123,-2.1927,-1.9427,-1.7416,0.0,-1.5786,-1.5035,-1.4322,-1.3734,-1.3667,-1.3427,-1.2903,-1.3053,-1.2973,-1.2371,-1.2599,-1.3078,-1.371,-1.4156,-1.529,-1.7225,-1.7696,-1.7605,-1.6946,0.0,0.0,0.0,0.0,0.0,0.0,0.0,0.0,0.0,0.0,0.0,0.0,0.0,0.0,0.0,0.0,0.0,0.0,0.0,0.0,0.0,0.0,-1.6776,-1.4687,-1.6037,-1.734,-1.7729,-1.9101,-2.0649,-2.2514,-2.3447,-2.4581,-2.6317,-2.734,-2.7924,-2.7985,-2.8622,-2.9594,-3.1038,-3.0943,-3.2067,-3.4555,-3.4305,-3.3608,-3.2575,-3.0714,-2.9307,-2.8299,-2.6755,-2.6765,-2.8164,-2.8764,-2.986,-3.1121,-3.0621,-3.0321,-3.0307,-3.0181,-2.9064,-2.75,-2.7617,-2.7305,-2.7021,-2.8769,-2.9012,-2.8969,-3.094,-3.2016,-3.2568,-3.229,-3.3451,-3.5326,-3.7432,-3.8617,-3.9797,-4.2498,-4.3816,-4.4402,-4.4186,-4.3408,-4.24,-4.1416,-3.9881,-3.8221,-3.6574,-3.488,-3.2174,-2.7606,-2.5486,-2.3509,-2.0689,0.0,0.0,-1.6991,-1.658,-1.5874,-1.4421,-1.4282,-1.4041,-1.344,-1.348,-1.336,-1.2986,-1.3039,-1.3493,-1.4455,-1.4606,-1.5771,-1.8113,-1.8511,-1.8608,0.0,0.0,0.0,0.0,0.0,0.0,0.0,0.0,0.0,0.0,0.0,0.0,0.0,0.0,0.0,0.0,0.0,0.0,0.0,0.0,0.0,0.0,-1.7716,-1.8657,-1.8167,-1.9392,-2.0527,-2.1213,-2.1759,-2.2775,-2.4466,-2.5849,-2.7212,-2.8634,-3.0037,-3.0856,-3.0967,-3.1284,-3.2276,-3.3946,-3.3089,-3.3674,-3.5891,-3.4423,-3.3301,-3.234,-3.0049,-2.861,-2.7756,-2.6104,-2.5853,0.0,-2.7513,-2.8317,-2.9303,-2.9167,-2.9288,0.0,0.0,0.0,0.0,0.0,-2.75,-2.7617,-2.9667,-3.0153,-3.0213,-3.2264,-3.327,-3.3648,-3.3636,-3.4253,-3.5379,-3.7432,-3.8391,-3.9314,-4.1531,-4.3131,-4.4258,-4.4578,-4.416,-4.3484,-4.288,-4.1297,-3.9576,-3.8289,0.0,0.0,-3.0006,-2.75,-2.5071,-2.2276,-2.0996,-1.9643,0.0,-1.7217,-1.636,-1.4561,-1.475,-1.4797,-1.4307,-1.4784,0.0,0.0,0.0,-1.5232,-1.6321,-1.6918,0.0,0.0,0.0,-1.8798,0.0,0.0,0.0,0.0,-1.8138,-1.7681,0.0,0.0,0.0,0.0,0.0,0.0,0.0,0.0,0.0,0.0,0.0,0.0,0.0,0.0,0.0,0.0,-1.9011,-2.074,-2.1875,-2.2574,-2.3426,-2.4555,-2.4275,-2.4389,-2.5248,-2.7423,-2.9104,-2.9714,-3.1841,-3.3346,-3.3972,0.0,0.0,0.0,0.0,-3.5726,-3.6479,-3.4412,-3.3081,-3.2488,-2.9663,-2.8216,-2.7959,-2.6446,-2.5684,-2.5567,-2.6443,-2.6812,-2.6865,-2.7727,-2.8203,-2.8301,-2.8301,-2.8174,-2.8028,-2.7871,-2.7629,0.0,0.0,0.0,0.0,-3.3391,-3.4315,-3.465,-3.5083,-3.519,-3.5363,-3.6387,-3.7197,-3.8029,-3.9102,-4.122,-4.3253,-4.4062,-4.465,-4.4818,-4.4124,-4.2965,-4.1674,-4.0238,-3.8189,-3.5761,-3.2973,-2.9545,-2.6349,-2.3993,-2.2123,0.0,-1.8566,-1.7722,-1.662,-1.4739,0.0,0.0,-1.5594,-1.6734,-1.7136,-1.6663,-1.7008,-1.7682,-1.871,-2.0098,-2.0387,-1.9396,-1.9236,-1.8735,-1.7629,-1.7946,-1.8614,-1.9606,-1.8697,-1.833,0.0,0.0,0.0,0.0,0.0,0.0,0.0,0.0,0.0,0.0,0.0,0.0,0.0,0.0,0.0,-1.6515,-1.8566,-2.0662,-2.2551,-2.3998,-2.4563,-2.4058,-2.4761,-2.5793,-2.6981,-2.8103,-2.9707,-3.1903,-3.2887,-3.3752,-3.4485,-3.4977,0.0,-3.6305,-3.4915,-3.4889,-3.6305,-3.3692,-3.197,-3.1258,0.0,0.0,-2.6765,-2.6388,-2.5443,-2.4214,-2.5388,-2.5748,-2.5515,-2.6756,-2.7676,-2.8301,-2.8301,-2.7618,-2.6698,-2.7756,-2.7378,-2.6999,-3.0751,-3.1793,-3.1848,-3.4372,-3.5212,-3.5257,-3.4759,-3.5471,0.0,-3.7545,-3.8385,-3.9556,-4.1564,-4.2488,-4.3232,-4.4674,-4.5062,-4.4941,-4.4425,-4.3944,-4.3115,-4.1285,-3.9386,-3.7449,-3.5363,-3.0634,-2.6604,-2.4785,-2.3213,-2.1768,-2.0765,-2.0572,-1.971,-1.7776,-1.7782,-1.7806,-1.7531,-1.7747,-1.7929,-1.8146,-1.9051,-1.9829,-2.0425,-2.1568,-2.2045,-2.1794,-2.0996,-2.0219,-1.9644,-1.8871,-1.9075,-2.0087,-1.9835,-2.009,0.0,0.0,0.0,0.0,0.0,0.0,0.0,0.0,0.0,0.0,0.0,-1.4656,0.0,0.0,-1.58,-1.7125,-1.8985,-2.0633,-2.1856,-2.3336,-2.4388,-2.4462,-2.4676,-2.5358,-2.6342,-2.7441,-2.9279,-3.2254,-3.3074,-3.4076,-3.5437,-3.5554,-3.6055,-3.7174,-3.5609,-3.5213,-3.6392,-3.3126,-3.1178,-3.0398,-2.8082,-2.641,-2.5526,-2.479,-2.3856,-2.2978,-2.3781,-2.3976,-2.3774,-2.479,-2.5414,-2.5919,-2.6208,-2.6226,-2.6173,-2.7066,-2.6902,-2.6571,-3.0057,-3.1164,-3.1328,-3.3744,-3.4527,-3.4743,-3.5934,-3.6356,-3.677,-3.8322,-3.8835,-3.9209,-4.0451,-4.1324,-4.2222,-4.378,-4.4147,-4.4223,-4.4376,-4.3972,-4.3172,-4.1421,-4.0079,-3.8459,-3.6079,-3.2482,-2.9071,-2.6462,-2.4559,-2.2917,-2.1606,-2.1409,-2.0731,-1.9,-1.9127,-1.9279,-1.9089,-1.9769,-2.0322,-2.0503,-2.1423,-2.1995,-2.1995,-2.2766,-2.2785,-2.2032,-2.1471,-2.1098,-2.0811,-2.0571,-2.0943,-2.2013,-2.2221,-2.2315,0.0,0.0,0.0,0.0,0.0,0.0,0.0,0.0,-1.4576,-1.511,-1.5257,-1.5458,-1.5992,-1.6326,-1.6922,-1.7876,-1.9341,-2.0492,-2.0668,-2.2011,-2.3313,-2.4152,-2.4003,-2.4227,-2.4952,-2.63,-2.8341,-3.1229,-3.2544,-3.4102,-3.5928,-3.5744,-3.6345,-3.7743,-3.6269,-3.576,-3.6315,-3.258,-3.0583,-3.0175,-2.642,-2.4783,-2.4751,-2.3279,-2.2266,-2.1812,-2.2193,-2.2372,-2.2474,-2.3137,-2.3402,-2.3485,-2.3829,-2.4478,-2.5418,-2.5933,-2.594,-2.6136,-2.892,-3.0057,-3.0657,-3.2966,-3.3553,-3.4026,-3.7004,-3.7236,-3.6916,-3.8927,-3.9235,-3.8953,-3.8947,-3.9903,-4.1117,-4.2377,-4.2935,-4.3373,-4.4027,-4.3769,-4.3013,-4.174,-4.0712,-3.9183,-3.6458,-3.4376,-3.1855,-2.7996,-2.5941,-2.4141,-2.2277,-2.2023,-2.1642,-2.05,-2.0943,-2.1372,-2.1625,-2.2834,-2.3453,-2.3216,-2.387,-2.4058,-2.3516,-2.3926,-2.3621,-2.2353,-2.2427,-2.2427,-2.2353,-2.2686,-2.3315,-2.418,-2.4609,-2.4336,-1.6433,-1.5832,-1.503,-1.5284,-1.4923,-1.4656,0.0,0.0,-1.5725,-1.6059,-1.6326,-1.6607,-1.6941,-1.7235,-1.7539,-1.7644,-1.8683,-1.9641,-1.9774,-2.0644,-2.1208,-2.1017,-2.2393,-2.3319,-2.3386,-2.5107,-2.691,-2.8489,-3.1003,-3.3086,-3.4581,-3.5713,-3.6377,-3.6615,-3.5923,-3.5504,-3.5612,-3.209,-3.0404,-3.0785,-2.6465,-2.4512,-2.4751,-2.3385,-2.1985,-2.0662,-2.0801,-2.154,-2.2716,-2.3237,-2.3402,-2.3393,-2.2821,-2.2655,-2.2628,-2.425,-2.4729,-2.4851,-2.7763,-2.9399,-3.0721,-3.3406,-3.3957,-3.4004,-3.6623,-3.7547,-3.8088,-3.9406,-4.0371,-4.0905,-4.0364,-4.0405,-4.0733,-4.0939,-4.2103,-4.3179,-4.3373,-4.3776,-4.39,-4.3205,-4.1757,-3.9872,-3.7695,-3.5586,-3.2772,-2.8459,-2.6842,-2.5612,-2.4277,-2.4074,-2.4106,-2.419,-2.4674,-2.5486,-2.6572,-2.7145,-2.6998,-2.5941,-2.5957,-2.5644,-2.4938,-2.5293,-2.5392,-2.5257,-2.5625,-2.5625,-2.5257,-2.5295,-2.5315,-2.5527,-2.5977,-2.5703,-1.5725,-1.5578,-1.5498,0.0,-1.5591,-1.5967,-1.7423,-1.7606,-1.8013,-1.9407,-1.9722,-1.9984,-2.0419,-2.0787,-2.0956,0.0,-2.1199,-2.1199,-2.0181,-2.0376,-2.0136,-1.8745,-1.965,-2.0973,-2.2116,-2.3739,-2.5664,-2.796,-3.0037,-3.205,-3.4288,-3.4969,-3.5571,-3.6358,-3.6132,-3.5881,-3.5554,-3.2557,-3.0903,-3.0449,-2.6462,-2.4068,-2.3184,-2.2113,-2.0428,-1.8078,-1.7117,-1.6907,-1.7461,-1.7866,-1.8559,-1.933,-1.9495,-2.0077,-2.1024,-2.3112,-2.365,-2.3684,-2.6839,-2.7995,-2.8662,-3.2347,-3.3247,-3.357,-3.7595,-3.8655,-3.8894,-4.0771,-4.1347,-4.1235,-4.0576,-4.0507,-4.0653,-4.069,-4.1247,-4.1912,-4.2421,-4.2766,-4.27,-4.1917,-4.0733,-3.914,-3.711,-3.5573,-3.345,-3.0319,-2.8492,-2.7294,-2.7019,-2.6568,-2.636,-2.665,-2.6889,-2.728,-2.7798,-2.7547,-2.7226,-2.6683,-2.6218,-2.5924,-2.582,-2.6016,-2.623,-2.6484,-2.666,-2.666,-2.6484,-2.6484,-2.6484,-2.6484,-2.668,-2.6543,-1.5591,0.0,0.0,-1.6142,-1.6579,-1.7612,-1.9149,-1.9729,-2.0458,-2.2092,-2.2431,-2.2495,-2.2905,-2.3029,-2.3095,-2.3021,-2.3029,-2.2425,-2.0636,-2.03,-1.9546,-1.7549,-1.7769,-1.8769,-2.0467,-2.245,-2.4573,-2.6784,-2.8991,-3.1133,-3.3155,-3.3674,-3.4459,-3.5763,-3.5858,-3.5779,-3.578,-3.3071,-3.1353,-3.0538,-2.6676,-2.4035,-2.2323,-2.0626,-1.8577,-1.6448,-1.4656,-1.3784,-1.3794,-1.4069,-1.4835,-1.593,-1.6544,-1.7721,-1.9389,-2.1259,-2.2213,-2.287,-2.5915,-2.6734,-2.7216,-3.1741,-3.2958,-3.3515,-3.8815,-3.9968,-3.9871,-4.2296,-4.2432,-4.1773,-4.1115,-4.1061,-4.0903,-4.0335,-4.0467,-4.0692,-4.0743,-4.097,-4.1002,-4.0423,-3.9455,-3.8193,-3.6498,-3.5359,-3.3985,-3.2016,-3.0284,-2.9233,-2.9172,-2.8936,-2.8936,-2.9349,-2.9607,-2.9759,-2.9899,-2.8948,-2.8169,-2.7822,-2.6935,-2.6428,-2.6367,-2.6621,-2.6894,-2.7187,-2.7305,-2.7363,-2.7363,-2.7363,-2.7363,-2.7363,-2.7363,-2.7363,-1.6621,-1.7105,-1.7852,-1.6905,-1.7981,-1.9396,-1.9743,-2.1354,-2.2888,-2.327,-2.3244,-2.3135,-2.3168,-2.2781,-2.2666,-2.3119,-2.2889,-2.2215,-2.0909,-2.0152,-1.9242,-1.7779,-1.7341,-1.7422,0.0,-2.1294,-2.3568,-2.39,-2.7931,-3.0328,-3.0411,-3.1622,-3.3055,-3.4385,-3.4483,-3.5066,-3.6332,-3.3235,-3.1712,-3.1569,-2.7172,-2.4316,-2.3059,-1.899,-1.6937,-1.6459,-1.4824,-1.4119,-1.4119,-1.4129,-1.4255,-1.4296,-1.4871,-1.6013,-1.7528,-1.8185,-2.0183,-2.2766,-2.473,-2.5908,-2.7253,-3.2212,-3.3473,-3.424,-3.9907,-4.1211,-4.1128,-4.3543,-4.3778,-4.312,-4.2462,-4.2359,-4.1769,-3.9441,-3.9534,-3.9682,-3.8044,-3.8443,-3.9182,-3.9182,-3.8473,-3.7482,-3.6369,-3.5359,-3.4345,-3.324,-3.2325,-3.1343,-3.03,-3.1228,-3.2198,-3.2673,-3.3293,-3.3959,-3.4485,-3.2932,-3.1412,-3.0184,-2.8903,-2.759,-2.6486,-2.7187,-2.7637,-2.7656,-2.8047,-2.8262,-2.8262,-2.8262,-2.8262,-2.8262,-2.8262,-2.8262,-1.6652,-1.7136,-1.7819,-1.8104,-1.8824,-2.01,-2.2843,-2.365,-2.4344,-2.6226,-2.599,-2.5256,-2.4877,-2.4472,-2.4417,-2.5219,-2.4575,-2.4105,-2.3922,-2.2881,-2.1333,-1.9111,-1.908,0.0,0.0,0.0,0.0,-2.3535,-2.663,-2.9103,-3.0203,-3.0721,-3.1622,-3.2955,-3.3055,-3.3254,-3.365,-3.1772,-3.0643,-3.0321,-2.573,-2.3359,-2.3075,-1.8704,-1.617,-1.5194,-1.3542,-1.2235,-1.1287,-1.1287,-1.2592,-1.4498,-1.465,-1.6391,-1.8711,-1.9202,-2.0013,-2.125,-2.3444,-2.4891,-2.636,-2.9971,-3.2297,-3.4291,-3.7884,-4.0081,-4.1647,-4.3257,-4.4157,-4.4377,-4.3299,-4.303,-4.2436,-3.9952,-3.9257,-3.8851,-3.7507,-3.7787,-3.8397,-3.8835,-3.8082,-3.7247,-3.6927,-3.5632,-3.4717,-3.465,-3.3568,-3.2487,-3.1972,-3.2702,-3.3538,-3.3991,-3.428,-3.4139,-3.3441,-3.2066,-3.0723,-2.9375,-2.814,-2.732,-2.7226,-2.7519,-2.7793,-2.8066,-2.8223,-2.8301,-2.8301,-2.8301,-2.8301,-2.8301,-2.8301,-2.8301,-1.7351,-1.8156,-1.9099,-1.9461,-2.0151,-2.1374,-2.3863,-2.4778,-2.544,-2.6761,-2.6506,-2.5918,-2.5176,-2.4687,-2.4668,-2.5547,-2.5093,-2.4767,-2.5136,-2.4263,-2.282,-2.0798,-2.0892,-2.0709,0.0,0.0,0.0,-2.3734,-2.6828,-2.9104,-3.0207,-3.0207,-3.0766,-3.2044,-3.187,-3.2002,-3.2331,-3.0927,-2.9974,-2.9188,-2.5058,-2.3194,-2.3075,-1.8704,-1.617,-1.5194,-1.314,-1.1615,-1.0664,-1.0664,-1.1856,-1.3765,-1.4361,-1.6267,-1.8544,-1.8724,-1.9337,-2.0402,-2.2681,-2.4205,-2.5796,-2.9028,-3.1655,-3.4088,-3.7311,-3.9427,-4.1059,-4.2677,-4.3486,-4.3745,-4.2902,-4.2831,-4.2392,-3.9703,-3.8999,-3.8383,-3.6626,-3.7097,-3.7969,-3.8445,-3.797,-3.7482,-3.7482,-3.5982,-3.4851,-3.5203,-3.4349,-3.3781,-3.3995,-3.452,-3.4926,-3.5278,-3.4935,-3.4235,-3.3363,-3.1547,-3.0067,-2.9195,-2.7923,-2.7383,-2.7656,-2.7812,-2.8027,-2.8281,-2.8301,-2.8301,-2.8301,-2.8437,-2.8437,-2.8301,-2.8437,-2.8516,-1.8728,-2.0074,-2.1522,-2.1081,-2.1959,-2.3033,-2.3004,-2.4795,-2.617,-2.4984,-2.5195,-2.5215,0.0,0.0,-2.3418,-2.4277,-2.4492,-2.4507,-2.4528,-2.4299,-2.3806,0.0,0.0,0.0,0.0,0.0,0.0,-2.4842,0.0,-3.0234,-3.0293,-3.0273,-3.0717,-3.1558,-3.11,-3.1253,-3.1971,-3.0618,-2.9282,-2.8067,-2.5058,-2.3529,-2.3217,-1.903,-1.6856,-1.6287,-1.358,-1.2242,-1.2122,-1.2242,-1.2242,-1.2483,-1.4143,-1.5688,-1.7103,-1.7091,-1.8214,-2.0118,-2.2238,-2.3882,-2.5711,-2.9231,-3.1512,-3.3733,-3.7814,-3.9088,-3.9499,-4.1692,-4.2021,-4.1553,-4.1526,-4.2008,-4.1651,-3.8809,-3.8573,-3.8152,-3.5392,-3.6505,-3.8062,-3.809,-3.8173,-3.8117,-3.7978,-3.6123,-3.4776,-3.4801,-3.4801,-3.5177,-3.6182,-3.6307,-3.6332,-3.6358,-3.5259,-3.4459,-3.4288,-3.1506,-2.9758,-2.9677,-2.8384,-2.7695,-2.7695,-2.8086,-2.8301,-2.8301,-2.832,-2.832,-2.832,-2.875,-2.875,-2.8359,-2.8769,-2.8945,-2.0706,-2.137,-2.1922,-2.3319,-2.3789,-2.4224,-2.5201,-2.5761,-2.5973,-2.5964,-2.4793,-2.3516,0.0,0.0,0.0,-2.4219,-2.5508,0.0,-2.7641,-2.8007,0.0,-2.6367,0.0,-2.6505,-2.5729,-2.7647,0.0,0.0,-2.9898,-3.0625,-3.1621,-3.1348,-3.1093,-3.1122,-2.947,-2.8427,-2.8109,-2.6354,-2.5243,-2.4931,-2.3039,-2.2107,-2.203,-1.9973,-1.7708,-1.5241,-1.4739,-1.3119,-1.0907,-1.2142,-1.3367,-1.4696,-1.6112,-1.7625,-1.905,-1.8842,-1.9194,-1.9853,-2.0684,-2.2161,-2.4081,-2.6439,-2.9231,-3.2145,-3.409,-3.712,-3.9848,-4.0132,-4.1506,-4.2923,-4.2389,-4.2325,-4.1846,-3.9256,-3.8474,-3.7738,-3.5704,-3.6682,-3.8173,-3.8642,-3.8809,-3.8351,-3.7001,-3.5948,-3.5479,-3.5881,-3.5956,-3.5906,-3.578,-3.5755,-3.5906,-3.6307,-3.57,-3.4534,-3.3009,-3.1684,-3.037,-2.872,-2.8337,-2.8125,-2.8125,-2.8242,-2.8301,-2.8301,-2.8594,-2.8769,-2.8769,-2.9199,-2.9355,-2.9238,-2.9355,-2.9394,-2.2543,-2.3369,-2.4084,-2.6222,-2.6127,-2.5675,-2.5902,-2.5806,-2.536,-2.4641,-2.3932,-2.3125,-2.207,-2.207,0.0,0.0,0.0,0.0,-2.8105,-2.8418,-2.8571,0.0,-2.9047,0.0,-2.927,-3.0816,-3.2237,0.0,-3.2565,-3.25,-3.3242,-3.3047,-3.2539,-3.1758,-2.9517,-2.7445,-2.5648,-2.4507,-2.3987,-2.3822,-2.2251,-2.166,-2.168,-1.9548,-1.7661,-1.5932,0.0,-1.3143,-1.1404,-1.2398,-1.376,-1.5484,-1.6963,-1.8431,-1.9786,-1.9613,-1.9586,-1.9653,-1.9947,-2.0818,-2.2219,-2.4254,-2.7522,-3.0825,-3.1933,-3.4793,-3.7739,-3.8558,-3.9827,-4.0937,-4.1169,-4.1486,-4.1152,-3.9016,-3.846,-3.7978,-3.6286,-3.7037,-3.8255,-3.8851,-3.9618,-3.9563,-3.7489,-3.6634,-3.6358,-3.6684,-3.6508,-3.6257,-3.5956,-3.5906,-3.6006,-3.6332,-3.5585,-3.4246,-3.2409,-3.1482,-3.024,-2.8368,-2.8301,-2.8301,-2.8301,-2.8301,-2.8301,-2.8301,-2.8711,-2.8926,-2.8926,-2.9551,-2.9746,-2.957,-2.9766,-2.9844,-2.46,-2.5874,-2.7001,-2.9253,-2.8659,-2.726,-2.6288,-2.577,-2.4765,-2.2697,-2.3054,-2.3262,-2.209,-2.189,-2.231,-2.3828,0.0,-2.4927,-2.7734,-2.7715,-2.8203,-3.0293,-3.0937,-3.1738,-3.3008,-3.3906,-3.4941,-3.6172,-3.5566,-3.5098,-3.5039,-3.498,-3.4206,-3.2363,-3.0039,-2.7297,-2.3905,-2.3809,-2.3568,-2.3215,-2.1699,-2.1176,-2.1248,-1.8369,-1.6986,-1.6841,0.0,0.0,-1.2496,-1.2725,-1.3852,-1.5628,-1.7067,-1.8666,-1.996,-1.988,-1.9693,-1.9519,-1.9813,-2.008,-2.0618,-2.2886,-2.6091,-2.9189,-3.0591,-3.2474,-3.455,-3.6901,-3.7581,-3.7892,-3.9124,-3.993,-4.0037,-3.8437,-3.8364,-3.8366,-3.6767,-3.7387,-3.8398,-3.8885,-4.0318,-4.0695,-3.8383,-3.7613,-3.7287,-3.7287,-3.6885,-3.6653,-3.6843,-3.6622,-3.6358,-3.6358,-3.5306,-3.3997,-3.2733,-3.1272,-2.9953,-2.8708,-2.8388,-2.8301,-2.8301,-2.8301,-2.832,-2.8379,-2.8789,-2.9023,-2.9082,-2.9961,-3.0176,-2.9844,-3.0254,-3.0449,-2.7137,-2.8051,-2.8516,-3.1357,-3.1114,-2.9559,-2.8129,-2.6958,0.0,-2.4333,-2.3338,-2.2559,-2.1992,-2.1636,-2.224,-2.4927,-2.5168,-2.6266,-2.9848,-2.9941,-3.0312,0.0,-3.2715,-3.3496,-3.4824,-3.5723,0.0,0.0,0.0,0.0,-3.6875,-3.6523,-3.4293,-2.9757,-2.829,-2.5705,-2.1742,-2.1105,-2.0823,-2.0517,-1.8712,-1.7917,-1.7961,-1.6425,-1.5091,-1.3891,0.0,0.0,-1.1347,-1.2644,-1.4353,-1.6296,-1.7587,-1.9187,-2.0815,-2.0334,-2.012,-2.012,-2.0414,-2.0561,-2.0902,-2.2959,-2.4314,-2.5612,-2.8516,-3.0679,-3.2575,-3.4064,-3.6139,-3.8095,-3.8311,-3.9143,-3.9576,-3.834,-3.8111,-3.7855,-3.6679,-3.7603,-3.8912,-3.9517,-3.9891,-3.9685,-3.8285,-3.7914,-3.7864,-3.7864,-3.7789,-3.8079,-3.9181,-3.7646,-3.6358,-3.6358,-3.5769,-3.4985,-3.4142,-3.237,-3.0904,-2.9995,-2.89,-2.8301,-2.8301,-2.8301,-2.8457,-2.8809,-2.9238,-2.9629,-2.998,-3.0859,-3.125,-3.1191,-3.1621,-3.1816,-2.8461,-2.9757,-3.0583,-3.3908,-3.3199,-3.1339,-2.9568,0.0,0.0,-2.4687,-2.33,-2.2208,-2.202,-2.1105,0.0,-2.3044,-2.3107,-2.4085,-2.7301,-2.7355,-2.8264,-3.1402,-3.2244,-3.3105,0.0,0.0,0.0,0.0,0.0,0.0,-3.7494,-3.7012,-3.5035,-3.1507,-3.0425,-2.7767,-2.3451,-2.2692,-2.1656,-2.0254,-1.8227,-1.7451,-1.7723,-1.5288,-1.3997,-1.3486,0.0,0.0,-1.0948,-1.188,-1.3871,-1.6501,-1.7064,-1.8983,-2.1283,-2.0855,-2.0588,-2.0468,-2.0454,-2.0548,-2.0846,-2.2006,-2.317,-2.4432,-2.6048,-2.7882,-2.9842,-3.2197,-3.3747,-3.507,-3.6587,-3.7395,-3.7405,-3.6341,-3.6314,-3.6431,-3.6438,-3.8007,-3.9318,-3.8988,-3.9894,-4.0311,-3.907,-3.8642,-3.8467,-3.8467,-3.9086,-3.9615,-3.9876,-4.0065,-3.9691,-3.8359,-3.7697,-3.6691,-3.4939,-3.3679,-3.2184,-3.0411,-2.9928,-2.9347,-2.8613,-2.8828,-2.9043,-2.9258,-2.9922,-3.0234,-3.0195,-3.1094,-3.1523,-3.1523,-3.1738,-3.1953,-2.8727,-3.0729,-3.2414,-3.5454,-3.458,-3.248,-3.0742,-2.8301,0.0,-2.4805,-2.3279,-2.2059,-2.2059,-2.0576,-1.9792,0.0,-2.0999,-2.1583,-2.4234,-2.4711,-2.5944,0.0,-3.0775,0.0,-3.3038,0.0,0.0,0.0,0.0,0.0,0.0,-3.6029,-3.4863,-3.3282,-3.2445,-3.0189,-2.6511,-2.5436,-2.376,-2.1658,-1.9088,-1.8022,-1.8337,-1.5211,-1.4138,-1.4543,0.0,0.0,0.0,-1.2361,-1.4214,-1.7065,-1.7202,-1.9061,-2.1697,-2.1403,-2.1149,-2.0922,-2.0695,-2.0722,-2.0909,-2.1136,-2.2314,-2.3583,-2.4037,-2.5296,-2.7201,-3.0107,-3.1001,-3.1813,-3.438,-3.5124,-3.5156,-3.4534,-3.482,-3.5418,-3.6234,-3.8191,-3.9414,-3.854,-3.9925,-4.087,-4.0055,-3.9521,-3.927,-3.9371,-4.0608,-4.1382,-4.1096,-4.3093,-4.3693,-4.134,-4.0106,-3.8566,-3.6181,-3.5107,-3.3661,-3.162,-3.1169,-3.0549,-2.959,-2.9597,-2.9668,-2.9844,-3.0527,-3.0801,-3.0625,-3.1309,-3.166,-3.166,-3.1758,-3.2031,-2.7524,-3.0261,-3.2676,-3.4035,-3.3876,-3.291,-3.1211,0.0,-2.6133,-2.5195,-2.3598,-2.2362,-2.2362,-2.0311,-1.9376,-2.1837,-2.1154,-2.1076,-2.3218,-2.4964,-2.6215,-2.6588,0.0,0.0,-3.1267,0.0,0.0,0.0,0.0,0.0,0.0,-3.2526,-3.214,-3.1772,-3.1354,-3.0768,-2.986,-2.75,-2.5889,-2.496,-2.0695,-1.8711,-1.8865,-1.7007,-1.6435,-1.7177,0.0,0.0,0.0,-1.646,-1.7495,-1.9422,-1.9224,-2.0488,-2.2298,-2.2017,-2.1884,-2.1857,-2.183,-2.167,-2.147,-2.151,-2.1477,-2.1696,-2.3471,-2.4404,-2.5175,-2.7074,-2.8616,-3.0208,-3.1711,-3.2824,-3.365,-3.4294,-3.5073,-3.5853,-3.6486,-3.7935,-3.9121,-3.9446,-3.9725,-3.9951,-4.035,-4.04,-4.0526,-4.1028,-4.2294,-4.3552,-4.4672,-4.6147,-4.6462,-4.4967,-4.2366,-4.0174,-3.8693,-3.6475,-3.5241,-3.5514,-3.2669,-3.1209,-3.1521,-3.0289,-2.9941,-3.0762,-3.0859,-3.125,-3.1992,-3.207,-3.2109,-3.2129,-3.25,-3.291,-2.6727,-2.898,-3.099,-3.3581,-3.2629,-3.1108,-3.0975,0.0,-2.5993,-2.4575,-2.2832,-2.1387,-2.0606,-1.879,-1.7507,-1.7989,-1.7437,-1.7316,-1.8215,-1.9794,-2.1866,-2.445,-2.7034,0.0,0.0,0.0,0.0,0.0,0.0,0.0,0.0,0.0,-3.281,-3.3848,-3.3629,-3.3173,-3.2914,-3.0169,-2.8063,-2.6299,-2.1745,-1.9622,-1.9593,-1.7812,-1.7205,-1.7592,0.0,0.0,0.0,-1.7398,-1.8411,-2.0012,-1.9918,-2.1158,-2.2899,-2.2418,-2.2472,-2.2739,-2.2378,-2.2164,-2.2071,-2.2071,-2.175,-2.1491,-2.2046,-2.1828,-2.154,-2.335,-2.462,-2.5711,-2.7095,-2.9207,-3.1207,-3.1848,-3.3231,-3.489,-3.6661,-3.7508,-3.8338,-3.944,-3.9973,-4.0249,-4.0475,-4.0802,-4.1078,-4.1304,-4.3519,-4.5212,-4.5255,-4.7827,-4.8827,-4.6505,-4.4382,-4.2244,-4.0055,-3.8711,-3.7453,-3.6589,-3.5514,-3.4133,-3.2222,-3.2696,-3.2508,-3.125,-3.2411,-3.2733,-3.2168,-3.2422,-3.2539,-3.2539,-3.1683,-3.1444,-2.4919,-2.7082,-2.921,-3.1588,-3.0615,-2.91,0.0,0.0,-2.4812,-2.3356,-2.1845,-2.0464,-1.9487,-1.8006,-1.66,-1.547,-1.5244,-1.5076,-1.4891,-1.6564,-1.8896,0.0,0.0,0.0,0.0,0.0,0.0,0.0,0.0,0.0,0.0,0.0,-3.1879,-3.4601,-3.4338,-3.468,-3.588,-3.3142,-3.0617,-2.8193,-2.4176,-2.1925,-2.1249,-1.9818,-1.9357,0.0,0.0,0.0,0.0,-1.958,-2.0167,-2.1278,-2.1278,-2.2128,-2.3407,-2.2979,-2.314,-2.3527,-2.31,-2.2886,-2.2819,-2.2819,-2.2365,-2.1764,-2.1563,-2.0722,-1.9993,-2.0729,-2.1237,-2.1831,-2.3544,-2.5927,-2.8268,-2.9916,-3.1643,-3.3643,-3.6095,-3.6824,-3.7387,-3.8621,-3.9349,-3.9939,-4.0261,-4.0856,-4.1537,-4.2271,-4.4938,-4.6772,-4.6783,-4.9659,-5.0652,-4.7882,-4.6514,-4.4651,-4.1695,-4.0827,-3.9879,-3.8737,-3.8227,-3.6944,-3.4758,-3.538,-3.4945,-3.3387,-3.4149,-3.4139,-3.3234,-3.2942,-3.2525,-3.2008,-3.0717,-3.0263,-2.1764,-2.4787,-2.7665,-2.7665,-2.751,-2.7144,0.0,0.0,-2.2208,-2.1827,-2.0641,-1.9627,-1.9627,-1.8499,-1.7132,-1.5884,-1.5911,-1.5772,-1.4711,-1.6997,0.0,0.0,0.0,0.0,0.0,0.0,0.0,0.0,0.0,0.0,0.0,0.0,-2.8374,-3.2353,-3.2505,-3.4469,-3.8555,-3.6163,-3.3828,-3.1529,-2.8567,-2.6127,-2.4168,-2.3581,0.0,0.0,0.0,0.0,0.0,-2.3888,-2.3768,-2.3754,-2.3754,-2.3768,-2.3768,-2.3754,-2.3941,-2.4195,-2.4182,-2.3995,-2.3754,-2.3754,-2.314,-2.2405,-2.2405,-2.2004,-2.1214,-1.9615,-1.9259,-1.9657,-2.1603,-2.307,-2.5227,-2.9274,-3.0915,-3.2293,-3.4527,-3.5821,-3.663,-3.663,-3.7465,-3.8437,-3.9617,-4.0648,-4.2113,-4.4542,-4.6754,-4.863,-5.0011,-5.1916,-5.21,-4.9209,-4.8862,-4.7433,-4.4017,-4.276,-4.2359,-4.2886,-4.0512,-3.9372,-3.9896,-3.8021,-3.7061,-3.7484,-3.5951,-3.5344,-3.5785,-3.3817,-3.1884,-3.0194,-3.0194,-2.99,-1.996,-2.1532,-2.3261,-2.4755,-2.4146,-2.345,-2.4364,0.0,-2.1522,-2.0257,-1.977,-1.9317,-1.8408,-1.7884,-1.7197,-1.6121,-1.6028,-1.5716,0.0,0.0,0.0,0.0,0.0,0.0,0.0,0.0,0.0,0.0,0.0,0.0,0.0,0.0,0.0,-3.0361,-3.0361,-3.232,-3.6423,-3.4346,-3.3489,-3.3992,-3.1193,-2.8676,-2.6619,0.0,0.0,0.0,0.0,0.0,0.0,-2.4489,-2.4476,-2.4649,-2.4449,-2.4489,-2.4636,-2.4436,-2.4676,-2.5064,-2.4877,-2.4743,-2.4663,-2.4663,-2.4062,-2.334,-2.334,-2.1803,-1.9748,-1.8112,-1.7781,-1.8186,-1.9947,-2.1836,-2.3983,-2.6252,-2.8143,-3.0036,-3.1608,-3.1961,-3.2611,-3.4812,-3.644,-3.7975,-3.9486,-4.2399,-4.48,-4.5576,-4.8921,-5.1274,-5.0847,-5.2905,-5.3144,-4.9765,-4.9417,-4.808,-4.4623,-4.4041,-4.3765,-4.3564,-4.2736,-4.1736,-4.0607,-4.0894,-4.033,-3.8709,-3.8011,-3.74,-3.6876,-3.3695,-3.061,-2.7645,-2.7645,-2.7001,-1.845,-1.9426,-2.0604,-2.2097,-2.1306,0.0,0.0,-2.0783,-1.9527,-1.8658,-1.8599,-1.8462,-1.7765,-1.7582,-1.7235,-1.6227,-1.6086,-1.5955,0.0,0.0,0.0,0.0,0.0,0.0,0.0,0.0,0.0,0.0,0.0,0.0,0.0,0.0,0.0,-2.8404,-2.9042,-3.0961,-3.4301,-3.385,-3.3661,-3.3874,-3.2809,-3.1159,-2.88,0.0,0.0,0.0,0.0,0.0,0.0,-2.5037,-2.5077,-2.5224,-2.5037,-2.5077,-2.5224,-2.5037,-2.5264,-2.5651,-2.5478,-2.5411,-2.5411,-2.5411,-2.489,-2.4249,-2.4128,-2.2051,-1.9586,-1.8545,-1.7767,-1.7752,-1.9324,-2.0931,-2.2671,-2.4935,-2.6641,-2.8073,-2.9481,-3.0024,-3.0754,-3.2858,-3.5367,-3.7814,-3.9722,-4.3144,-4.625,-4.7944,-5.1075,-5.3368,-5.3555,-5.4816,-5.4739,-5.1919,-5.0757,-4.9003,-4.627,-4.496,-4.4101,-4.3757,-4.3757,-4.3232,-4.1923,-4.3382,-4.3154,-4.0877,-4.0163,-3.8777,-3.6595,-3.2205,-2.8954,-2.6721,-2.6026,-2.5366,0.0,-1.8303,-1.9185,-1.9479,-1.8931,-1.833,-1.833,-1.7488,0.0,-1.7034,-1.7101,-1.7208,-1.7528,-1.7569,-1.7316,-1.645,-1.631,-1.6582,0.0,0.0,0.0,0.0,0.0,0.0,0.0,0.0,0.0,0.0,0.0,0.0,0.0,0.0,0.0,0.0,-2.8432,-3.0238,-3.2201,-3.4301,-3.4276,-3.2143,-3.3833,-3.3462,-3.1065,0.0,0.0,0.0,0.0,0.0,0.0,-2.5698,-2.5711,-2.5571,-2.5571,-2.5571,-2.5571,-2.5571,-2.5745,-2.5985,-2.5985,-2.5985,-2.5985,-2.5959,-2.5585,-2.509,-2.4783,-2.2904,-2.0757,-2.0355,-1.916,-1.8275,-1.9749,-2.0298,-2.1463,-2.5338,-2.6085,-2.636,-2.8321,-2.9653,-3.0584,-3.0936,-3.4473,-3.806,-4.0239,-4.3365,-4.6983,-5.1476,-5.3345,-5.5122,-5.7401,-5.7398,-5.6515,-5.489,-5.2337,-5.0045,-4.8647,-4.5523,-4.3731,-4.3731,-4.3606,-4.3482,-4.3529,-4.5086,-4.5086,-4.3279,-4.1482,-3.8819,-3.4869,-2.99,-2.726,-2.7114,-2.5414,-2.485,-1.686,0.0,-1.6727,-1.7034,-1.6941,-1.6794,0.0,-1.6754,-1.666,-1.6513,-1.666,-1.6967,-1.7488,-1.7395,-1.741,-1.7903,-1.7922,-1.8143,0.0,0.0,0.0,0.0,0.0,0.0,0.0,0.0,0.0,0.0,0.0,0.0,0.0,0.0,0.0,0.0,-2.7459,-2.8303,-3.0053,-3.2184,-3.3648,-3.461,-3.6324,-3.608,0.0,0.0,0.0,0.0,0.0,0.0,0.0,-2.7492,-2.734,-2.6186,-2.6186,-2.6186,-2.6186,-2.6186,-2.6226,-2.6293,-2.6293,-2.6293,-2.6253,-2.6026,-2.5865,-2.5692,-2.5398,-2.4539,-2.3216,-2.1595,-2.0694,-2.0278,-2.065,-2.097,-2.2125,-2.5731,-2.5655,-2.5684,-2.8196,-2.8164,-2.8722,-3.2485,-3.535,-3.8476,-4.2806,-4.6441,-4.9883,-5.3,-5.5811,-5.7493,-5.7277,-5.7866,-5.7057,-5.3818,-5.1779,-5.0045,-4.8647,-4.5523,-4.3731,-4.3731,-4.2454,-4.1979,-4.2237,-4.2647,-4.2068,-4.0447,-3.7153,-3.3696,-3.0096,-2.8816,-2.7357,-2.5896,-2.5456,-2.5344,-1.674,-1.6473,-1.6273,-1.6433,-1.6366,-1.6273,-1.6273,-1.6286,-1.6299,-1.6273,-1.6393,-1.6687,0.0,-1.7248,0.0,0.0,-1.8597,0.0,0.0,0.0,0.0,0.0,0.0,0.0,0.0,0.0,0.0,0.0,0.0,0.0,0.0,0.0,0.0,0.0,0.0,-2.7282,-2.8076,-3.0053,-3.1951,-3.3891,-3.5632,-3.6337,0.0,0.0,0.0,0.0,0.0,0.0,-2.6302,-2.8269,-2.8075,-2.6386,-2.6386,-2.6386,-2.6386,-2.6386,-2.6386,-2.6386,-2.6386,-2.6386,-2.636,-2.6199,-2.6159,-2.6119,-2.5959,-2.5692,-2.5166,-2.3527,-2.2965,-2.279,-2.2538,-2.3482,-2.4834,-2.6535,-2.7221,-2.7894,-2.911,-2.9336,-3.0429,-3.37,-3.6476,-3.9501,-4.3714,-4.7415,-5.0791,-5.3476,-5.6491,-5.8404,-5.8279,-5.8656,-5.7704,-5.4539,-5.242,-5.0484,-4.8673,-4.5523,-4.3731,-4.3731,-4.2408,-4.1629,-4.1898,-4.1243,-3.9855,-3.7289,-3.3669,-3.0766,-2.8925,-2.787,-2.6975,-2.5919,-2.5919,-2.5919,-1.6901,-1.6874,-1.6874,-1.674,-1.6486,-1.6273,-1.6273,-1.6072,-1.5952,-1.6456,-1.64,-1.6491,0.0,-1.7449,0.0,0.0,0.0,0.0,0.0,0.0,0.0,0.0,0.0,0.0,0.0,0.0,0.0,0.0,0.0,0.0,0.0,0.0,0.0,0.0,0.0,0.0,-2.6847,-2.853,-3.0223,-3.1893,-3.3979,-3.5884,-3.748,-3.4956,0.0,0.0,0.0,0.0,-2.6544,-2.853,-2.8218,-2.6386,-2.6386,-2.6386,-2.6386,-2.6386,-2.6386,-2.6386,-2.6386,-2.6386,-2.6386,-2.6386,-2.6386,-2.6386,-2.6386,-2.6544,-2.6683,-2.5935,-2.5513,-2.5037,-2.4529,-2.6178,-2.7996,-2.7885,-2.9633,-3.1186,-3.1077,-3.2102,-3.3502,-3.5389,-3.8125,-4.1199,-4.4611,-4.7781,-5.0785,-5.3491,-5.5871,-5.7783,-5.8782,-5.851,-5.7436,-5.5442,-5.2901,-5.0639,-4.8806,-4.5839,-4.4151,-4.4223,-4.2765,-4.1831,-4.1505,-3.9719,-3.7308,-3.4394,-3.0725,-2.8983,-2.8983,-2.7148,-2.6386,-2.6386,-2.6386,-2.6386,-1.7462,-1.7635,-1.7662,-1.6887,-1.6486,-1.6273,-1.6273,-1.6233,-1.6429,-1.7348,0.0,0.0,0.0,-1.8629,-1.8442,0.0,0.0,0.0,0.0,0.0,0.0,0.0,0.0,0.0,0.0,0.0,0.0,0.0,0.0,0.0,0.0,0.0,0.0,0.0,0.0,0.0,0.0,-2.9293,-3.033,-3.2423,-3.4513,-3.646,-3.8234,-3.4443,-3.2659,0.0,0.0,0.0,-2.6544,-2.853,-2.8218,-2.6386,-2.6386,-2.6386,-2.6386,-2.6386,-2.6386,-2.6386,-2.6386,-2.6386,-2.6386,-2.6386,-2.6386,-2.6386,-2.6386,-2.7619,-2.8953,-2.8806,-2.7171,-2.5424,-2.5331,-2.6659,-2.8456,-3.0373,-3.1071,-3.2219,-3.5116,-3.4863,-3.5603,-4.0037,-4.1614,-4.3682,-4.8446,-4.9772,-5.1007,-5.3703,-5.4496,-5.4856,-5.5041,-5.5022,-5.438,-5.3023,-5.0987,-4.9558,-4.9244,-4.7197,-4.6113,-4.6586,-4.3285,-4.0824,-3.965,-3.5346,-3.2884,-3.2209,-2.8666,-2.6847,-2.6847,-2.6544,-2.6386,-2.6386,-2.6386,-2.6386,-1.7582,-1.7569,-1.7711,-1.8147,-1.7673,-1.6901,-1.658,-1.6513,-1.6657,-1.7106,-1.6813,0.0,0.0,0.0,0.0,0.0,0.0,0.0,0.0,0.0,0.0,0.0,0.0,0.0,0.0,0.0,0.0,0.0,0.0,0.0,0.0,0.0,0.0,0.0,0.0,0.0,0.0,-3.0515,-3.2032,-3.4151,-3.4001,-3.5515,-3.8574,-3.5515,-3.4151,0.0,0.0,-2.9898,-2.8076,-2.8983,-2.8218,-2.6386,-2.6386,-2.6386,-2.6386,-2.6386,-2.6386,-2.6386,-2.6386,-2.6386,-2.6544,-2.7605,-2.8076,-2.8218,-2.9293,-3.0361,-3.113,-3.113,-3.0145,-2.8955,-2.774,-2.9513,-3.1579,-3.1399,-3.3162,-3.5281,-3.6649,-3.6932,-3.7553,-4.0316,-4.1229,-4.237,-4.5462,-4.5706,-4.5966,-4.7222,-4.744,-4.7567,-4.7724,-4.8807,-4.9456,-4.8855,-4.8748,-4.837,-4.7159,-4.624,-4.5622,-4.528,-4.412,-4.1745,-3.7814,-3.5953,-3.3951,-3.1944,-2.9269,-2.8076,-2.8076,-2.7004,-2.6386,-2.6386,-2.6386,-2.6386,-1.7582,-1.7475,-1.768,-1.9184,-1.8697,-1.8019,-1.8164,-1.796,-1.7942,-1.8818,-1.8679,0.0,0.0,0.0,0.0,0.0,0.0,0.0,0.0,0.0,0.0,0.0,0.0,0.0,0.0,0.0,0.0,0.0,0.0,0.0,0.0,0.0,0.0,0.0,0.0,0.0,0.0,-3.1879,-3.3549,-3.5497,-3.4001,-3.5068,-3.8574,-3.6423,-3.5497,-3.5348,-3.3398,-3.159,-3.0053,-2.9589,-2.8842,-2.7776,-2.6689,-2.6386,-2.6386,-2.7004,-2.6847,-2.6386,-2.6386,-2.6386,-2.6702,-2.8686,-2.9449,-2.9743,-3.1896,-3.2809,-3.3247,-3.3247,-3.3566,-3.3347,-3.0494,-3.2243,-3.4284,-3.2594,-3.5011,-3.7598,-3.7461,-3.7969,-3.8838,-4.0153,-4.0277,-4.05,-4.2049,-4.105,-4.0053,-3.9926,-3.9677,-3.9458,-3.9758,-4.1934,-4.3534,-4.403,-4.5536,-4.6012,-4.4654,-4.4286,-4.3678,-4.2777,-4.3623,-4.1971,-3.7408,-3.7003,-3.5394,-3.1944,-3.0345,-2.9138,-2.8686,-2.7148,-2.6386,-2.6386,-2.6386,-2.6386,-1.7582,-1.7782,-1.817,-1.9023,-1.9179,-1.9709,-2.2055,-2.1557,-2.1555,-2.5072,-2.3776,-2.2601,0.0,0.0,0.0,0.0,0.0,0.0,0.0,0.0,0.0,0.0,0.0,0.0,0.0,0.0,0.0,0.0,0.0,0.0,0.0,0.0,0.0,0.0,0.0,0.0,0.0,0.0,-3.3549,-3.5497,-3.5348,-3.6423,-3.8574,-3.6423,-3.5497,-3.5348,-3.3398,-3.2353,-3.2201,-3.0207,-3.0515,-3.1743,-2.7919,-2.6386,-2.6702,-2.853,-2.8076,-2.6386,-2.6386,-2.6386,-2.6702,-2.8686,-2.9449,-2.9743,-3.1896,-3.385,-3.5348,-3.5348,-3.6737,-3.7198,-3.323,-3.33,-3.4306,-3.4648,-3.5687,-3.6973,-3.7715,-3.793,-3.8739,-4.1316,-4.0202,-3.952,-4.1456,-3.834,-3.5504,-3.5265,-3.3587,-3.2492,-3.2692,-3.4724,-3.6831,-3.8515,-4.0248,-4.1645,-4.2549,-4.138,-4.0362,-3.974,-4.0087,-4.0077,-3.9646,-3.6685,-3.4021,-3.1811,-3.0192,-2.853,-2.6544,-2.6544,-2.6386,-2.6386,-2.6386,-2.6386,-1.7582,-1.8526,-1.9608,-2.0562,-2.0915,-2.1506,-2.3201,-2.2418,-2.2238,-2.5213,-2.5027,-2.5186,0.0,0.0,0.0,0.0,0.0,0.0,0.0,0.0,0.0,0.0,0.0,0.0,0.0,0.0,0.0,0.0,0.0,0.0,0.0,0.0,0.0,0.0,0.0,0.0,0.0,0.0,-3.6737,-3.7345,-3.6109,-3.6571,-3.8574,-3.7805,-3.7492,-3.7345,-3.5217,-3.4301,-3.4151,-3.2184,-3.1743,-3.2201,-2.9449,-2.8983,-2.9913,-2.8232,-2.7762,-2.8218,-2.8218,-2.8218,-2.8827,-3.2168,-3.323,-3.3532,-3.5682,-3.6885,-3.7492,-3.7492,-3.7951,-3.7951,-3.5068,-3.5412,-3.6168,-3.4885,-3.5811,-3.707,-3.7129,-3.7773,-3.8253,-3.7881,-3.7803,-3.694,-3.4793,-3.2039,-2.9561,-2.7763,-2.5767,-2.4579,-2.4874,-2.8186,-3.122,-3.3289,-3.4897,-3.5961,-3.616,-3.4877,-3.3926,-3.3638,-3.677,-3.8023,-3.6551,-3.5392,-3.4039,-3.2291,-3.0236,-2.8144,-2.6279,-2.5053,-2.3632,-2.2338,-2.2338,-2.2338,-1.7301,-1.8268,-1.942,-2.0617,-2.1322,-2.2396,-2.4915,-2.3885,-2.3383,-2.683,-2.7269,-2.7665,-3.0501,0.0,0.0,0.0,0.0,0.0,0.0,0.0,0.0,0.0,0.0,0.0,0.0,0.0,0.0,0.0,0.0,0.0,0.0,0.0,0.0,0.0,0.0,0.0,0.0,0.0,-3.8574,-3.8574,-3.7179,-3.7179,-3.8574,-3.8574,-3.8574,-3.8574,-3.7032,-3.6423,-3.6275,-3.4301,-3.3095,-3.2505,-3.2337,-3.2337,-3.2201,-3.0053,-2.9279,-2.9449,-3.0207,-2.9898,-3.0053,-3.4151,-3.5515,-3.5961,-3.7951,-3.8574,-3.8574,-3.8574,-3.8574,-3.8263,-3.6885,-3.7188,-3.7546,-3.5787,-3.6352,-3.7226,-3.6934,-3.7656,-3.7836,-3.5958,-3.5793,-3.4835,-3.1083,-2.8166,-2.5804,-2.3856,-2.1717,-2.0594,-2.1039,-2.4298,-2.7394,-2.9663,-3.1295,-3.2189,-3.1889,-3.0022,-2.7309,-2.3419,-2.7551,-3.0703,-3.1712,-3.1878,-3.1114,-2.9453,-2.7788,-2.6283,-2.4882,-2.2968,-2.1028,-1.9228,-1.9735,-1.9907,-1.6714,-1.6714,-1.7082,-1.8773,0.0,0.0,-2.7896,-2.6297,-2.516,-3.0919,-3.0992,-3.0372,-3.1577,-3.1486,0.0,0.0,0.0,0.0,0.0,0.0,0.0,0.0,0.0,0.0,0.0,0.0,0.0,0.0,0.0,0.0,0.0,0.0,0.0,0.0,0.0,0.0,0.0,0.0,-3.8574,-3.8574,-3.8574,-3.8574,-3.8574,-3.8574,-3.8574,-3.8574,-3.8574,-3.8574,-3.8428,-3.6423,-3.4301,-3.2961,-3.7051,-3.6146,-3.2792,-3.4751,-3.2927,-2.9743,-3.1743,-3.113,-3.0207,-3.4169,-3.5533,-3.5961,-3.7951,-3.8574,-3.8574,-3.8574,-3.8574,-3.8574,-3.8574,-3.8262,-3.793,-3.793,-3.7598,-3.7305,-3.7305,-3.7637,-3.7586,-3.6285,-3.4881,-3.3259,-3.1662,-2.7706,-2.4767,-2.4507,-2.2594,-2.1221,-2.1679,-2.3664,-2.5908,-2.7722,-2.9592,-3.0671,-3.0629,-2.7706,-2.0786,-0.8565,-1.1041,-1.6818,-2.5649,-2.5812,-2.4856,-2.2941,-2.2717,-2.253,-2.2067,-2.0627,-1.9066,-1.772,-1.9228,-1.9907,-1.7328,-1.8128,0.0,-1.9925,0.0,0.0,0.0,-2.5786,0.0,0.0,-3.1696,-3.2224,-3.4413,0.0,0.0,0.0,0.0,0.0,0.0,0.0,0.0,0.0,0.0,0.0,0.0,0.0,0.0,0.0,0.0,0.0,0.0,0.0,0.0,0.0,0.0,0.0,0.0,0.0,0.0,-3.8574,-3.8574,-3.8574,-3.8574,-3.8574,-3.8574,-3.8574,-3.8574,-3.8574,-3.8574,-3.7951,-3.7345,-3.6756,-3.6571,-3.6571,-3.6442,-3.4169,-3.3549,-3.3833,-3.4451,-3.4151,-3.4134,-3.6737,-3.7658,-3.7805,-3.8409,-3.8574,-3.8574,-3.8574,-3.8574,-3.8574,-3.8574,-3.8476,-3.8301,-3.7988,-3.7832,-3.7656,-3.7363,-3.7637,-3.749,-3.5754,-3.4538,-3.2743,-2.9438,-2.6834,-2.5003,-2.466,-2.4233,-2.4867,-2.6834,-2.6339,-2.6484,-2.8713,-2.529,-2.1802,-1.9332,-1.7806,-1.5676,-1.2039,-0.0,-0.0175,-1.5916,-1.9887,-2.1318,-2.0403,-2.0185,-2.0289,-2.0539,-1.6871,-1.502,-1.4765,-1.5074,-1.5404,-1.7061,-1.8252,0.0,-2.0482,-2.2383,-2.4579,-2.6711,0.0,0.0,0.0,-3.3408,-3.4429,-3.6444,0.0,0.0,0.0,0.0,0.0,0.0,0.0,0.0,0.0,0.0,0.0,0.0,0.0,0.0,0.0,0.0,0.0,0.0,0.0,0.0,0.0,0.0,0.0,0.0,0.0,0.0,0.0,-3.8574,-3.8574,-3.8574,-3.8574,-3.8574,-3.8574,-3.8574,-3.8574,-3.8574,-3.8574,-3.8574,-3.8428,-3.7179,-3.7492,-3.8263,-3.583,-3.4619,-3.4601,-3.6127,-3.5664,-3.4769,-3.7658,-3.8574,-3.8574,-3.8574,-3.8574,-3.8574,-3.8574,-3.8574,-3.8574,-3.8574,-3.8574,-3.8516,-3.8242,-3.8184,-3.8066,-3.7637,-3.7891,-3.7605,-3.541,-3.5016,-3.3832,-3.0721,-2.9663,-2.9239,-2.9088,-2.8654,-2.9017,-3.0657,-2.7189,-2.5207,-2.658,-1.9488,-1.3884,-1.1683,-0.9473,-0.952,-1.3204,0.4678,1.0142,-0.1056,-0.8174,-1.2746,-1.4268,-1.4052,-1.507,-1.7242,-1.274,-0.9726,-0.8117,-0.9968,-1.1687,-1.6603,0.0,0.0,-2.091,-2.2496,0.0,-2.7198,-3.133,-3.4631,-3.5262,0.0,0.0,0.0,0.0,0.0,0.0,0.0,0.0,0.0,0.0,0.0,0.0,0.0,0.0,0.0,0.0,0.0,0.0,0.0,0.0,0.0,0.0,0.0,0.0,0.0,0.0,0.0,0.0,0.0,0.0,0.0,-3.8574,-3.8574,-3.8574,-3.8574,-3.8574,-3.8574,-3.8574,-3.8574,-3.8574,-3.8574,-3.8574,-3.8574,-3.8574,-3.8574,-3.8428,-3.5979,-3.3247,-3.7051,-3.583,-3.3415,-3.7345,-3.8574,-3.8574,-3.8574,-3.8574,-3.8574,-3.8574,-3.8574,-3.8574,-3.8574,-3.8574,-3.8574,-3.8574,-3.8574,-3.8476,-3.8066,-3.8301,-3.7855,-3.5504,-3.5743,-3.585,-3.4325,-3.4668,-3.5279,-3.5708,-3.4018,-3.2872,-3.257,-2.6725,-2.2362,-2.2392,-1.387,-0.7938,-0.6926,-0.2688,-0.3474,-1.1618,0.4093,1.4149,1.5187,0.5329,-0.1884,-0.5975,-0.5849,-0.7825,-1.2185,-0.8064,-0.4046,-0.0171,-0.4263,-0.8411,0.0,-1.9258,0.0,0.0,-2.462,-2.7958,-3.2313,-3.3066,-3.334,-3.454,0.0,0.0,0.0,0.0,0.0,0.0,0.0,0.0,0.0,0.0,0.0,0.0,0.0,0.0,0.0,0.0,0.0,0.0,0.0,0.0,0.0,0.0,0.0,0.0,0.0,0.0,0.0,0.0,0.0,0.0,-3.8574,-3.8574,-3.8574,-3.8574,-3.8574,-3.8574,-3.8574,-3.8574,-3.8574,-3.8574,-3.8574,-3.8574,-3.8574,-3.8574,-3.8409,-3.6737,-3.5664,-3.505,-3.5812,-3.5664,-3.5217,-3.7805,-3.8574,-3.8574,-3.8574,-3.8574,-3.8574,-3.8574,-3.8574,-3.8574,-3.8574,-3.8574,-3.8574,-3.8574,-3.8574,-3.8555,-3.8457,-3.8516,-3.8389,-3.7836,-3.6793,-3.6075,-3.5832,-3.5105,-3.4916,-3.6005,-3.4065,-3.209,-3.0654,-2.5646,-2.1935,-2.0825,-1.6445,-1.0386,-0.2312,-0.0587,-0.0791,-0.2778,0.0991,0.688,1.495,0.5349,-0.0533,-0.1385,-0.1367,-0.1862,-0.2862,-0.185,-0.1015,-0.0,-0.1032,-0.1908,0.0,0.0,0.0,0.0,0.0,0.0,-3.3003,-3.2357,0.0,0.0,0.0,0.0,0.0,0.0,0.0,0.0,0.0,0.0,0.0,0.0,0.0,0.0,0.0,0.0,0.0,0.0,0.0,0.0,0.0,0.0,0.0,0.0,0.0,0.0,0.0,0.0,-3.8574,-3.8789,-3.8789,-3.8574,-3.8574,-3.8574,-3.8574,-3.8574,-3.8574,-3.8574,-3.8574,-3.8001,-3.7061,-3.8185,-3.8001,-3.7061,-3.8185,-3.8574,-3.8409,-3.6275,-3.5497,-3.5497,-3.5497,-3.5497,-3.5812,-3.7951,-3.8574,-3.8574,-3.8574,-3.8574,-3.8574,-3.8574,-3.8574,-3.8574,-3.8574,-3.8574,-3.8574,-3.8574,-3.8574,-3.8574,-3.8574,-3.8574,-3.8516,-3.8301,-3.7696,-3.7297,-3.7352,-3.6653,-3.6379,-3.7136,-3.3692,-3.0643,-2.9622,-2.4596,-2.0927,-2.0118,-1.7139,-1.3023,-0.7783,-0.2763,-0.0,-0.0,-0.0,0.2387,0.7625,0.2855,-0.0,-0.0,-0.0,-0.0,-0.0,-0.0,-0.0,0.0173,0.5051,0.5995,0.0,0.0,0.0,0.0,0.0,0.0,0.0,0.0,0.0,0.0,0.0,0.0,0.0,0.0,0.0,0.0,0.0,0.0,0.0,0.0,0.0,0.0,0.0,0.0,0.0,0.0,0.0,0.0,0.0,0.0,0.0,0.0,0.0,0.0,0.0,0.0,-3.8574,-3.8574,-3.8574,-3.8574,-3.8574,-3.8574,-3.8574,-3.8496,-3.8496,-3.8574,-3.8185,-3.6897,-3.5248,-3.7169,-3.6783,-3.5157,-3.746,-3.8398,-3.8147,-3.5721,-3.5145,-3.5497,-3.505,-3.5199,-3.5812,-3.7951,-3.8574,-3.8574,-3.8574,-3.8574,-3.8574,-3.8574,-3.8574,-3.8574,-3.8574,-3.8574,-3.8574,-3.8574,-3.8574,-3.8574,-3.8574,-3.8574,-3.8476,-3.8105,-3.832,-3.8594,-3.8672,-3.8042,-3.7665,-3.7721,-3.28,-2.8723,-2.8037,-2.3283,-1.9701,-1.9328,-1.6781,-1.4479,-1.2591,-0.4757,-0.0,-0.0,-0.0,-0.0,-0.0,-0.0,-0.0,-0.0,-0.0,-0.0,-0.0,-0.0,-0.0,0.0173,0.8623,1.1282,0.0,0.0,0.0,0.0,0.0,0.0,0.0,0.0,0.0,0.0,0.0,0.0,0.0,0.0,0.0,0.0,0.0,0.0,0.0,0.0,0.0,0.0,0.0,0.0,0.0,0.0,0.0,0.0,0.0,0.0,0.0,0.0,0.0,0.0,0.0,0.0,-3.8574,-3.8574,-3.8574,-3.8574,-3.8574,-3.8574,-3.8555,-3.8184,-3.8223,-3.8555,-3.6511,-3.5413,-3.5048,-3.5066,-3.4901,-3.4721,-3.6713,-3.7695,-3.7557,-3.3665,-3.3707,-3.5199,-3.3549,-3.4001,-3.5812,-3.7951,-3.8574,-3.8574,-3.8574,-3.8574,-3.8574,-3.8574,-3.8574,-3.8574,-3.8574,-3.8574,-3.8574,-3.8574,-3.8574,-3.8574,-3.8574,-3.8574,-3.8555,-3.8496,-3.8535,-3.8691,-3.9062,-3.7744,-3.6217,-3.4844,-3.0969,-2.6782,-2.302,-2.0839,-1.8576,-1.5789,-1.5288,-1.1583,-0.2534,-0.0597,-0.0,-0.0,-0.0,-0.0,-0.0,-0.0,-0.0,-0.0,-0.0,-0.0,-0.0,-0.0,-0.0,-0.0,0.14,0.6436,-2.393,0.0,0.0,0.0,0.0,0.0,0.0,0.0,0.0,0.0,0.0,0.0,0.0,0.0,0.0,0.0,0.0,0.0,0.0,0.0,0.0,0.0,0.0,0.0,0.0,0.0,0.0,0.0,0.0,0.0,0.0,-3.8574,-3.8574,-3.8574,-3.834,0.0,-3.8574,-3.8105,-3.7851,-3.7851,-3.7851,-3.7851,-3.7851,-3.7656,-3.7201,-3.6529,-3.5357,-3.4035,-3.2936,-3.4019,-3.436,-3.4178,-3.529,-3.6513,-3.7151,-3.3362,-3.3996,-3.6567,-3.483,-3.5515,-3.7345,-3.8263,-3.8574,-3.8574,-3.8574,-3.8574,-3.8574,-3.8574,-3.8574,-3.8574,-3.8574,-3.8574,-3.8574,-3.8574,-3.8574,-3.8574,-3.8574,-3.8574,-3.8574,-3.8574,-3.8574,-3.8633,-3.8828,-3.7371,-3.5515,-3.3636,-3.0141,-2.6563,-2.3254,-1.9373,-1.5146,-1.1263,-0.8342,-0.484,-0.0195,0.5568,0.6436,0.0403,-0.0,-0.0,-0.0,-0.0,-0.0,-0.0,-0.4898,-0.7585,-0.7432,-0.494,-0.2375,-0.0,0.0347,0.2656,0.0,0.0,0.0,0.0,0.0,0.0,0.0,0.0,0.0,0.0,0.0,0.0,0.0,0.0,0.0,0.0,0.0,0.0,0.0,0.0,0.0,0.0,0.0,0.0,0.0,0.0,0.0,0.0,0.0,0.0,0.0,-3.7334,-3.7498,-3.7498,-3.7192,-3.7172,-3.7498,-3.6436,-3.583,-3.583,-3.6398,-3.6276,-3.583,-3.6746,-3.5972,-3.4014,-3.4324,-3.3303,-3.1878,-3.3518,-3.4015,-3.3639,-3.407,-3.5123,-3.5982,-3.2318,-3.3517,-3.677,-3.5226,-3.6275,-3.8418,-3.8535,-3.8574,-3.8574,-3.8574,-3.8574,-3.8574,-3.8574,-3.8574,-3.8574,-3.8574,-3.8574,-3.8574,-3.8574,-3.8574,-3.8574,-3.8574,-3.8574,-3.8574,-3.8574,-3.8574,-3.8574,-3.8574,-3.7462,-3.5833,-3.3209,-3.0626,-2.7794,-2.427,-2.0231,-1.557,-0.9927,-0.4806,-0.1138,0.0194,0.7488,0.9795,0.4427,0.1614,-0.0,-0.0,-0.0,-0.0,-0.0,-0.7613,-1.2202,-1.3461,-1.0063,-0.6755,-0.3398,-0.1713,-0.0525,0.0,0.0,0.0,0.0,0.0,0.0,0.0,0.0,0.0,0.0,0.0,0.0,0.0,0.0,0.0,0.0,0.0,0.0,0.0,0.0,0.0,0.0,0.0,0.0,0.0,0.0,0.0,0.0,0.0,0.0,-3.2086,-3.3674,-3.4703,-3.4703,-3.4685,-3.4685,-3.4703,-3.2895,-3.1856,-3.1856,-3.3765,-3.3621,-3.2002,-3.5276,-3.4667,-3.1337,-3.3056,-3.3765,-3.357,-3.3368,-3.3224,-3.3206,-3.3224,-3.3599,-3.35,-2.9613,-3.0843,-3.4433,-3.2753,-3.4662,-3.8027,-3.8437,-3.8574,-3.8574,-3.8574,-3.8574,-3.8574,-3.8574,-3.8574,-3.8574,-3.8574,-3.8574,-3.8574,-3.8574,-3.8574,-3.8574,-3.8574,-3.8574,-3.8574,-3.8574,-3.8574,-3.8574,-3.8574,-3.8594,-3.7089,-3.3129,-3.2839,-3.0764,-2.4214,-2.5083,-2.3053,-1.4548,-0.9518,-0.4595,0.0747,0.0963,0.4923,1.462,0.563,-0.0,-0.0,-0.0,-0.0,-0.0,-0.4566,-0.9215,-1.3461,-1.3114,-1.2959,-1.2663,-0.8323,-0.379,0.0,0.0,0.0,0.0,0.0,0.0,0.0,0.0,0.0,0.0,0.0,0.0,0.0,0.0,0.0,0.0,0.0,0.0,0.0,0.0,0.0,0.0,0.0,0.0,0.0,0.0,0.0,0.0,0.0,0.0,-3.3845,-3.3016,-3.2612,-3.2371,-3.2113,-3.1752,-3.127,-3.0808,-3.0526,-3.0153,-3.0852,-3.0971,-3.0501,-3.1791,-3.1703,-3.065,-3.2509,-3.3368,-3.3368,-3.3224,-3.3882,-3.4883,-3.3743,-3.326,-3.3124,-3.0772,-3.1659,-3.4054,-3.3956,-3.5502,-3.7637,-3.834,-3.8379,-3.8203,-3.8496,-3.8574,-3.8574,-3.8574,-3.8574,-3.8574,-3.8574,-3.8574,-3.8574,-3.8574,-3.8574,-3.8574,-3.8574,-3.8574,-3.8574,-3.8574,-3.8574,-3.8574,-3.8574,-3.7492,-3.5664,-3.2961,-3.1681,-2.9671,-2.5896,-2.5046,-2.41,-2.2159,-1.5609,-1.0545,-0.8557,-0.6173,-0.1913,0.5262,0.2178,-0.0,-0.0,-0.0,-0.0,-0.0,-0.4385,-0.8862,-1.3441,-1.3323,-1.3331,-1.3305,-1.1807,-0.9953,-2.6326,0.0,0.0,0.0,0.0,0.0,0.0,0.0,0.0,0.0,0.0,0.0,0.0,0.0,0.0,0.0,0.0,0.0,0.0,0.0,0.0,0.0,0.0,0.0,0.0,0.0,0.0,0.0,0.0,0.0,-3.1364,-3.0437,-2.9857,-2.9599,-2.9373,-2.8599,-2.7462,-2.7819,-2.7819,-2.7601,-2.8138,-2.8265,-2.7944,-2.9184,-2.9502,-2.9264,-3.1131,-3.2347,-3.3309,-3.3882,-3.4377,-3.4675,-3.2959,-3.1809,-3.1022,-3.0111,-3.0959,-3.2773,-3.4145,-3.5781,-3.7261,-3.7364,-3.7207,-3.6986,-3.6663,-3.659,-3.6737,-3.7345,-3.7492,-3.7658,-3.8428,-3.8574,-3.8574,-3.8574,-3.8574,-3.8574,-3.8574,-3.8574,-3.8574,-3.8574,-3.8574,-3.8574,-3.8574,-3.7492,-3.5664,-3.2961,-3.1586,-2.9822,-2.6729,-2.5575,-2.5071,-2.5198,-2.0447,-1.6567,-1.5242,-1.182,-0.837,-0.5107,-0.3489,-0.1778,-0.0,-0.0,-0.0,-0.0,-0.4422,-0.913,-1.3572,-1.3459,-1.341,-1.3437,-1.3437,-1.168,0.0,0.0,0.0,0.0,0.0,0.0,0.0,0.0,0.0,0.0,0.0,0.0,0.0,0.0,0.0,0.0,0.0,0.0,0.0,0.0,0.0,0.0,0.0,0.0,0.0,0.0,0.0,0.0,0.0,0.0,-2.434,-2.5682,-2.6459,-2.6459,-2.6444,-2.5635,-2.3728,-2.3728,-2.3714,-2.3714,-2.5621,-2.5495,-2.3883,-2.757,-2.8435,-2.6937,-2.8558,-3.0737,-3.3134,-3.5002,-3.4618,-3.2474,-3.0882,-2.8964,-2.7027,-2.7371,-2.8629,-3.0643,-3.2897,-3.5313,-3.7042,-3.5394,-3.5172,-3.5014,-3.3095,-3.2505,-3.2944,-3.49,-3.5497,-3.6109,-3.8117,-3.8574,-3.8574,-3.8574,-3.8574,-3.8574,-3.8574,-3.8574,-3.8574,-3.8574,-3.8574,-3.8574,-3.8574,-3.8574,-3.7051,-3.3112,-3.2649,-3.1199,-2.6887,-2.6894,-2.6203,-2.3532,-2.361,-2.2211,-1.8307,-1.5715,-1.4309,-1.4685,-1.0399,-0.5606,-0.0586,-0.0391,-0.0195,-0.0193,-0.4872,-0.9512,-1.3866,-1.3566,-1.341,-1.341,-1.3417,-0.8109,-2.4519,0.0,0.0,0.0,0.0,0.0,0.0,0.0,0.0,0.0,0.0,0.0,0.0,0.0,0.0,0.0,0.0,0.0,0.0,0.0,0.0,0.0,0.0,0.0,0.0,0.0,0.0,0.0,0.0,-2.5693,-2.6105,-2.4734,-2.3915,-2.3915,-2.3693,-2.3311,-2.2792,-2.2579,-2.2485,-2.2472,-2.2996,-2.3229,-2.3252,-2.4176,-2.4748,-2.4846,-2.6534,-2.7833,-2.8579,-3.0649,-3.1288,-3.0882,-3.0418,-2.9123,-2.7371,-2.746,-2.8629,-3.0501,-3.1439,-3.378,-3.6247,-3.521,-3.4793,-3.432,-3.2944,-3.3549,-3.4751,-3.5348,-3.6571,-3.7805,-3.8428,-3.8574,-3.8574,-3.8574,-3.8574,-3.8574,-3.8574,-3.8574,-3.8574,-3.8574,-3.8574,-3.8574,-3.8574,-3.6146,-3.3868,-3.2657,-2.9989,-2.7703,-2.6558,-2.672,-2.6719,-2.5892,-2.4711,-2.3561,-2.2367,-2.0294,-1.768,-1.4482,-1.315,-1.2129,-1.1056,-0.7499,-0.5562,-0.5784,-1.0381,-1.337,-1.4497,-1.4034,-1.3722,-1.3722,-1.3422,-0.9495,-2.4204,-2.5164,-2.6085,-2.7408,0.0,0.0,0.0,0.0,0.0,0.0,0.0,0.0,0.0,0.0,0.0,0.0,0.0,0.0,0.0,0.0,0.0,0.0,0.0,0.0,0.0,0.0,0.0,0.0,-2.4768,-2.4186,-2.4775,-2.3337,-2.2498,-2.2498,-2.2325,-2.2231,-2.2231,-2.2071,-2.1991,-2.1991,-2.1991,-2.2164,-2.2498,-2.2498,-2.2819,-2.352,-2.4454,-2.5025,-2.5552,-2.6703,-2.7741,-2.8757,-2.89,-2.784,-2.6185,-2.7171,-2.8197,-2.9218,-3.0271,-3.2173,-3.3689,-3.2492,-3.2124,-3.1729,-3.0345,-3.0807,-3.2016,-3.37,-3.6294,-3.8574,-3.8574,-3.8574,-3.8574,-3.8574,-3.8574,-3.8574,-3.8574,-3.8574,-3.8574,-3.8574,-3.8574,-3.8263,-3.7492,-3.5366,-3.3095,-3.1421,-2.9138,-2.7305,-2.6544,-2.664,-2.6827,-2.6827,-2.5916,-2.5413,-2.5413,-2.3607,-2.1282,-1.8418,-1.7728,-1.7199,-1.6815,-1.2806,-1.0775,-1.1087,-1.3657,-1.4872,-1.4957,-1.4462,-1.4048,-1.4055,-1.3526,-1.0456,-2.3665,-2.4667,-2.5569,-2.7994,-2.796,0.0,-2.7617,-2.7148,0.0,0.0,0.0,0.0,0.0,0.0,0.0,0.0,0.0,0.0,0.0,0.0,0.0,0.0,0.0,0.0,0.0,0.0,0.0,-2.3273,-2.2886,-2.2418,-2.1871,-2.1844,-2.1844,-2.1844,-2.1844,-2.1844,-2.1844,-2.1804,-2.1804,-2.1844,-2.1844,-2.1871,-2.1937,-2.1937,-2.2258,-2.2806,-2.2539,-2.2899,-2.3647,-2.338,-2.4414,-2.6254,-2.6565,-2.5712,-2.4327,-2.6373,-2.7331,-2.7734,-2.9456,-3.0381,-3.071,-2.8893,-2.8641,-2.8665,-2.7167,-2.6819,-2.7919,-3.2048,-3.583,-3.8574,-3.8574,-3.8574,-3.8574,-3.8574,-3.8574,-3.8574,-3.8574,-3.8574,-3.8574,-3.8574,-3.8574,-3.797,-3.6109,-3.5497,-3.3984,-3.0361,-2.9293,-2.8374,-2.6702,-2.664,-2.6827,-2.6867,-2.7161,-2.7375,-2.7415,-2.5812,-2.4589,-2.4385,-2.2729,-2.1097,-1.9276,-1.6923,-1.5647,-1.586,-1.5563,-1.5242,-1.5255,-1.4943,-1.4624,-1.4454,-1.3827,-1.1284,-2.1631,-2.3821,-2.5973,-2.6536,-2.7839,0.0,-2.7871,-2.8066,0.0,0.0,0.0,0.0,0.0,0.0,0.0,0.0,0.0,0.0,0.0,0.0,0.0,0.0,0.0,0.0,0.0,0.0,0.0,-2.2619,-2.1884,-2.1296,-2.0949,-2.0935,-2.0935,-2.0935,-2.0935,-2.0935,-2.0935,-2.0695,-2.0695,-2.0935,-2.0935,-2.1176,-2.163,-2.163,-2.1951,-2.2498,-2.2445,-2.2659,-2.3033,-2.2979,-2.3539,-2.435,-2.4638,-2.4336,-2.3915,-2.4875,-2.604,-2.7259,-2.7818,-2.9091,-3.0189,-2.8542,-2.8163,-2.849,-2.8512,-2.9854,-3.2184,-3.6294,-3.797,-3.8574,-3.8574,-3.8574,-3.8574,-3.8574,-3.8574,-3.8574,-3.8574,-3.8574,-3.8574,-3.8574,-3.8574,-3.8428,-3.8117,-3.5217,-3.2792,-3.2048,-2.9138,-2.6847,-2.6386,-2.664,-2.6907,-2.7148,-2.7655,-2.807,-2.8323,-2.8089,-2.7093,-2.511,-2.4662,-2.3326,-2.1077,-2.041,-2.0252,-2.0636,-1.8803,-1.7238,-1.5723,-1.5147,-1.4939,-1.5099,-1.4845,-1.2783,-2.0274,-2.2589,-2.5189,-2.637,-2.7809,0.0,0.0,-2.7969,0.0,0.0,0.0,0.0,0.0,0.0,0.0,0.0,0.0,0.0,0.0,0.0,0.0,0.0,0.0,0.0,0.0,0.0,-2.1871,-2.1577,-2.1002,-2.0615,-2.0468,-2.0454,-2.0454,-2.0454,-2.0454,-2.0454,-2.0454,-2.0307,-2.0307,-2.0454,-2.0601,-2.0828,-2.1122,-2.1269,-2.1577,-2.1991,-2.2138,-2.2365,-2.2645,-2.2806,-2.3046,-2.3354,-2.3647,-2.3768,-2.3808,-2.4102,-2.4761,-2.5611,-2.5781,-2.6503,-2.739,-2.6714,-2.6645,-2.6979,-2.8325,-3.1044,-3.4224,-3.6368,-3.7805,-3.8574,-3.8574,-3.8574,-3.8574,-3.8574,-3.8574,-3.8574,-3.8574,-3.8574,-3.8574,-3.8574,-3.8574,-3.797,-3.583,-3.3868,-3.1743,-2.9759,-2.7776,-2.6386,-2.6386,-2.652,-2.672,-2.7014,-2.7442,-2.7883,-2.8337,-2.8657,-2.8286,-2.7046,-2.7033,-2.645,-2.5078,-2.3838,-2.2775,-2.1861,-2.0818,-1.9843,-1.8914,-1.6481,-1.4431,-1.3069,-1.4777,-1.4725,-1.9577,-2.1597,0.0,0.0,0.0,-2.8288,0.0,0.0,0.0,0.0,0.0,0.0,0.0,0.0,0.0,0.0,0.0,0.0,0.0,0.0,0.0,0.0,0.0,0.0,0.0,0.0,0.0,-2.0535,-2.0281,-2.012,-2.0067,-2.0067,-2.0067,-2.0067,-2.0067,-2.0067,-2.0067,-2.0067,-2.0094,-2.0147,-2.0388,-2.0561,-2.0681,-2.0922,-2.1216,-2.1563,-2.1804,-2.2098,-2.2432,-2.2672,-2.2806,-2.2899,-2.3207,-2.3434,-2.3607,-2.3728,-2.3915,-2.4128,-2.4182,-2.4396,-2.4676,-2.4917,-2.5609,-2.6602,-2.8597,-3.2009,-3.5595,-3.5999,-3.7345,-3.8574,-3.8574,-3.8574,-3.8574,-3.8574,-3.8574,-3.8574,-3.8574,-3.8574,-3.8574,-3.8574,-3.8574,-3.7511,-3.4169,-3.2961,-3.1437,-2.8076,-2.6847,-2.6386,-2.6386,-2.6386,-2.6507,-2.6787,-2.7094,-2.7509,-2.8096,-2.8484,-2.8791,-2.9032,-2.9098,-2.8991,-2.8698,-2.6908,-2.4707,-2.2412,-2.2599,-2.2444,-2.2118,-1.8769,-1.5472,-1.2321,-1.4947,-1.6083,0.0,0.0,0.0,0.0,-2.5775,0.0,0.0,0.0,0.0,0.0,0.0,0.0,0.0,0.0,0.0,0.0,0.0,0.0,0.0,0.0,0.0,0.0,0.0,0.0,0.0,0.0,0.0,0.0,-1.9867,-1.9733,-1.9479,-1.9466,-1.9466,-1.9466,-1.9466,-1.9466,-1.9466,-1.9466,-1.9599,-1.9853,-1.988,-2.0174,-2.0681,-2.0708,-2.1029,-2.155,-2.159,-2.1911,-2.2418,-2.2458,-2.2619,-2.2899,-2.3207,-2.318,-2.3033,-2.3567,-2.3794,-2.3861,-2.4115,-2.4396,-2.4649,-2.4676,-2.7159,-3.0551,-3.1399,-3.4462,-3.772,-3.8147,-3.8428,-3.8574,-3.8574,-3.8574,-3.8574,-3.8574,-3.8574,-3.8574,-3.8574,-3.8574,-3.8574,-3.8574,-3.8574,-3.8428,-3.797,-3.4918,-3.2353,-3.1896,-2.8686,-2.6386,-2.6386,-2.6386,-2.6507,-2.6787,-2.7094,-2.7509,-2.8096,-2.8657,-2.9005,-2.9032,-2.9285,-2.9299,-2.9005,-2.863,-2.7397,-2.5113,-2.496,-2.4018,-2.189,-2.1732,-2.0304,-1.7923,-1.6551,-1.5825,0.0,0.0,0.0,0.0,0.0,0.0,-2.8069,0.0,-2.873,0.0,0.0,0.0,0.0,0.0,0.0,0.0,0.0,0.0,0.0,0.0,0.0,0.0,0.0,0.0,0.0,0.0,0.0,0.0,0.0,-2.0644,-2.0331,-1.9713,-1.9372,-1.9372,-1.9372,-1.9372,-1.9372,-1.9372,-1.9426,-1.9546,-1.972,-1.9933,-2.0174,-2.0521,-2.0815,-2.1069,-2.1403,-2.1697,-2.1924,-2.2098,-2.2338,-2.2619,-2.2752,-2.2819,-2.2899,-2.3153,-2.3354,-2.3527,-2.3647,-2.3995,-2.4555,-2.5876,-2.8289,-3.0926,-3.2619,-3.5152,-3.7656,-3.8066,-3.8379,-3.8574,-3.8574,-3.8574,-3.8574,-3.8574,-3.8574,-3.8574,-3.8574,-3.8574,-3.8574,-3.8574,-3.8574,-3.8574,-3.8574,-3.6127,-3.3398,-3.1115,-2.9293,-2.7762,-2.6544,-2.6386,-2.644,-2.656,-2.6827,-2.7175,-2.7602,-2.8016,-2.8417,-2.8764,-2.9058,-2.9245,-2.9299,-2.9125,-2.8509,-2.7435,-2.7435,-2.6946,-2.5985,-2.4969,-2.3871,-2.2892,-2.0855,-1.9204,-2.0655,0.0,0.0,0.0,0.0,0.0,0.0,0.0,0.0,0.0,0.0,0.0,0.0,0.0,-2.3973,-2.3987,0.0,0.0,0.0,0.0,0.0,0.0,0.0,0.0,0.0,0.0,0.0,0.0,0.0,0.0,-2.0341,-1.9676,-1.9279,-1.9359,-1.9372,-1.9372,-1.9372,-1.9372,-1.9372,-1.9372,-1.9586,-1.972,-1.9813,-2.0321,-2.0601,-2.0708,-2.1216,-2.1483,-2.1577,-2.1777,-2.2044,-2.2311,-2.2392,-2.2552,-2.2752,-2.2832,-2.306,-2.3327,-2.3327,-2.3714,-2.4539,-2.6822,-2.8772,-3.0801,-3.3056,-3.5416,-3.7226,-3.7773,-3.8164,-3.8418,-3.8555,-3.8574,-3.8574,-3.8574,-3.8574,-3.8574,-3.8574,-3.8574,-3.8574,-3.8574,-3.8672,-3.8711,-3.8594,-3.6423,-3.37,-3.0654,-2.9293,-2.8076,-2.6544,-2.6386,-2.6386,-2.6386,-2.6573,-2.6827,-2.7121,-2.7415,-2.7869,-2.8564,-2.8804,-2.9085,-2.9472,-2.9272,-2.9165,-2.9165,-2.9165,-2.9125,-2.9045,-2.7536,-2.6759,-2.6771,-2.3406,-2.0937,0.0,0.0,0.0,-2.0645,0.0,0.0,0.0,0.0,-2.5074,0.0,0.0,0.0,0.0,-2.4745,-2.4647,-2.4302,-2.4053,0.0,0.0,0.0,0.0,0.0,0.0,0.0,0.0,0.0,0.0,0.0,-2.052,0.0,-1.9018,-1.8931,-1.9065,-1.9359,-1.9372,-1.9372,-1.9372,-1.9372,-1.9372,-1.9372,-1.9372,-1.9533,-1.9813,-2.0107,-2.0401,-2.0695,-2.0989,-2.1283,-2.155,-2.1563,-2.1737,-2.2031,-2.2311,-2.2432,-2.2472,-2.2752,-2.306,-2.3327,-2.3327,-2.3714,-2.4539,-2.6822,-2.8772,-3.0801,-3.3056,-3.521,-3.6855,-3.7695,-3.793,-3.8047,-3.8457,-3.8574,-3.8574,-3.8574,-3.8574,-3.8574,-3.8574,-3.8574,-3.8574,-3.8574,-3.8906,-3.9062,-3.8652,-3.5235,-3.2505,-3.2353,-2.8997,-2.6544,-2.6386,-2.6386,-2.6386,-2.6386,-2.64,-2.652,-2.6814,-2.7108,-2.7655,-2.8551,-2.8617,-2.8885,-2.9459,-2.9472,-2.9472,-2.9472,-2.9472,-2.9325,-2.9045,-2.9339,-2.9309,-2.9132,-2.2317,-1.9158,0.0,0.0,-2.1632,-2.0929,0.0,0.0,0.0,0.0,0.0,0.0,0.0,0.0,0.0,-2.1963,-2.1104,-2.1119,-2.1594,-2.1914,0.0,0.0,0.0,0.0,0.0,0.0,0.0,0.0,0.0,-2.1065,-2.129,0.0,0.0,-1.9138,-1.9065,-1.9359,-1.9372,-1.9372,-1.9372,-1.9372,-1.9372,-1.9372,-1.9372,-1.9412,-1.9533,-2.0013,-2.0294,-2.0414,-2.0895,-2.1162,-2.1256,-2.1256,-2.143,-2.171,-2.1804,-2.2084,-2.2458,-2.2752,-2.2926,-2.3073,-2.3487,-2.3754,-2.4269,-2.6764,-2.8772,-3.0751,-3.2755,-3.4984,-3.6797,-3.7344,-3.7715,-3.8027,-3.8457,-3.8574,-3.8574,-3.8574,-3.8574,-3.8574,-3.8574,-3.8574,-3.8574,-3.8574,-3.8691,-3.875,-3.8594,-3.6275,-3.4001,-3.2657,-3.1284,-2.9449,-2.6689,-2.6386,-2.6386,-2.6386,-2.6386,-2.6426,-2.6533,-2.68,-2.7188,-2.7682,-2.7896,-2.819,-2.8577,-2.8791,-2.8804,-2.8604,-2.8991,-2.9045,-2.8751,-2.9045,-2.9192,-2.9017,-2.4863,-2.2495,-2.0939,-2.1487,0.0,0.0,-2.2086,0.0,-2.2761,0.0,0.0,0.0,0.0,0.0,0.0,-2.0704,-1.9679,-1.9679,-2.0113,-2.0355,0.0,-1.9685,0.0,0.0,0.0,0.0,0.0,0.0,-2.3097,-2.1145,-2.1087,-2.0674,0.0,0.0,-1.8905,-1.9199,-1.9319,-1.9372,-1.9372,-1.9372,-1.9372,-1.9372,-1.9372,-1.9372,-1.9386,-1.9867,-2.008,-2.0107,-2.0588,-2.0855,-2.0949,-2.0949,-2.1136,-2.1403,-2.151,-2.1844,-2.2298,-2.2592,-2.2766,-2.2939,-2.3434,-2.3607,-2.3985,-2.6544,-2.8156,-2.9579,-3.1546,-3.3769,-3.5553,-3.6104,-3.6893,-3.7832,-3.8418,-3.8574,-3.8574,-3.8574,-3.8574,-3.8574,-3.8574,-3.8574,-3.8574,-3.8574,-3.8691,-3.875,-3.8594,-3.7625,-3.6125,-3.3868,-3.2944,-3.159,-2.8842,-2.7919,-2.7462,-2.7462,-2.6847,-2.6386,-2.6386,-2.656,-2.68,-2.7094,-2.7388,-2.7682,-2.7976,-2.8377,-2.8604,-2.8617,-2.8791,-2.8898,-2.8911,-2.8791,-2.8724,-2.8711,-2.6154,-2.435]},{"header":{"parameterUnit":"m.s-1","parameterCategory":1,"la1":30.6,"la2":29.2853,"lo1":-89.7004,"lo2":-87.6739,"dy":0.0162,"dx":0.0183,"nx":112,"ny":82,"refTime":"2023-06-17T00:00:00:Z","depth":0,"parameterNumber":3,"parameterNumberName":"V-component_of_WINDS"},"data":[0.0,0.0,0.0,0.0,0.0,0.0,0.0,0.0,0.0,0.0,0.0,0.0,0.0,0.0,0.0,0.0,0.0,0.0,0.0,0.0,0.0,0.0,0.0,0.0,0.0,0.0,0.0,0.0,0.0,0.0,0.0,0.0,0.0,0.0,0.0,0.0,0.0,0.0,0.0,0.0,0.0,0.0,0.0,0.0,0.0,0.0,0.0,0.0,0.0,0.0,0.0,0.0,0.0,0.0,0.0,0.0,0.0,0.0,0.0,0.0,0.0,0.0,0.0,0.0,0.0,0.0,0.0,0.0,0.0,0.0,0.0,0.0,0.0,0.0,0.0,0.0,0.0,0.0,0.0,0.0,0.0,0.0,0.0,0.0,0.0,0.0,0.0,0.0,0.0,0.0,-1.9108,-2.1319,-2.61,-2.9219,-2.9331,-3.0503,-3.1099,-3.0757,0.0,0.0,0.0,0.0,0.0,0.0,0.0,0.0,0.0,0.0,0.0,0.0,0.0,0.0,0.0,0.0,0.0,0.0,0.0,0.0,0.0,0.0,0.0,0.0,0.0,0.0,0.0,0.0,0.0,0.0,0.0,0.0,0.0,0.0,0.0,0.0,0.0,0.0,0.0,0.0,0.0,0.0,0.0,0.0,0.0,0.0,0.0,0.0,0.0,0.0,0.0,0.0,0.0,0.0,0.0,0.0,0.0,0.0,0.0,0.0,0.0,0.0,0.0,0.0,0.0,0.0,0.0,0.0,0.0,0.0,0.0,0.0,0.0,0.0,0.0,0.0,0.0,0.0,0.0,0.0,0.0,0.0,0.0,0.0,0.0,0.0,0.0,0.0,0.0,0.0,0.0,0.0,0.0,0.0,0.0,0.0,0.0,0.0,0.0,0.0,0.0,0.0,0.0,0.0,-2.1165,-2.6432,-2.8825,-3.0287,-3.0768,-3.0103,-2.9917,-3.0541,0.0,0.0,0.0,0.0,0.0,0.0,0.0,0.0,0.0,0.0,0.0,0.0,0.0,0.0,0.0,0.0,0.0,0.0,0.0,0.0,0.0,0.0,0.0,0.0,0.0,0.0,0.0,0.0,0.0,0.0,0.0,0.0,0.0,0.0,0.0,0.0,0.0,0.0,0.0,0.0,0.0,0.0,0.0,0.0,0.0,0.0,0.0,0.0,0.0,0.0,0.0,0.0,0.0,0.0,0.0,0.0,0.0,0.0,0.0,0.0,0.0,0.0,0.0,0.0,0.0,0.0,0.0,0.0,0.0,0.0,0.0,0.0,0.0,0.0,0.0,0.0,0.0,0.0,0.0,0.0,0.0,0.0,0.0,0.0,0.0,0.0,0.0,0.0,0.0,0.0,0.0,0.0,0.0,0.0,0.0,0.0,0.0,0.0,0.0,0.0,0.0,0.0,0.0,-1.9215,-2.3255,-2.7597,-2.9397,-3.0499,-3.1133,-3.0119,-2.9785,-3.0474,-2.9212,0.0,0.0,0.0,0.0,0.0,0.0,0.0,0.0,0.0,0.0,0.0,0.0,0.0,0.0,0.0,0.0,0.0,0.0,0.0,0.0,0.0,0.0,0.0,0.0,0.0,0.0,0.0,0.0,0.0,0.0,0.0,0.0,0.0,0.0,0.0,0.0,0.0,0.0,0.0,0.0,0.0,0.0,0.0,0.0,0.0,0.0,0.0,0.0,0.0,0.0,0.0,0.0,0.0,0.0,0.0,0.0,0.0,0.0,0.0,0.0,0.0,0.0,0.0,0.0,0.0,0.0,0.0,0.0,0.0,0.0,0.0,0.0,0.0,0.0,0.0,0.0,0.0,0.0,0.0,0.0,0.0,0.0,0.0,0.0,0.0,0.0,0.0,0.0,0.0,0.0,0.0,0.0,0.0,0.0,0.0,0.0,0.0,0.0,0.0,0.0,0.0,0.0,-2.1825,-2.4951,-2.8093,-2.9893,-3.0918,-3.1238,-2.9982,-2.9409,-3.0007,-2.8082,0.0,0.0,0.0,0.0,0.0,0.0,0.0,0.0,0.0,0.0,0.0,0.0,0.0,0.0,0.0,0.0,0.0,0.0,0.0,0.0,0.0,0.0,0.0,0.0,0.0,0.0,0.0,0.0,0.0,0.0,0.0,0.0,0.0,0.0,0.0,0.0,0.0,0.0,0.0,0.0,0.0,0.0,0.0,0.0,0.0,0.0,0.0,0.0,0.0,0.0,0.0,0.0,0.0,0.0,0.0,0.0,0.0,0.0,0.0,0.0,0.0,0.0,0.0,0.0,0.0,0.0,0.0,0.0,0.0,0.0,0.0,0.0,0.0,0.0,0.0,0.0,0.0,0.0,0.0,0.0,0.0,0.0,0.0,0.0,0.0,0.0,0.0,0.0,0.0,0.0,0.0,0.0,0.0,0.0,0.0,0.0,0.0,0.0,0.0,0.0,0.0,0.0,-2.2521,-2.5955,-2.974,-3.1424,-3.208,-3.1513,-2.9333,-2.8094,-2.8536,-2.6862,0.0,0.0,0.0,0.0,0.0,0.0,0.0,0.0,0.0,0.0,0.0,0.0,0.0,0.0,0.0,0.0,0.0,0.0,0.0,0.0,0.0,0.0,0.0,0.0,0.0,0.0,0.0,0.0,0.0,0.0,0.0,0.0,0.0,0.0,0.0,0.0,0.0,0.0,0.0,0.0,0.0,0.0,0.0,0.0,0.0,0.0,0.0,0.0,0.0,0.0,0.0,0.0,0.0,0.0,0.0,0.0,0.0,0.0,0.0,0.0,0.0,0.0,0.0,0.0,0.0,0.0,0.0,0.0,0.0,0.0,0.0,0.0,0.0,0.0,0.0,0.0,0.0,0.0,0.0,0.0,0.0,0.0,0.0,0.0,0.0,0.0,0.0,0.0,0.0,0.0,0.0,0.0,0.0,0.0,0.0,0.0,0.0,0.0,0.0,0.0,0.0,0.0,-2.299,-2.6937,0.0,-3.1156,-3.1958,-3.2138,-3.0175,-2.9025,-2.9123,0.0,0.0,0.0,0.0,0.0,0.0,0.0,0.0,0.0,0.0,0.0,0.0,0.0,0.0,0.0,0.0,0.0,0.0,0.0,0.0,0.0,0.0,0.0,0.0,0.0,0.0,0.0,0.0,0.0,0.0,0.0,0.0,0.0,0.0,0.0,0.0,0.0,0.0,0.0,0.0,0.0,0.0,0.0,0.0,0.0,0.0,0.0,0.0,0.0,0.0,0.0,0.0,0.0,0.0,0.0,0.0,0.0,0.0,0.0,0.0,0.0,0.0,0.0,0.0,0.0,0.0,0.0,0.0,0.0,0.0,0.0,0.0,0.0,0.0,0.0,0.0,0.0,0.0,0.0,0.0,0.0,0.0,0.0,0.0,0.0,0.0,0.0,0.0,0.0,0.0,0.0,0.0,0.0,0.0,0.0,0.0,0.0,0.0,0.0,0.0,0.0,0.0,-1.7833,-2.306,-2.7145,0.0,-3.1039,-3.1928,-3.2168,-3.0082,-2.8961,-2.9474,0.0,0.0,0.0,0.0,0.0,0.0,0.0,0.0,0.0,0.0,0.0,0.0,0.0,0.0,0.0,0.0,0.0,0.0,0.0,0.0,0.0,0.0,0.0,0.0,0.0,0.0,0.0,0.0,0.0,0.0,0.0,0.0,0.0,0.0,0.0,0.0,0.0,0.0,0.0,0.0,0.0,0.0,0.0,0.0,0.0,0.0,0.0,0.0,0.0,0.0,0.0,0.0,0.0,0.0,0.0,0.0,0.0,0.0,0.0,0.0,0.0,0.0,0.0,0.0,0.0,0.0,0.0,0.0,0.0,0.0,0.0,0.0,0.0,0.0,0.0,0.0,0.0,0.0,0.0,0.0,0.0,0.0,0.0,0.0,0.0,0.0,0.0,0.0,0.0,0.0,0.0,0.0,0.0,0.0,0.0,0.0,0.0,0.0,0.0,0.0,0.0,0.0,-1.792,-2.2792,-2.6549,-2.903,-3.1191,-3.2228,-3.1569,-2.8626,-2.7598,0.0,0.0,0.0,0.0,0.0,0.0,0.0,0.0,0.0,0.0,0.0,0.0,0.0,0.0,0.0,0.0,0.0,0.0,0.0,0.0,0.0,0.0,0.0,0.0,0.0,0.0,0.0,0.0,0.0,0.0,0.0,0.0,0.0,0.0,0.0,0.0,0.0,0.0,0.0,0.0,0.0,0.0,0.0,0.0,0.0,0.0,0.0,0.0,0.0,0.0,0.0,0.0,0.0,0.0,0.0,0.0,0.0,0.0,0.0,0.0,0.0,0.0,0.0,0.0,0.0,0.0,0.0,0.0,0.0,0.0,0.0,0.0,0.0,0.0,0.0,0.0,0.0,0.0,0.0,0.0,0.0,0.0,0.0,0.0,0.0,0.0,0.0,0.0,0.0,0.0,0.0,0.0,0.0,0.0,0.0,0.0,0.0,0.0,0.0,0.0,0.0,0.0,0.0,-1.7991,-2.2829,-2.6555,-2.903,-3.1229,-3.2447,-3.2228,-3.0435,-2.9793,-3.0834,0.0,0.0,0.0,0.0,0.0,0.0,0.0,0.0,0.0,0.0,0.0,0.0,0.0,0.0,0.0,0.0,0.0,0.0,0.0,0.0,0.0,0.0,0.0,0.0,0.0,0.0,0.0,0.0,0.0,0.0,0.0,0.0,0.0,0.0,0.0,0.0,0.0,0.0,0.0,0.0,0.0,0.0,0.0,0.0,0.0,0.0,0.0,0.0,0.0,0.0,0.0,0.0,0.0,0.0,0.0,0.0,0.0,0.0,0.0,0.0,0.0,0.0,0.0,0.0,0.0,0.0,0.0,0.0,0.0,0.0,0.0,0.0,0.0,0.0,0.0,0.0,0.0,0.0,0.0,0.0,0.0,0.0,0.0,0.0,0.0,0.0,0.0,0.0,0.0,0.0,0.0,0.0,0.0,0.0,0.0,0.0,0.0,0.0,0.0,0.0,0.0,0.0,-1.9487,-2.3665,-2.6718,-2.902,-3.0948,-3.2028,-3.2028,-3.0543,-2.9968,-3.0959,0.0,0.0,0.0,0.0,0.0,0.0,0.0,0.0,0.0,0.0,0.0,0.0,0.0,0.0,0.0,0.0,0.0,0.0,0.0,0.0,0.0,0.0,0.0,0.0,0.0,0.0,0.0,0.0,0.0,0.0,0.0,0.0,0.0,0.0,0.0,0.0,0.0,0.0,0.0,0.0,0.0,0.0,0.0,0.0,0.0,0.0,0.0,0.0,0.0,0.0,0.0,0.0,0.0,0.0,0.0,0.0,0.0,0.0,0.0,0.0,0.0,0.0,0.0,0.0,0.0,0.0,0.0,0.0,0.0,0.0,0.0,0.0,0.0,0.0,0.0,0.0,0.0,0.0,0.0,0.0,0.0,0.0,0.0,0.0,0.0,0.0,0.0,0.0,0.0,0.0,0.0,0.0,0.0,0.0,0.0,0.0,0.0,0.0,0.0,0.0,0.0,0.0,-2.203,-2.5062,-2.7203,-2.9283,-3.0744,-3.1596,-3.1581,-2.9681,-2.8994,-3.0096,0.0,0.0,0.0,0.0,0.0,0.0,0.0,0.0,0.0,0.0,0.0,0.0,0.0,0.0,0.0,0.0,0.0,0.0,0.0,0.0,0.0,0.0,0.0,0.0,0.0,0.0,0.0,0.0,0.0,0.0,0.0,0.0,0.0,0.0,0.0,0.0,0.0,0.0,0.0,0.0,0.0,0.0,0.0,0.0,0.0,0.0,0.0,0.0,0.0,0.0,0.0,0.0,0.0,0.0,0.0,0.0,0.0,0.0,0.0,0.0,-2.6765,0.0,0.0,0.0,0.0,0.0,0.0,0.0,0.0,0.0,0.0,0.0,0.0,0.0,0.0,0.0,0.0,0.0,0.0,0.0,0.0,0.0,0.0,0.0,0.0,0.0,0.0,0.0,0.0,0.0,0.0,0.0,0.0,0.0,0.0,0.0,0.0,0.0,0.0,0.0,0.0,0.0,-2.4249,-2.6788,-2.8768,-3.0919,-3.2352,-3.3011,-3.269,-3.1121,-3.0187,-3.0129,-2.8867,0.0,0.0,0.0,0.0,0.0,0.0,0.0,0.0,0.0,0.0,0.0,0.0,0.0,0.0,0.0,0.0,0.0,0.0,0.0,0.0,0.0,0.0,0.0,0.0,0.0,0.0,0.0,0.0,0.0,0.0,0.0,0.0,0.0,0.0,0.0,0.0,0.0,0.0,0.0,0.0,0.0,0.0,0.0,0.0,0.0,0.0,0.0,0.0,0.0,0.0,0.0,0.0,0.0,0.0,0.0,0.0,0.0,0.0,0.0,0.0,-2.7422,0.0,0.0,0.0,0.0,0.0,0.0,0.0,0.0,0.0,0.0,0.0,0.0,0.0,0.0,0.0,0.0,0.0,0.0,0.0,0.0,0.0,0.0,0.0,0.0,0.0,0.0,0.0,0.0,0.0,0.0,0.0,0.0,0.0,0.0,0.0,0.0,0.0,0.0,0.0,0.0,-2.8152,-2.9621,-3.067,-3.2207,-3.3135,-3.3423,-3.2827,-3.115,-3.0076,-2.9863,-2.8932,0.0,0.0,0.0,0.0,0.0,0.0,0.0,0.0,0.0,0.0,0.0,0.0,0.0,0.0,0.0,0.0,0.0,0.0,0.0,0.0,0.0,0.0,0.0,0.0,0.0,0.0,0.0,0.0,0.0,0.0,0.0,0.0,0.0,0.0,0.0,0.0,0.0,0.0,0.0,0.0,0.0,0.0,0.0,0.0,0.0,0.0,0.0,0.0,0.0,0.0,0.0,0.0,0.0,0.0,0.0,-2.991,-3.0952,-3.1221,-3.0702,-3.0287,-2.952,-2.8514,0.0,0.0,0.0,0.0,0.0,0.0,0.0,0.0,0.0,0.0,0.0,0.0,0.0,0.0,0.0,0.0,0.0,0.0,0.0,0.0,0.0,0.0,0.0,0.0,0.0,-2.1708,-2.0909,0.0,0.0,0.0,0.0,0.0,0.0,0.0,0.0,0.0,0.0,0.0,0.0,-3.2002,-3.2599,-3.2785,-3.3469,-3.3754,-3.3583,-3.2669,-3.1029,-2.9959,-2.9721,-2.9283,-2.8801,0.0,0.0,0.0,0.0,0.0,0.0,0.0,0.0,0.0,0.0,0.0,0.0,0.0,0.0,0.0,0.0,0.0,0.0,0.0,0.0,0.0,0.0,0.0,0.0,0.0,0.0,0.0,0.0,0.0,0.0,0.0,0.0,-2.3081,-2.3297,0.0,0.0,0.0,0.0,0.0,0.0,0.0,0.0,0.0,0.0,0.0,0.0,0.0,0.0,-2.9079,-2.9146,-2.948,-3.0086,-3.0191,-3.0375,-3.0513,-3.1012,-3.1713,-3.2511,-3.334,0.0,-2.8944,-2.9287,0.0,0.0,0.0,0.0,0.0,0.0,0.0,0.0,0.0,0.0,0.0,0.0,0.0,0.0,0.0,0.0,0.0,0.0,0.0,0.0,0.0,0.0,-1.8048,-1.9944,-2.1105,-2.1595,0.0,-1.8612,-1.522,-1.1049,0.0,0.0,0.0,0.0,0.0,0.0,0.0,0.0,-3.3349,-3.4433,-3.5082,-3.5194,-3.4981,-3.4368,-3.3208,-3.2283,-3.1309,-3.0264,-2.9561,-2.9395,-2.9867,-2.9369,0.0,0.0,0.0,0.0,0.0,0.0,0.0,0.0,0.0,0.0,0.0,0.0,0.0,0.0,0.0,0.0,0.0,0.0,0.0,0.0,0.0,0.0,0.0,0.0,0.0,0.0,0.0,0.0,0.0,-2.5687,-2.5431,-2.5296,-2.582,-2.6447,0.0,0.0,0.0,0.0,0.0,0.0,0.0,0.0,0.0,-2.8315,-2.9016,-2.9623,-3.0073,-3.0492,-3.0743,-3.0925,-3.1579,-3.199,-3.2301,-3.3145,-3.419,-3.533,-3.6794,-3.5878,-3.3341,-3.267,-3.2148,-3.1703,0.0,0.0,0.0,0.0,0.0,0.0,-2.7245,0.0,0.0,0.0,0.0,0.0,0.0,0.0,0.0,0.0,0.0,0.0,0.0,0.0,0.0,-2.0206,-2.077,-2.1285,-2.2093,-2.193,-2.1169,0.0,-2.0129,-2.0059,-1.8389,0.0,0.0,0.0,0.0,0.0,-3.6234,-3.6806,-3.6841,-3.6224,-3.59,-3.5145,-3.366,-3.2653,-3.1867,-3.1332,-3.0368,-2.9935,-3.026,-3.0725,-3.1292,0.0,0.0,0.0,0.0,0.0,0.0,0.0,0.0,0.0,0.0,0.0,0.0,0.0,0.0,0.0,0.0,0.0,0.0,0.0,0.0,0.0,0.0,0.0,0.0,0.0,0.0,0.0,0.0,-2.6702,-2.6613,-2.6687,-2.6536,-2.7046,0.0,0.0,0.0,0.0,0.0,0.0,-2.889,-2.9375,-2.9841,-3.0357,-3.0878,-3.1444,-3.2122,-3.2405,-3.2524,-3.2553,-3.3333,-3.3876,-3.422,-3.5236,-3.6253,-3.7259,-3.9202,-3.9139,-3.7613,-3.5955,-3.4972,-3.4416,-3.3341,-3.314,0.0,-3.2876,-3.267,-3.2652,-3.266,-3.1424,-2.995,-3.0691,0.0,-2.7332,-2.6996,0.0,0.0,0.0,0.0,-1.992,-2.0089,0.0,-1.9984,-2.0272,-2.05,-2.1001,-2.223,-2.4001,-2.5494,0.0,-2.9267,-3.1774,-3.19,0.0,0.0,0.0,0.0,-3.6934,-3.8,-3.8351,-3.8051,-3.682,-3.6454,-3.5605,-3.3954,-3.3003,-3.2536,-3.2536,-3.1701,-3.1123,-3.0908,-3.1959,-3.2326,-3.1872,0.0,0.0,0.0,0.0,0.0,0.0,0.0,0.0,0.0,0.0,0.0,0.0,0.0,0.0,0.0,0.0,0.0,0.0,0.0,0.0,0.0,0.0,0.0,0.0,0.0,0.0,0.0,0.0,0.0,-2.5951,-2.6029,0.0,0.0,0.0,0.0,-2.8947,-3.0198,-3.0539,-2.9521,-3.16,-3.2923,-3.3261,-3.3205,-3.4211,-3.6473,-3.5698,-3.5639,-3.6201,-3.5633,-3.5486,-3.5769,-3.6356,-3.6795,-3.7206,-3.9577,-4.0469,-4.0205,-3.8144,-3.704,-3.6656,-3.6572,-3.7426,-3.8685,-3.8589,-3.8603,-3.8302,-3.6323,-3.4708,-3.3355,-3.277,-3.1471,-2.9829,-2.838,-2.7394,0.0,0.0,-2.4304,-2.3238,-2.3099,-2.1516,-1.9949,-1.967,-2.0254,-2.1095,-2.1782,-2.4585,-2.6857,0.0,-2.8021,-2.9907,-3.1046,0.0,-3.4341,-3.4629,-3.679,-3.8064,-3.7265,-3.829,-3.8436,-3.687,-3.6454,-3.5605,-3.3954,-3.377,-3.3707,-3.3707,-3.367,-3.3276,-3.2507,-3.258,-3.2748,-3.3094,-3.3587,0.0,0.0,0.0,0.0,0.0,0.0,0.0,0.0,0.0,0.0,0.0,0.0,0.0,0.0,0.0,0.0,0.0,0.0,0.0,0.0,0.0,0.0,0.0,0.0,0.0,0.0,0.0,0.0,-2.9163,-2.9573,0.0,0.0,-3.0264,-2.997,-3.0791,-2.978,-2.9753,-3.1307,-3.2144,-3.3479,-3.5347,-3.5879,-3.646,-3.7188,-3.6917,-3.6836,-3.7075,-3.6949,-3.7349,-3.8357,-3.9112,-3.9664,-4.0129,-4.1851,-4.2013,-4.1163,-4.1407,-4.1261,-4.0674,-3.9779,-4.0148,-4.111,-4.056,-4.0121,-3.9598,-3.8874,-3.7048,-3.4793,-3.3095,-3.2167,-3.1423,-2.9778,-2.9411,-2.8891,-2.5883,-2.4993,-2.4557,-2.349,-2.1826,-2.0472,-2.0328,-2.0145,-2.0173,-2.1095,-2.3802,-2.6254,-2.6693,-2.948,-3.2222,-3.3599,-3.4361,-3.5409,-3.7208,-3.8004,-3.8551,-3.8859,-3.9482,-3.9184,-3.7405,-3.7124,-3.6376,-3.4724,-3.4578,-3.4357,-3.3844,-3.3807,-3.366,-3.3366,-3.3366,-3.3542,-3.3893,-3.4051,-3.4686,0.0,0.0,0.0,0.0,0.0,0.0,0.0,0.0,0.0,0.0,0.0,0.0,0.0,0.0,0.0,0.0,0.0,0.0,0.0,0.0,0.0,0.0,0.0,0.0,0.0,0.0,-3.1261,-3.2254,-3.2281,-3.2714,-3.3948,-3.2311,-3.1523,-3.2326,-3.0959,-3.1056,-3.3291,-3.3876,-3.5174,-3.752,-3.7461,-3.7897,-3.8849,-3.8012,-3.7801,-3.8392,-3.831,-3.88,-3.9734,-4.0579,-4.1213,-4.1878,-4.3255,-4.3366,-4.2732,-4.4081,-4.4579,-4.4463,-4.3299,-4.3224,-4.3775,-4.3572,-4.2861,-4.1827,-4.0508,-3.8625,-3.6469,-3.4243,-3.2966,-3.2043,-3.0984,-3.0392,-2.9547,-2.6523,-2.5746,-2.559,-2.4247,-2.2208,-2.0447,-2.0413,-1.9557,-1.9007,-1.9761,-2.2326,-2.5013,-2.6724,-3.005,-3.3066,-3.4356,-3.4808,-3.5745,-3.7848,-3.8432,-3.8761,-3.9163,-3.9798,-3.9505,-3.7691,-3.7507,-3.6817,-3.5137,-3.5275,-3.4981,-3.388,-3.4064,-3.4009,-3.3606,-3.3834,-3.3936,-3.3837,-3.4088,-3.4765,-3.5895,0.0,0.0,0.0,0.0,0.0,0.0,0.0,0.0,0.0,0.0,0.0,0.0,0.0,0.0,0.0,0.0,0.0,0.0,0.0,0.0,0.0,0.0,0.0,-3.2038,-3.1852,-3.2496,-3.472,-3.3878,-3.3667,-3.5152,-3.3594,-3.276,-3.3481,-3.4034,-3.4745,-3.5411,-3.68,-3.8225,-3.9718,-3.7964,-3.8461,-4.1573,-3.9136,-3.8719,-4.0471,-3.9971,-3.9765,-3.9831,-4.0706,-4.1467,-4.2142,-4.3453,-4.4477,-4.5112,-4.5853,-4.6799,-4.7539,-4.688,-4.6724,-4.6921,-4.7665,-4.6989,-4.5226,-4.1434,-3.9638,-3.8635,-3.6341,-3.3926,-3.1931,-3.1875,-3.0493,-2.8724,-2.7603,-2.6932,-2.6285,-2.5504,-2.2609,-1.9865,-1.9704,-1.8596,-1.7644,-1.8056,-2.031,-2.3185,-2.6248,-2.9478,-3.1927,-3.3016,-3.4133,-3.5262,-3.6345,-3.7996,0.0,-3.811,-3.9167,-3.935,-3.7734,-3.7551,-3.689,-3.521,-3.5862,-3.5642,-3.399,-3.4614,-3.452,-3.3304,-3.3965,-3.3942,-3.309,-3.3813,-3.4739,-3.5931,0.0,0.0,0.0,0.0,0.0,0.0,0.0,0.0,0.0,0.0,0.0,0.0,0.0,0.0,0.0,0.0,0.0,0.0,0.0,0.0,0.0,0.0,-3.2925,-3.2414,-3.3248,-3.4216,-3.4983,-3.6693,-3.7638,-3.7102,-3.6982,-3.6615,-3.5729,-3.6282,-3.6722,-3.6969,-3.781,-3.8394,-3.85,-3.8727,-3.9073,-3.9576,-3.9638,-4.0231,-4.1321,-4.1319,-4.1662,-4.2353,-4.2609,-4.2833,-4.2958,-4.3872,-4.4269,-4.4445,-4.5828,-4.6914,-4.7572,-4.7375,-4.7428,-4.7631,-4.7834,-4.7293,-4.6102,-4.326,-4.182,-4.0801,-3.8378,-3.6347,-3.447,-3.3003,-3.1882,-3.0573,-2.7825,-2.6293,-2.5354,-2.4044,-2.1371,-1.8962,-1.887,-1.8203,-1.778,-1.8765,-2.0761,-2.3079,-2.5609,-2.8246,-3.107,-3.4091,-3.5078,-3.62,-3.8504,0.0,0.0,-4.0273,-4.0782,-4.0559,-3.9355,-3.9239,-3.8579,-3.6927,-3.7037,-3.6707,-3.5679,-3.5826,-3.5615,-3.4898,-3.5047,-3.501,-3.4609,-3.5371,-3.5937,0.0,0.0,0.0,0.0,0.0,0.0,0.0,0.0,0.0,0.0,0.0,0.0,0.0,0.0,0.0,0.0,0.0,0.0,0.0,0.0,0.0,0.0,-3.477,-3.4541,-3.4713,-3.4985,-3.5554,-3.6557,-3.8853,-4.0254,-4.0121,-3.9804,-3.9409,-3.8874,-3.8446,-3.8446,-3.8757,-3.9154,-3.9154,-3.8708,-3.9086,-3.9254,-3.9168,-3.995,-4.094,-4.2147,-4.2716,-4.3225,-4.3779,-4.3877,-4.3889,0.0,-4.4897,-4.5317,-4.5339,-4.6905,-4.7794,0.0,0.0,0.0,0.0,0.0,-4.7631,-4.6885,-4.4399,-4.3263,-4.2553,-4.0021,-3.8105,-3.6401,-3.4528,-3.3078,-3.1577,-2.9114,-2.7638,-2.6518,-2.5078,-2.3054,-2.0992,-1.9731,-1.8631,-1.8123,-1.8645,-2.003,-2.1825,-2.4159,0.0,0.0,-3.3325,-3.4727,-3.614,-3.8198,-3.8872,-3.9398,0.0,-4.056,-4.0492,-3.947,-3.9191,-3.8547,-3.727,-3.7293,0.0,0.0,0.0,-3.5885,-3.5403,-3.5469,0.0,0.0,0.0,-3.6498,0.0,0.0,0.0,0.0,-3.7396,-3.7916,0.0,0.0,0.0,0.0,0.0,0.0,0.0,0.0,0.0,0.0,0.0,0.0,0.0,0.0,0.0,0.0,-3.652,-3.6288,-3.7889,-3.7019,-3.6949,-3.8917,-4.0601,-4.203,-4.3293,-4.2228,-4.1565,-4.2044,-4.0755,-4.0094,-4.0487,0.0,0.0,0.0,0.0,-3.9159,-3.9635,-4.0114,-4.1218,-4.2918,-4.3978,-4.4504,-4.4528,-4.4673,-4.471,-4.4732,-4.6031,-4.6675,-4.7005,-4.8267,-4.8849,-4.9018,-4.9018,-4.9046,-4.904,-4.8274,-4.8098,0.0,0.0,0.0,0.0,-4.1419,-3.9475,-3.7814,-3.6171,-3.4131,-3.2121,-3.1077,-2.9854,-2.8527,-2.7379,-2.5882,-2.3975,-2.149,-1.9763,-1.8679,-1.8616,-1.9129,-2.0326,-2.2882,-2.588,-2.8959,-3.1703,-3.3839,-3.5608,-3.6771,-3.8512,0.0,-3.8707,-3.9572,-3.9878,-3.8903,0.0,0.0,-3.6962,-3.7147,-3.6748,-3.533,-3.5858,-3.6054,-3.5751,-3.5888,-3.6219,-3.6671,-3.6755,-3.6969,-3.7379,-3.8051,-3.8164,-3.7663,-3.8123,-3.843,0.0,0.0,0.0,0.0,0.0,0.0,0.0,0.0,0.0,0.0,0.0,0.0,0.0,0.0,0.0,-3.9626,-3.8707,-3.8253,-3.9257,-3.9354,-3.9694,-4.0639,-4.2672,-4.3788,-4.3389,-4.4113,-4.4043,-4.2723,-4.286,-4.2432,-4.128,-4.1683,0.0,-3.9794,-3.9988,-3.9959,-3.9794,-4.0872,-4.2233,-4.3822,0.0,0.0,-4.5437,-4.5476,-4.5431,-4.5302,-4.5103,-4.5976,-4.7485,-4.7291,-4.7936,-4.9018,-4.9018,-4.9316,-4.9688,-4.9059,-4.9138,-4.9213,-4.668,-4.5405,-4.4649,-4.2636,-4.0507,-3.8477,-3.7767,-3.5626,0.0,-3.2066,-2.9989,-2.7955,-2.7511,-2.5152,-2.2866,-2.2886,-2.0655,-1.9192,-2.1548,-2.1196,-2.1379,-2.4806,-2.745,-2.9788,-3.2121,-3.4022,-3.5954,-3.8166,-3.8824,-3.9474,-4.0318,-4.0593,-4.0411,-3.9462,-3.9245,-3.8848,-3.8028,-3.8058,-3.8231,-3.8475,-3.8209,-3.8296,-3.8822,-3.8512,-3.8376,-3.852,-3.8872,-3.8841,-3.8347,-3.8907,-3.8894,-3.8382,-3.8512,-3.9216,0.0,0.0,0.0,0.0,0.0,0.0,0.0,0.0,0.0,0.0,0.0,-4.0267,0.0,0.0,-4.226,-4.2121,-4.1659,-4.1611,-4.2437,-4.2757,-4.2887,-4.2799,-4.4517,-4.5747,-4.6089,-4.6354,-4.5958,-4.4598,-4.4091,-4.342,-4.2419,-4.2372,-4.1844,-4.0747,-4.1145,-4.0867,-3.9715,-4.1832,-4.311,-4.3616,-4.5602,-4.668,-4.6769,-4.7119,-4.7074,-4.6595,-4.6673,-4.7056,-4.7683,-4.8132,-4.882,-4.9526,-5.0345,-5.0379,-5.0011,-5.011,-5.0066,-4.9711,-4.7638,-4.664,-4.6011,-4.3778,-4.2259,-4.0859,-3.8703,-3.6674,-3.4741,-3.302,-3.1308,-2.9815,-2.8854,-2.7093,-2.537,-2.4393,-2.2373,-2.0975,-2.2611,-2.2284,-2.2474,-2.5632,-2.7546,-2.9511,-3.2202,-3.4229,-3.6222,-3.8502,-3.9881,-4.0712,-4.0849,-4.0908,-4.0687,-4.0058,-3.9434,-3.8881,-3.8496,-3.859,-3.8832,-3.9178,-3.9662,-3.9884,-3.9884,-4.0034,-4.0068,-3.9953,-4.0169,-4.0101,-3.9766,-4.0374,-4.0446,-3.9918,-4.0295,-4.0466,0.0,0.0,0.0,0.0,0.0,0.0,0.0,0.0,-4.0047,-4.1515,-4.1919,-4.247,-4.3938,-4.4856,-4.526,-4.4808,-4.4749,-4.4965,-4.5614,-4.5633,-4.5509,-4.5423,-4.6604,-4.7805,-4.897,-4.8438,-4.7637,-4.6738,-4.5207,-4.4044,-4.3585,-4.2977,-4.2367,-4.1918,-4.2278,-4.1685,-4.0155,-4.2652,-4.3677,-4.3295,-4.6225,-4.7607,-4.78,-4.8534,-4.8577,-4.814,-4.8697,-4.8529,-4.7922,-4.9336,-4.9902,-5.0079,-5.1986,-5.19,-5.0704,-5.1451,-5.1185,-5.0206,-4.861,-4.7869,-4.7208,-4.4755,-4.3925,-4.3162,-3.9682,-3.7727,-3.6277,-3.4288,-3.3215,-3.2397,-3.098,-2.9933,-2.8791,-2.6609,-2.4539,-2.3183,-2.3781,-2.3518,-2.3843,-2.6082,-2.759,-2.9526,-3.254,-3.4677,-3.6645,-3.8711,-4.072,-4.1813,-4.1243,-4.1202,-4.0918,-4.0234,-3.9388,-3.8755,-3.8615,-3.8958,-3.9226,-3.9413,-4.0523,-4.1047,-4.073,-4.1441,-4.175,-4.1601,-4.1739,-4.1739,-4.1601,-4.2221,-4.2279,-4.188,-4.2625,-4.2151,-4.5149,-4.3497,-4.1295,-4.1992,-4.1001,-4.0267,0.0,0.0,-4.3204,-4.4121,-4.4856,-4.5626,-4.6544,-4.7352,-4.7864,-4.7826,-4.7429,-4.7126,-4.7155,-4.6096,-4.6269,-4.8918,-4.9421,-4.9725,-4.9867,-4.9811,-4.9306,-4.8366,-4.6841,-4.5539,-4.4662,-4.3711,-4.316,-4.3061,-4.2623,-4.2312,-4.2067,-4.2778,-4.3421,-4.3965,-4.5838,-4.7088,-4.78,-4.8483,-4.9091,-4.9577,-4.9604,-4.9245,-4.8714,-4.9548,-4.9902,-5.0165,-5.3117,-5.3698,-5.2988,-5.3211,-5.2731,-5.1809,-5.0086,-4.8687,-4.7306,-4.5353,-4.4254,-4.3328,-4.1033,-3.9222,-3.7593,-3.6267,-3.5249,-3.4324,-3.357,-3.2284,-3.0974,-3.0571,-2.7473,-2.5055,-2.6709,-2.6044,-2.5602,-2.7128,-2.9239,-3.1574,-3.3792,-3.5898,-3.7866,-3.9532,-4.0554,-4.1388,-4.2049,-4.2121,-4.1336,-3.9282,-3.9487,-3.9434,-3.8663,-3.9312,-4.0027,-4.072,-4.0941,-4.1643,-4.2976,-4.3809,-4.4202,-4.419,-4.4834,-4.4834,-4.419,-4.4258,-4.4292,-4.4215,-4.4993,-4.4519,-4.3204,-4.28,-4.258,0.0,-4.2837,-4.299,-4.4231,-4.4411,-4.4584,-4.5444,-4.5904,-4.6514,-4.7815,-4.8677,-4.9072,0.0,-4.8755,-4.8755,-4.8127,-4.8003,-4.8019,-4.8202,-4.9567,-5.0633,-5.1167,-5.0909,-5.0098,-4.8673,-4.7605,-4.6416,-4.4887,-4.4358,-4.3927,-4.3329,-4.306,-4.2761,-4.2372,-4.3599,-4.393,-4.3485,-4.6065,-4.7492,-4.7799,-4.9376,-5.056,-5.1406,-5.1157,-5.0898,-5.0711,-5.1521,-5.1691,-5.17,-5.3928,-5.4422,-5.4064,-5.5116,-5.4717,-5.3508,-5.2392,-5.1028,-4.9396,-4.7065,-4.576,-4.4549,-4.1208,-3.9508,-3.8221,-3.6389,-3.5314,-3.46,-3.4048,-3.2656,-3.1335,-3.1223,-2.915,-2.7479,-2.8479,-2.8172,-2.8129,-2.9487,-3.0974,-3.2842,-3.5063,-3.6676,-3.8311,-4.0053,-4.1846,-4.2637,-4.1606,-4.2311,-4.1981,-3.9697,-3.9677,-3.9693,-3.9333,-4.0458,-4.133,-4.1683,-4.2575,-4.3574,-4.4722,-4.506,-4.5432,-4.5872,-4.6177,-4.6177,-4.5872,-4.5872,-4.5872,-4.5872,-4.621,-4.5974,-4.2546,0.0,0.0,-4.405,-4.4638,-4.529,-4.623,-4.6198,-4.6222,-4.7108,-4.7294,-4.7696,-4.8841,-4.9387,-4.9528,-4.9089,-4.9387,-4.9493,-4.8911,-4.9009,-4.8684,-4.7569,-4.882,-5.02,-5.1302,-5.1021,-5.0382,-4.933,-4.8249,-4.7036,-4.5634,-4.53,-4.4706,-4.3771,-4.3693,-4.3404,-4.2641,-4.4288,-4.4569,-4.3613,-4.6438,-4.7945,-4.8422,-5.0733,-5.2099,-5.2565,-5.2403,-5.2356,-5.2394,-5.2968,-5.3043,-5.2928,-5.4538,-5.4947,-5.4754,-5.6483,-5.6031,-5.4539,-5.4028,-5.2753,-5.0917,-4.8413,-4.7069,-4.5709,-4.1624,-3.9968,-3.9011,-3.6606,-3.5604,-3.5052,-3.45,-3.3399,-3.2536,-3.2372,-3.1192,-3.0248,-3.0702,-3.0594,-3.0617,-3.144,-3.2524,-3.3939,-3.5867,-3.7098,-3.8413,-4.0069,-4.2262,-4.3137,-4.1661,-4.23,-4.23,-4.0769,-4.0195,-4.0034,-4.0222,-4.1341,-4.2158,-4.2435,-4.3739,-4.4865,-4.5669,-4.6109,-4.6583,-4.709,-4.7293,-4.7394,-4.7394,-4.7394,-4.7394,-4.7394,-4.7394,-4.7394,-4.4455,-4.4271,-4.4186,-4.5517,-4.5942,-4.6254,-4.7083,-4.7961,-4.8806,-4.9619,-4.9847,-4.9897,-4.9968,-4.9416,-4.9167,-4.9862,-4.9366,-4.903,-4.9559,-4.8351,-4.7627,-4.8192,-4.7645,-4.7865,0.0,-4.9862,-5.0256,-5.0963,-4.887,-4.7605,-4.7506,-4.6662,-4.5706,-4.4812,-4.4737,-4.4282,-4.3299,-4.4507,-4.508,-4.5085,-4.6828,-4.8504,-5.0019,-5.2532,-5.3312,-5.2602,-5.3005,-5.3157,-5.3157,-5.3194,-5.3201,-5.3352,-5.5018,-5.5388,-5.5173,-5.6809,-5.6213,-5.4625,-5.4581,-5.312,-5.0986,-4.8898,-4.7805,-4.6485,-4.2796,-4.1211,-4.024,-3.7851,-3.6734,-3.6182,-3.5629,-3.5386,-3.536,-3.5357,-3.4366,-3.3593,-3.4105,-3.3418,-3.2732,-3.2732,-3.374,-3.4952,-3.6053,-3.7098,-3.8144,-3.9265,-4.0821,-4.2166,-4.2874,-4.2202,-4.1961,-4.2581,-4.1298,-4.0651,-4.128,-4.1587,-4.2066,-4.2908,-4.3875,-4.4803,-4.5645,-4.709,-4.7868,-4.7902,-4.8578,-4.8951,-4.8951,-4.8951,-4.8951,-4.8951,-4.8951,-4.8951,-4.5443,-4.6139,-4.7344,-4.9404,-5.0346,-5.1027,-5.1915,-5.1596,-5.0753,-4.9585,-4.8117,-4.7004,-4.6542,-4.5784,-4.5681,-4.6935,-4.7715,-4.8347,-4.9047,-4.9068,-4.8483,-4.7006,-4.7524,0.0,0.0,0.0,0.0,-5.0185,-4.8792,-4.7725,-4.7638,-4.7306,-4.6662,-4.5778,-4.5706,-4.5561,-4.5269,-4.6228,-4.6517,-4.6028,-4.7636,-4.8972,-5.0054,-5.2095,-5.3304,-5.3875,-5.4314,-5.4623,-5.4866,-5.4866,-5.4542,-5.4107,-5.4673,-5.4462,-5.3957,-5.4986,-5.5361,-5.5358,-5.5908,-5.4936,-5.3159,-5.1391,-4.9496,-4.7415,-4.475,-4.2794,-4.1105,-3.9465,-3.8216,-3.7236,-3.6332,-3.6107,-3.6084,-3.6131,-3.5503,-3.5136,-3.6062,-3.5083,-3.4121,-3.451,-3.5512,-3.6443,-3.6766,-3.8716,-4.0469,-4.1294,-4.0721,-4.0842,-4.2622,-4.1669,-4.1049,-4.1789,-4.14,-4.1414,-4.223,-4.2942,-4.3674,-4.4592,-4.5474,-4.638,-4.7158,-4.7665,-4.8139,-4.8612,-4.8883,-4.9018,-4.9018,-4.9018,-4.9018,-4.9018,-4.9018,-4.9018,-4.7351,-4.8886,-5.0744,-5.3109,-5.3895,-5.4262,-5.488,-5.3441,-5.1304,-4.9032,-4.685,-4.4891,-4.3606,-4.276,-4.2726,-4.4248,-4.5268,-4.6335,-4.7775,-4.8137,-4.7844,-4.6712,-4.7482,-4.8201,0.0,0.0,0.0,-5.0609,-4.9928,-4.9409,-4.9293,-4.9293,-4.8761,-4.7508,-4.7249,-4.6781,-4.6173,-4.7172,-4.7506,-4.7398,-4.8916,-4.9741,-5.0054,-5.2095,-5.3304,-5.3875,-5.4734,-5.5237,-5.5508,-5.5508,-5.5186,-5.4701,-5.4547,-5.405,-5.3477,-5.3994,-5.4607,-5.5302,-5.6138,-5.5668,-5.4388,-5.2912,-5.1154,-4.9138,-4.6488,-4.476,-4.3267,-4.1393,-4.0198,-3.9216,-3.846,-3.7893,-3.7505,-3.8174,-3.7497,-3.7066,-3.8427,-3.7259,-3.6031,-3.6324,-3.6988,-3.7482,-3.7482,-3.9613,-4.1534,-4.1953,-4.0935,-4.0798,-4.2738,-4.2063,-4.1624,-4.2043,-4.2379,-4.2846,-4.3479,-4.4432,-4.5212,-4.5826,-4.6703,-4.7428,-4.7902,-4.8173,-4.8545,-4.8984,-4.9018,-4.9018,-4.9018,-4.9255,-4.9255,-4.9018,-4.9255,-4.939,-5.009,-5.2295,-5.4288,-5.6383,-5.6466,-5.5952,-5.588,-5.3477,-5.054,-4.8251,-4.5925,-4.3673,0.0,0.0,-4.0561,-4.2049,-4.2422,-4.3537,-4.6374,-4.6185,-4.6222,0.0,0.0,0.0,0.0,0.0,0.0,-5.2376,0.0,-5.2367,-5.2469,-5.2435,-5.1631,-5.0017,-4.929,-4.8125,-4.6518,-4.7373,-4.8256,-4.9107,-5.0535,-5.0748,-5.0075,-5.2642,-5.346,-5.286,-5.4465,-5.5222,-5.5248,-5.5222,-5.5222,-5.5168,-5.4685,-5.4262,-5.3833,-5.3796,-5.4044,-5.4532,-5.539,-5.5255,-5.4514,-5.3558,-5.2704,-5.1451,-4.8183,-4.7207,-4.6658,-4.3743,-4.2389,-4.1917,-4.189,-4.0567,-3.9698,-4.1255,-4.0294,-3.9507,-4.1074,-3.9664,-3.8062,-3.809,-3.8007,-3.8117,-3.8311,-4.0118,-4.1444,-4.1474,-4.1474,-4.1923,-4.312,-4.3269,-4.3299,-4.3329,-4.4128,-4.4706,-4.4887,-4.5842,-4.6486,-4.6584,-4.7474,-4.797,-4.797,-4.8646,-4.9018,-4.9018,-4.9052,-4.9052,-4.9052,-4.9796,-4.9796,-4.912,-4.983,-5.0135,-5.1249,-5.46,-5.7861,-5.845,-5.8513,-5.8123,-5.6937,-5.3408,-4.963,-4.684,-4.36,-4.073,0.0,0.0,0.0,-4.1948,-4.4181,0.0,-4.8855,-4.9501,0.0,-5.0922,0.0,-5.23,-5.3641,-5.4261,0.0,0.0,-5.4216,-5.3044,-5.4769,-5.4296,-5.3585,-5.2572,-5.2354,-5.1548,-4.9937,-5.0092,-5.0355,-5.0554,-5.1444,-5.1766,-5.1587,-5.3419,-5.45,-5.4957,-5.5983,-5.6825,-5.745,-5.7122,-5.6768,-5.6317,-5.5278,-5.465,-5.417,-5.358,-5.3829,-5.4546,-5.5322,-5.5547,-5.5382,-5.512,-5.4402,-5.3235,-5.1262,-4.9259,-4.7489,-4.6167,-4.451,-4.2923,-4.2574,-4.2141,-4.1846,-4.2281,-4.1621,-4.1184,-4.1989,-4.0032,-3.8173,-3.8642,-3.864,-3.9369,-4.1638,-4.209,-4.2282,-4.2761,-4.2851,-4.2791,-4.2641,-4.2611,-4.2791,-4.3269,-4.3115,-4.3806,-4.5642,-4.5672,-4.6322,-4.8274,-4.8591,-4.8714,-4.8714,-4.8917,-4.9018,-4.9018,-4.9526,-4.983,-4.983,-5.0574,-5.0845,-5.0642,-5.0845,-5.0913,-5.476,-5.784,-6.0752,-6.0669,-5.9731,-5.8351,-5.6837,-5.2909,-4.8716,-4.5383,-4.2516,-4.0054,-3.8227,-3.8227,0.0,0.0,0.0,0.0,-4.868,-4.9221,-4.9989,0.0,-5.2946,0.0,-5.5929,-5.7053,-5.8458,0.0,-5.7559,-5.6292,-5.7577,-5.7239,-5.6359,-5.5006,-5.4647,-5.3575,-5.1724,-5.167,-5.144,-5.1086,-5.179,-5.2293,-5.2665,-5.4075,-5.5172,-5.6021,0.0,-5.7501,-5.7991,-5.7707,-5.7317,-5.6794,-5.5921,-5.5084,-5.4363,-5.3885,-5.3812,-5.3995,-5.4803,-5.5313,-5.5692,-5.6115,-5.5809,-5.5042,-5.3408,-5.1826,-5.0309,-4.8691,-4.7046,-4.5665,-4.4928,-4.41,-4.3556,-4.3714,-4.2902,-4.2179,-4.2674,-4.1134,-3.9788,-4.0407,-4.0315,-4.0969,-4.3701,-4.3658,-4.3329,-4.3718,-4.3509,-4.321,-4.2851,-4.2791,-4.291,-4.3299,-4.3361,-4.4229,-4.6071,-4.6237,-4.7013,-4.8889,-4.9018,-4.9018,-4.9018,-4.9018,-4.9018,-4.9018,-4.9729,-5.0101,-5.0101,-5.1183,-5.1522,-5.1217,-5.1555,-5.1691,-5.9024,-6.1328,-6.3226,-6.2733,-6.0423,-5.78,-5.6056,-5.1969,-4.7573,-4.4069,-4.2021,-4.029,-3.8261,-3.8106,-3.9035,-4.1271,0.0,-4.3613,-4.8037,-4.8003,-4.8849,-5.2469,-5.3585,-5.4972,-5.7171,-5.8727,-6.052,-6.2651,-6.1603,-6.0791,-6.0689,-6.0588,-5.9546,-5.7494,-5.6495,-5.5049,-5.3067,-5.2854,-5.2319,-5.1536,-5.2065,-5.2744,-5.3598,-5.4899,-5.5996,-5.6855,0.0,0.0,-5.8165,-5.7995,-5.7696,-5.7322,-5.6706,-5.5788,-5.484,-5.462,-5.4106,-5.3628,-5.4436,-5.517,-5.5888,-5.6645,-5.6922,-5.6675,-5.4904,-5.4313,-5.3715,-5.1023,-4.9646,-4.8718,-4.7885,-4.6342,-4.5055,-4.5203,-4.4133,-4.2986,-4.3239,-4.2444,-4.1904,-4.2622,-4.2301,-4.2697,-4.4941,-4.4825,-4.4436,-4.4436,-4.3958,-4.3489,-4.3328,-4.326,-4.3329,-4.3329,-4.399,-4.4911,-4.5889,-4.6803,-4.7704,-4.8736,-4.8923,-4.9018,-4.9018,-4.9018,-4.9052,-4.9154,-4.9864,-5.027,-5.0371,-5.1894,-5.2266,-5.1691,-5.2401,-5.2739,-6.095,-6.375,-6.5976,-6.3238,-6.0736,-5.8328,-5.5506,-5.0435,0.0,-4.3008,-4.0832,-3.9073,-3.8091,-3.9234,-4.1174,-4.3613,-4.5405,-4.7877,-5.1959,-5.186,-5.2503,0.0,-5.6664,-5.8017,-6.0317,-6.1873,0.0,0.0,0.0,0.0,-6.3869,-6.326,-6.2186,-6.0674,-5.8651,-5.7397,-5.701,-5.5706,-5.4602,-5.3799,-5.3584,-5.3938,-5.4869,-5.6814,-5.8353,-5.9574,0.0,0.0,-6.1223,-6.013,-5.9785,-5.9771,-5.7977,-5.7344,-5.7189,-5.5868,-5.528,-5.528,-5.6088,-5.6492,-5.6658,-5.6826,-5.728,-5.7525,-5.5966,-5.5347,-5.4753,-5.2959,-5.1136,-4.9646,-4.948,-4.8122,-4.6542,-4.549,-4.5019,-4.4519,-4.3519,-4.2878,-4.2651,-4.3315,-4.3343,-4.369,-4.5025,-4.5185,-4.5125,-4.5125,-4.5035,-4.4585,-4.3515,-4.3307,-4.3329,-4.3329,-4.3007,-4.3396,-4.4899,-4.538,-4.625,-4.777,-4.8576,-4.9018,-4.9018,-4.9018,-4.9289,-4.9898,-5.0642,-5.1319,-5.1928,-5.345,-5.4126,-5.4025,-5.4769,-5.5108,-6.3182,-6.5297,-6.6723,-6.3772,-6.0515,-5.7124,-5.4175,0.0,0.0,-4.276,-4.1393,-4.048,-4.0138,-4.0758,0.0,-4.4505,-4.5351,-4.7526,-5.2726,-5.283,-5.3721,-5.7535,-5.9078,-6.0655,0.0,0.0,0.0,0.0,0.0,0.0,-6.5271,-6.4106,-6.3205,-6.2508,-6.0691,-5.9547,-5.9154,-5.7606,-5.6416,-5.5647,-5.5275,-5.5771,-5.7077,-5.8585,-6.003,-6.1467,0.0,0.0,-6.2089,-6.1838,-6.1302,-6.0525,-6.0003,-5.9301,-5.8474,-5.7299,-5.6565,-5.6235,-5.6198,-5.6455,-5.6887,-5.7328,-5.771,-5.7908,-5.7157,-5.6851,-5.6422,-5.4659,-5.3486,-5.2486,-5.1057,-5.0078,-4.919,-4.7791,-4.648,-4.519,-4.3618,-4.3148,-4.3285,-4.4262,-4.4502,-4.4967,-4.6152,-4.6052,-4.5843,-4.5843,-4.5161,-4.4384,-4.3517,-4.3342,-4.3315,-4.3357,-4.2796,-4.315,-4.5125,-4.5102,-4.5751,-4.7506,-4.8364,-4.9083,-4.956,-4.9932,-5.0304,-5.0676,-5.1826,-5.2367,-5.23,-5.3856,-5.46,-5.46,-5.4972,-5.5344,-6.5287,-6.6656,-6.72,-6.4624,-6.0502,-5.6258,-5.3247,-4.9018,0.0,-4.2963,-4.2432,-4.2375,-4.2375,-4.2422,-4.318,0.0,-4.529,-4.7086,-5.3176,-5.3602,-5.5009,0.0,-6.139,0.0,-6.5192,0.0,0.0,0.0,0.0,0.0,0.0,-6.5333,-6.4546,-6.4277,-6.2995,-6.1897,-6.097,-5.9562,-5.844,-5.7543,-5.7047,-5.7598,-5.9054,-5.9895,-6.1241,-6.2991,0.0,0.0,0.0,-6.2859,-6.2185,-6.1018,-6.1507,-6.0916,-5.9612,-5.8804,-5.8107,-5.7483,-5.6859,-5.6932,-5.7446,-5.807,-5.813,-5.8006,-5.8031,-5.8176,-5.8001,-5.6326,-5.5928,-5.538,-5.2941,-5.2074,-5.1391,-4.978,-4.7707,-4.5743,-4.4546,-4.4128,-4.4354,-4.5526,-4.5726,-4.6195,-4.7314,-4.71,-4.68,-4.692,-4.5697,-4.4571,-4.3877,-4.3471,-4.3313,-4.3754,-4.3197,-4.3591,-4.569,-4.5341,-4.5699,-4.7322,-4.8226,-4.9128,-4.9984,-5.075,-5.1386,-5.1691,-5.2875,-5.3348,-5.3044,-5.4228,-5.4837,-5.4837,-5.5006,-5.548,-6.6861,-6.8368,-6.8893,-6.6438,-6.1747,-5.7002,-5.4059,0.0,-4.5263,-4.3639,-4.3237,-4.3187,-4.3187,-4.4059,-4.5372,-4.7098,-4.7793,-4.9955,-5.5368,-5.6402,-5.8196,-6.2637,0.0,0.0,-6.7052,0.0,0.0,0.0,0.0,0.0,0.0,-6.8576,-6.7764,-6.6988,-6.6105,-6.487,-6.3312,-6.2498,-6.1364,-5.9889,-5.885,-5.8896,-5.9831,-6.0304,-6.1878,-6.4106,0.0,0.0,0.0,-6.2518,-6.2033,-6.2071,-6.1437,-6.1233,-6.1263,-6.0493,-6.0126,-6.0052,-5.9979,-5.9538,-5.8988,-5.9098,-5.8611,-5.803,-5.8094,-5.8555,-5.8951,-5.806,-5.7709,-5.7113,-5.5483,-5.3828,-5.2064,-4.9898,-4.8054,-4.6936,-4.7336,-4.6637,-4.6211,-4.701,-4.7133,-4.7402,-4.8087,-4.8147,-4.8297,-4.8895,-4.7804,-4.65,-4.5261,-4.3983,-4.3707,-4.4967,-4.445,-4.4618,-4.6112,-4.5856,-4.5928,-4.6703,-4.7981,-4.8989,-4.9717,-5.0659,-5.186,-5.3281,-5.345,-5.4126,-5.5412,-5.5547,-5.5615,-5.5649,-5.6292,-5.7002,-6.533,-6.786,-6.9198,-6.6624,-6.2018,-5.7295,-5.4194,0.0,-4.5479,-4.4795,-4.457,-4.4589,-4.4955,-4.5364,-4.6209,-4.8114,-4.8234,-4.9934,-5.5238,-5.5896,-5.7715,-6.2874,-6.4865,0.0,0.0,0.0,0.0,0.0,0.0,0.0,0.0,0.0,-6.8787,-6.7889,-6.7082,-6.6174,-6.4948,-6.4332,-6.3403,-6.2335,-6.1835,-6.1763,-6.214,-6.2634,-6.3653,-6.5086,0.0,0.0,0.0,-6.437,-6.3681,-6.2991,-6.2693,-6.278,-6.2915,-6.1594,-6.1741,-6.2475,-6.1484,-6.0896,-6.0639,-6.0639,-5.9758,-5.8647,-5.819,-5.8773,-5.9585,-5.9278,-5.9439,-5.9486,-5.8438,-5.6709,-5.4601,-5.2227,-5.1172,-5.0294,-4.8872,-4.8224,-4.7768,-4.7422,-4.7638,-4.7967,-4.8237,-4.8626,-4.8955,-4.9224,-4.7701,-4.6209,-4.5453,-4.4018,-4.3964,-4.6302,-4.5163,-4.5103,-4.7314,-4.696,-4.6875,-4.7256,-4.8215,-4.9202,-5.0336,-5.0588,-5.1773,-5.4126,-5.3941,-5.4477,-5.5716,-5.6156,-5.6359,-5.6359,-5.7158,-5.7913,-6.2858,-6.6198,-6.8399,-6.6599,-6.208,-5.7422,0.0,0.0,-4.6178,-4.5838,-4.5799,-4.5963,-4.647,-4.6603,-4.7205,-4.9064,-4.9094,-5.0492,-5.5093,-5.5919,-5.7728,0.0,0.0,0.0,0.0,0.0,0.0,0.0,0.0,0.0,0.0,0.0,-6.9953,-6.8648,-6.8124,-6.7336,-6.6083,-6.5752,-6.5286,-6.4839,-6.4234,-6.4129,-6.4438,-6.4321,-6.4828,0.0,0.0,0.0,0.0,-6.5577,-6.4949,-6.4058,-6.4058,-6.4266,-6.431,-6.3135,-6.3576,-6.464,-6.3466,-6.2879,-6.2695,-6.2695,-6.1447,-5.9795,-5.9245,-5.9337,-5.9752,-6.0203,-6.0812,-6.1224,-6.0544,-5.8923,-5.7009,-5.5098,-5.426,-5.332,-5.131,-5.0452,-4.984,-4.899,-4.8809,-4.8883,-4.9277,-4.9343,-4.9283,-4.9275,-4.7771,-4.6366,-4.5574,-4.4323,-4.4616,-4.7466,-4.6514,-4.6643,-4.9252,-4.8656,-4.8377,-4.8699,-4.9149,-4.9927,-5.1048,-5.1,-5.2053,-5.4216,-5.4386,-5.4899,-5.5861,-5.6487,-5.6908,-5.7155,-5.7771,-5.8758,-5.9795,-6.333,-6.638,-6.638,-6.2153,-5.7553,0.0,0.0,-4.7356,-4.6542,-4.691,-4.7385,-4.7385,-4.7879,-4.8716,-4.9998,-5.085,-5.2404,-5.5384,-5.7379,0.0,0.0,0.0,0.0,0.0,0.0,0.0,0.0,0.0,0.0,0.0,0.0,-7.1573,-6.9778,-6.9708,-6.8758,-6.6779,-6.6951,-6.7113,-6.7232,-6.5699,-6.5488,-6.6402,-6.4787,0.0,0.0,0.0,0.0,0.0,-6.5632,-6.5301,-6.5264,-6.5264,-6.5301,-6.5301,-6.5264,-6.5778,-6.6476,-6.6439,-6.5925,-6.5264,-6.5264,-6.3576,-6.1557,-6.1557,-6.0456,-5.9495,-6.0821,-6.1549,-6.1874,-6.1429,-6.0099,-5.8716,-5.8078,-5.6644,-5.5373,-5.5256,-5.3864,-5.2557,-5.2557,-5.1096,-5.0319,-5.163,-5.0421,-4.9307,-4.9252,-4.8415,-4.7373,-4.6028,-4.513,-4.569,-4.8569,-4.8862,-4.9766,-5.1995,-5.096,-5.0481,-5.1109,-5.0931,-5.1079,-5.176,-5.2092,-5.2684,-5.3533,-5.4574,-5.5479,-5.6171,-5.656,-5.7225,-5.8002,-5.8002,-5.9644,-5.484,-5.7591,-5.9816,-5.9763,-5.6884,-5.3611,-5.1953,0.0,-4.6684,-4.631,-4.6859,-4.7512,-4.7955,-4.8153,-4.89,-5.0743,-5.1223,-5.2217,0.0,0.0,0.0,0.0,0.0,0.0,0.0,0.0,0.0,0.0,0.0,0.0,0.0,0.0,0.0,-7.0668,-7.0668,-6.9708,-6.7787,-6.8513,-6.8284,-6.7074,-6.6138,-6.5949,-6.6301,0.0,0.0,0.0,0.0,0.0,0.0,-6.7283,-6.7247,-6.7724,-6.7173,-6.7283,-6.7687,-6.7136,-6.7797,-6.8862,-6.8348,-6.7981,-6.776,-6.776,-6.6109,-6.4127,-6.4127,-6.2435,-6.0778,-6.2141,-6.3048,-6.3421,-6.2315,-6.2093,-6.1673,-6.0017,-5.9673,-5.9269,-5.7912,-5.6779,-5.5639,-5.4382,-5.3021,-5.2029,-5.1927,-5.0753,-4.9756,-4.9737,-4.7242,-4.5563,-4.6389,-4.4392,-4.4593,-4.9117,-4.9633,-5.0445,-5.2711,-5.2486,-5.2157,-5.1917,-5.1843,-5.2002,-5.2445,-5.1874,-5.256,-5.4772,-5.5306,-5.6238,-5.7606,-5.9253,-6.0729,-6.2092,-6.2092,-6.3226,-5.0692,-5.3371,-5.5477,-5.5741,-5.3743,0.0,0.0,-4.8084,-4.6284,-4.6472,-4.6916,-4.7474,-4.8155,-4.8306,-4.9011,-5.1078,-5.1409,-5.2186,0.0,0.0,0.0,0.0,0.0,0.0,0.0,0.0,0.0,0.0,0.0,0.0,0.0,0.0,0.0,-7.2107,-7.1431,-7.0364,-6.8798,-6.9021,-6.8635,-6.7571,-6.653,-6.6067,-6.6236,0.0,0.0,0.0,0.0,0.0,0.0,-6.8788,-6.8898,-6.9302,-6.8788,-6.8898,-6.9302,-6.8788,-6.9412,-7.0477,-7.0,-6.9816,-6.9816,-6.9816,-6.8385,-6.6623,-6.6292,-6.4498,-6.2593,-6.3113,-6.4066,-6.4557,-6.3206,-6.3474,-6.3579,-6.1716,-6.1637,-6.16,-6.0113,-5.8925,-5.784,-5.6626,-5.4722,-5.3013,-5.2238,-5.0738,-4.9165,-4.7736,-4.5787,-4.4386,-4.4344,-4.3408,-4.413,-4.7993,-4.9445,-5.0966,-5.2994,-5.4059,-5.4461,-5.4036,-5.4036,-5.4107,-5.439,-5.3334,-5.3769,-5.6005,-5.6567,-5.7761,-5.9718,-6.2196,-6.3903,-6.491,-6.5234,-6.608,0.0,-5.0288,-5.2711,-5.3518,-5.2013,-5.0362,-5.0362,-4.8049,0.0,-4.6801,-4.6985,-4.7278,-4.8159,-4.8269,-4.8899,-5.1007,-5.1338,-5.2195,0.0,0.0,0.0,0.0,0.0,0.0,0.0,0.0,0.0,0.0,0.0,0.0,0.0,0.0,0.0,0.0,-7.218,-7.0806,-6.9849,-6.8798,-6.8374,-6.854,-6.676,-6.6028,-6.6241,0.0,0.0,0.0,0.0,0.0,0.0,-7.0127,-7.0164,-7.0257,-7.0257,-7.0257,-7.0257,-7.0257,-7.0734,-7.1394,-7.1394,-7.1394,-7.1394,-7.1321,-7.0293,-6.8935,-6.8091,-6.6519,-6.4845,-6.4071,-6.4683,-6.5344,-6.4097,-6.4376,-6.4614,-6.3111,-6.2975,-6.2861,-6.1787,-6.0463,-5.9383,-5.9113,-5.6254,-5.3605,-5.2678,-5.055,-4.781,-4.3964,-4.417,-4.365,-4.0944,-4.2279,-4.4154,-4.5855,-4.8805,-5.1372,-5.2857,-5.5469,-5.6991,-5.6991,-5.7086,-5.7181,-5.7244,-5.6176,-5.6176,-5.7433,-5.8696,-6.0351,-6.2582,-6.5232,-6.6632,-6.6691,-6.7524,-6.8274,-4.6324,0.0,-4.5957,-4.6801,-4.6544,-4.614,0.0,-4.603,-4.5773,-4.5369,-4.5773,-4.6617,-4.8049,-4.7792,-4.8161,-5.0556,-5.0964,-5.159,0.0,0.0,0.0,0.0,0.0,0.0,0.0,0.0,0.0,0.0,0.0,0.0,0.0,0.0,0.0,0.0,-7.3933,-7.2314,-7.08,-6.9813,-6.8989,-6.8293,-6.6553,-6.6107,0.0,0.0,0.0,0.0,0.0,0.0,0.0,-7.0241,-7.0761,-7.1945,-7.1945,-7.1945,-7.1945,-7.1945,-7.2055,-7.2239,-7.2239,-7.2239,-7.2129,-7.1505,-7.1064,-7.0587,-6.9779,-6.8345,-6.6948,-6.6462,-6.6135,-6.5814,-6.5493,-6.6007,-6.6123,-6.409,-6.5129,-6.5621,-6.223,-6.2159,-6.1946,-5.9213,-5.7686,-5.5983,-5.3097,-5.0904,-4.8382,-4.5067,-4.3214,-4.2349,-4.2771,-4.2236,-4.3387,-4.7405,-4.9567,-5.1372,-5.2857,-5.5469,-5.6991,-5.6991,-5.79,-5.8582,-5.9214,-5.8968,-5.9525,-6.1108,-6.3074,-6.5075,-6.7201,-6.7887,-6.8572,-6.9262,-6.9467,-6.9633,-4.5993,-4.5259,-4.4709,-4.5149,-4.4966,-4.4709,-4.4709,-4.4745,-4.4782,-4.4709,-4.5039,-4.5847,0.0,-4.7388,0.0,0.0,-5.1096,0.0,0.0,0.0,0.0,0.0,0.0,0.0,0.0,0.0,0.0,0.0,0.0,0.0,0.0,0.0,0.0,0.0,0.0,-7.3457,-7.1732,-7.08,-6.9706,-6.8348,-6.7014,-6.6234,0.0,0.0,0.0,0.0,0.0,0.0,-7.1778,-7.0858,-7.1271,-7.2496,-7.2496,-7.2496,-7.2496,-7.2496,-7.2496,-7.2496,-7.2496,-7.2496,-7.2422,-7.1982,-7.1872,-7.1762,-7.1321,-7.0587,-6.9614,-6.8328,-6.7654,-6.7136,-6.6396,-6.6773,-6.6865,-6.486,-6.5718,-6.6114,-6.3144,-6.291,-6.2389,-5.9565,-5.8091,-5.6413,-5.3265,-5.107,-4.8622,-4.5472,-4.374,-4.2824,-4.2928,-4.3008,-4.4278,-4.741,-4.9744,-5.1598,-5.2886,-5.5469,-5.6991,-5.6991,-5.8369,-5.9452,-5.9836,-6.0573,-6.1961,-6.4262,-6.6799,-6.8699,-6.9832,-7.0302,-7.0734,-7.1211,-7.1211,-7.1211,-4.6434,-4.6361,-4.6361,-4.5993,-4.5296,-4.4709,-4.4709,-4.4158,-4.3828,-4.4308,-4.4454,-4.5003,0.0,-4.6981,0.0,0.0,0.0,0.0,0.0,0.0,0.0,0.0,0.0,0.0,0.0,0.0,0.0,0.0,0.0,0.0,0.0,0.0,0.0,0.0,0.0,0.0,-7.2285,-7.1511,-7.0345,-6.8786,-6.778,-6.6436,-6.4918,-6.609,0.0,0.0,0.0,0.0,-7.2438,-7.1511,-7.1635,-7.2496,-7.2496,-7.2496,-7.2496,-7.2496,-7.2496,-7.2496,-7.2496,-7.2496,-7.2496,-7.2496,-7.2496,-7.2496,-7.2496,-7.2438,-7.1845,-6.9831,-6.9155,-6.8788,-6.7393,-6.7316,-6.7173,-6.5694,-6.5782,-6.5752,-6.4072,-6.3345,-6.235,-6.0078,-5.8427,-5.6447,-5.3639,-5.1689,-4.9472,-4.6294,-4.5649,-4.4942,-4.3496,-4.4896,-4.6511,-4.7561,-5.0201,-5.221,-5.3029,-5.5361,-5.6765,-5.6858,-5.8592,-5.974,-6.0109,-6.2048,-6.4295,-6.678,-6.9828,-7.1286,-7.1286,-7.213,-7.2496,-7.2496,-7.2496,-7.2496,-4.7976,-4.8453,-4.8526,-4.6397,-4.5296,-4.4709,-4.4709,-4.4599,-4.4235,-4.321,0.0,0.0,0.0,-4.64,-4.7733,0.0,0.0,0.0,0.0,0.0,0.0,0.0,0.0,0.0,0.0,0.0,0.0,0.0,0.0,0.0,0.0,0.0,0.0,0.0,0.0,0.0,0.0,-7.1159,-7.0596,-6.9531,-6.8473,-6.7501,-6.6558,-6.8334,-6.9247,0.0,0.0,0.0,-7.2438,-7.1511,-7.1635,-7.2496,-7.2496,-7.2496,-7.2496,-7.2496,-7.2496,-7.2496,-7.2496,-7.2496,-7.2496,-7.2496,-7.2496,-7.2496,-7.2496,-7.1951,-7.1214,-7.0852,-7.0324,-6.9853,-6.9596,-6.8553,-6.7446,-6.7034,-6.7014,-6.6427,-6.4008,-6.4546,-6.423,-6.0489,-5.9987,-5.9033,-5.5242,-5.4316,-5.305,-4.9861,-4.9284,-4.9176,-4.8911,-4.9109,-5.0049,-5.1653,-5.2798,-5.3611,-5.374,-5.4775,-5.5691,-5.6263,-5.7966,-5.9677,-6.1349,-6.5439,-6.7797,-6.8293,-7.0951,-7.2285,-7.2285,-7.2438,-7.2496,-7.2496,-7.2496,-7.2496,-4.8306,-4.8269,-4.8009,-4.6968,-4.6647,-4.6434,-4.5553,-4.5369,-4.515,-4.4564,-4.4967,0.0,0.0,0.0,0.0,0.0,0.0,0.0,0.0,0.0,0.0,0.0,0.0,0.0,0.0,0.0,0.0,0.0,0.0,0.0,0.0,0.0,0.0,0.0,0.0,0.0,0.0,-7.0601,-6.9883,-6.8873,-6.8947,-6.8223,-6.6812,-6.8223,-6.8873,0.0,0.0,-7.0865,-7.1732,-7.1286,-7.1635,-7.2496,-7.2496,-7.2496,-7.2496,-7.2496,-7.2496,-7.2496,-7.2496,-7.2496,-7.2438,-7.1915,-7.1732,-7.1635,-7.1159,-7.0668,-7.0332,-7.0332,-7.0165,-6.9904,-6.9975,-6.8694,-6.7338,-6.7336,-6.6878,-6.6006,-6.4449,-6.5277,-6.5372,-6.2081,-6.1995,-6.1648,-5.8715,-5.7978,-5.7273,-5.5781,-5.5545,-5.5694,-5.6125,-5.5654,-5.5654,-5.6699,-5.6326,-5.6137,-5.6702,-5.7102,-5.7098,-5.6671,-5.8021,-5.9896,-6.2315,-6.5197,-6.7357,-6.8504,-7.0662,-7.1732,-7.1732,-7.2226,-7.2496,-7.2496,-7.2496,-7.2496,-4.8306,-4.8012,-4.7604,-4.7187,-4.7466,-4.756,-4.671,-4.6788,-4.7046,-4.6871,-4.7725,0.0,0.0,0.0,0.0,0.0,0.0,0.0,0.0,0.0,0.0,0.0,0.0,0.0,0.0,0.0,0.0,0.0,0.0,0.0,0.0,0.0,0.0,0.0,0.0,0.0,0.0,-6.9953,-6.9168,-6.8189,-6.8947,-6.8454,-6.6812,-6.7787,-6.8189,-6.8266,-6.9241,-7.0127,-7.08,-7.0995,-7.1386,-7.1891,-7.2343,-7.2496,-7.2496,-7.2226,-7.2285,-7.2496,-7.2496,-7.2496,-7.238,-7.1448,-7.1095,-7.093,-6.9989,-6.9565,-6.9314,-6.9314,-6.9203,-6.9135,-6.9716,-6.8364,-6.6925,-6.72,-6.6194,-6.5121,-6.4884,-6.5764,-6.5935,-6.3947,-6.4145,-6.4189,-6.234,-6.202,-6.1972,-6.1775,-6.1982,-6.2537,-6.3318,-6.2464,-6.1885,-6.2013,-6.0428,-5.9425,-5.9527,-5.985,-5.957,-5.8341,-5.9223,-6.0784,-6.2878,-6.4742,-6.6566,-6.8504,-7.0207,-7.1223,-7.1448,-7.213,-7.2496,-7.2496,-7.2496,-7.2496,-4.8306,-4.8857,-4.8922,-4.6789,-4.6302,-4.6715,-4.8116,-4.9578,-5.0473,-4.9742,-5.128,-5.1979,0.0,0.0,0.0,0.0,0.0,0.0,0.0,0.0,0.0,0.0,0.0,0.0,0.0,0.0,0.0,0.0,0.0,0.0,0.0,0.0,0.0,0.0,0.0,0.0,0.0,0.0,-6.9168,-6.8189,-6.8266,-6.7787,-6.6812,-6.7787,-6.8189,-6.8266,-6.9241,-6.9778,-6.9849,-7.0734,-7.0601,-7.0058,-7.1794,-7.2496,-7.238,-7.1511,-7.1732,-7.2496,-7.2496,-7.2496,-7.238,-7.1448,-7.1095,-7.093,-6.9989,-6.9021,-6.8266,-6.8266,-6.7662,-6.7454,-6.9278,-6.7899,-6.6254,-6.6913,-6.5387,-6.4038,-6.5324,-6.5696,-6.5766,-6.5799,-6.6577,-6.6757,-6.5387,-6.6406,-6.7126,-6.6324,-6.7365,-6.8505,-6.9318,-6.8892,-6.8189,-6.7387,-6.5359,-6.3219,-6.1049,-6.2223,-6.2749,-6.208,-6.2322,-6.2607,-6.2835,-6.5505,-6.7496,-6.8609,-7.0273,-7.1511,-7.2438,-7.2438,-7.2496,-7.2496,-7.2496,-7.2496,-4.8306,-4.8579,-4.8532,-4.6731,-4.6702,-4.7464,-4.8917,-5.095,-5.239,-5.1981,-5.4917,-5.6902,0.0,0.0,0.0,0.0,0.0,0.0,0.0,0.0,0.0,0.0,0.0,0.0,0.0,0.0,0.0,0.0,0.0,0.0,0.0,0.0,0.0,0.0,0.0,0.0,0.0,0.0,-6.7662,-6.7373,-6.7911,-6.7708,-6.6812,-6.7161,-6.7291,-6.7373,-6.8378,-6.8798,-6.8873,-6.9813,-7.0058,-6.9849,-7.1095,-7.1286,-7.0901,-7.1671,-7.1854,-7.1635,-7.1635,-7.1635,-7.135,-6.9778,-6.9278,-6.9133,-6.818,-6.7582,-6.7291,-6.7291,-6.7078,-6.7078,-6.8454,-6.7307,-6.5926,-6.6305,-6.5275,-6.4208,-6.4309,-6.5425,-6.6592,-6.7297,-6.8905,-7.0211,-7.0167,-7.1124,-7.181,-7.1393,-7.2262,-7.3458,-7.4883,-7.3909,-7.3105,-7.3046,-7.0377,-6.799,-6.6598,-6.7718,-6.8418,-6.8211,-6.5995,-6.4873,-6.5267,-6.6213,-6.7531,-6.9247,-6.9956,-7.0992,-7.2202,-7.276,-7.3275,-7.3639,-7.3639,-7.3639,-4.7535,-4.7591,-4.747,-4.6579,-4.7333,-4.8862,-5.1084,-5.3333,-5.5086,-5.5625,-5.7494,-5.8991,-5.8591,0.0,0.0,0.0,0.0,0.0,0.0,0.0,0.0,0.0,0.0,0.0,0.0,0.0,0.0,0.0,0.0,0.0,0.0,0.0,0.0,0.0,0.0,0.0,0.0,0.0,-6.6812,-6.6812,-6.742,-6.742,-6.6812,-6.6812,-6.6812,-6.6812,-6.7501,-6.7787,-6.7866,-6.8798,-6.9386,-6.9708,-6.9743,-6.9743,-6.9849,-7.08,-7.1123,-7.1095,-7.0734,-7.0865,-7.08,-6.8873,-6.8223,-6.799,-6.7078,-6.6812,-6.6812,-6.6812,-6.6812,-6.6946,-6.7582,-6.6745,-6.5691,-6.5911,-6.5244,-6.4478,-6.3971,-6.5222,-6.6874,-6.8344,-7.0628,-7.2624,-7.3672,-7.4836,-7.5476,-7.509,-7.5737,-7.6859,-7.8519,-7.7654,-7.6824,-7.6773,-7.4176,-7.2298,-7.2047,-7.2929,-7.353,-7.3713,-7.1308,-6.9368,-6.8396,-6.7974,-6.867,-7.067,-7.0544,-7.1244,-7.2778,-7.3404,-7.3943,-7.4351,-7.4299,-7.4293,-4.592,-4.592,-4.5993,-4.6173,0.0,0.0,-5.4748,-5.7043,-5.8915,-6.1011,-5.8907,-5.7423,-5.9702,-5.953,0.0,0.0,0.0,0.0,0.0,0.0,0.0,0.0,0.0,0.0,0.0,0.0,0.0,0.0,0.0,0.0,0.0,0.0,0.0,0.0,0.0,0.0,0.0,0.0,-6.6812,-6.6812,-6.6812,-6.6812,-6.6812,-6.6812,-6.6812,-6.6812,-6.6812,-6.6812,-6.6896,-6.7787,-6.8798,-6.9493,-6.7535,-6.798,-6.953,-6.8572,-6.9423,-7.093,-7.0058,-7.0332,-7.0734,-6.8908,-6.8258,-6.799,-6.7078,-6.6812,-6.6812,-6.6812,-6.6812,-6.6812,-6.6812,-6.6271,-6.5696,-6.5696,-6.5121,-6.4613,-6.4613,-6.5189,-6.6432,-6.8967,-7.1517,-7.3831,-7.5505,-7.7169,-7.7957,-7.7138,-7.7516,-7.8511,-8.0208,-7.9889,-7.9149,-7.8283,-7.6591,-7.5913,-7.6772,-7.7169,-7.7576,-7.8204,-7.8564,-7.6653,-7.1931,-7.0917,-7.1175,-7.2758,-7.205,-7.2559,-7.4496,-7.438,-7.4392,-7.4524,-7.4351,-7.4293,-4.7609,-4.7226,0.0,-4.8403,0.0,0.0,0.0,-5.8259,0.0,0.0,-6.2544,-6.0287,-6.1449,0.0,0.0,0.0,0.0,0.0,0.0,0.0,0.0,0.0,0.0,0.0,0.0,0.0,0.0,0.0,0.0,0.0,0.0,0.0,0.0,0.0,0.0,0.0,0.0,0.0,0.0,-6.6812,-6.6812,-6.6812,-6.6812,-6.6812,-6.6812,-6.6812,-6.6812,-6.6812,-6.6812,-6.7078,-6.7373,-6.7696,-6.7708,-6.7708,-6.7822,-6.8908,-6.9168,-6.8986,-6.8723,-6.8873,-6.8838,-6.7662,-6.7243,-6.7161,-6.6862,-6.6812,-6.6812,-6.6812,-6.6812,-6.6812,-6.6812,-6.6643,-6.6339,-6.5797,-6.5527,-6.5222,-6.4715,-6.5189,-6.6262,-6.8319,-7.1206,-7.3976,-7.619,-7.7931,-7.8702,-7.7622,-7.8043,-7.8868,-8.02,-8.1063,-8.1508,-8.1082,-8.0823,-8.066,-8.0524,-8.1155,-8.1594,-8.1775,-8.1992,-8.0156,-7.5688,-7.4218,-7.3738,-7.4199,-7.3408,-7.3785,-7.5336,-7.5321,-7.5513,-7.5961,-7.5781,-7.5714,-4.6874,-4.6633,0.0,-4.9145,-5.1477,-5.4563,-5.9643,0.0,0.0,0.0,-6.452,-6.2112,-6.3441,0.0,0.0,0.0,0.0,0.0,0.0,0.0,0.0,0.0,0.0,0.0,0.0,0.0,0.0,0.0,0.0,0.0,0.0,0.0,0.0,0.0,0.0,0.0,0.0,0.0,0.0,0.0,-6.6812,-6.6812,-6.6812,-6.6812,-6.6812,-6.6812,-6.6812,-6.6812,-6.6812,-6.6812,-6.6812,-6.6896,-6.742,-6.7291,-6.6946,-6.8102,-6.8682,-6.8648,-6.7945,-6.8146,-6.8607,-6.7243,-6.6812,-6.6812,-6.6812,-6.6812,-6.6812,-6.6812,-6.6812,-6.6812,-6.6812,-6.6812,-6.6711,-6.6237,-6.6136,-6.5933,-6.5189,-6.5628,-6.6466,-6.7661,-7.0231,-7.2968,-7.5092,-7.6773,-7.7687,-7.7285,-7.8196,-7.9187,-7.9865,-8.1852,-8.3097,-8.3037,-8.3578,-8.4096,-8.4469,-8.4785,-8.5212,-8.5786,-8.5692,-8.4117,-8.0696,-7.7775,-7.6167,-7.6056,-7.4904,-7.4905,-7.6198,-7.6129,-7.6454,-7.7231,-7.7014,-7.7048,-4.5004,0.0,0.0,-4.9261,-5.3976,0.0,-6.4076,-6.5684,-6.6526,-6.7738,0.0,0.0,0.0,0.0,0.0,0.0,0.0,0.0,0.0,0.0,0.0,0.0,0.0,0.0,0.0,0.0,0.0,0.0,0.0,0.0,0.0,0.0,0.0,0.0,0.0,0.0,0.0,0.0,0.0,0.0,0.0,-6.6812,-6.6812,-6.6812,-6.6812,-6.6812,-6.6812,-6.6812,-6.6812,-6.6812,-6.6812,-6.6812,-6.6812,-6.6812,-6.6812,-6.6896,-6.8024,-6.9314,-6.7535,-6.8102,-6.9276,-6.7373,-6.6812,-6.6812,-6.6812,-6.6812,-6.6812,-6.6812,-6.6812,-6.6812,-6.6812,-6.6812,-6.6812,-6.6812,-6.6812,-6.6643,-6.5933,-6.6339,-6.6908,-6.7126,-6.9029,-7.1124,-7.278,-7.4345,-7.5655,-7.6576,-7.8237,-7.936,-7.9611,-8.2251,-8.419,-8.4303,-8.5167,-8.6394,-8.8009,-8.7967,-8.8408,-8.9759,-8.9281,-8.8089,-8.6132,-8.131,-7.8493,-7.8092,-7.6456,-7.6044,-7.6931,-7.6726,-7.7199,-7.8203,-7.8087,-7.8378,0.0,-4.7368,0.0,0.0,-5.9439,-6.4685,-6.6251,-6.7796,-6.8357,-6.6705,0.0,0.0,0.0,0.0,0.0,0.0,0.0,0.0,0.0,0.0,0.0,0.0,0.0,0.0,0.0,0.0,0.0,0.0,0.0,0.0,0.0,0.0,0.0,0.0,0.0,0.0,0.0,0.0,0.0,0.0,-6.6812,-6.6812,-6.6812,-6.6812,-6.6812,-6.6812,-6.6812,-6.6812,-6.6812,-6.6812,-6.6812,-6.6812,-6.6812,-6.6812,-6.6862,-6.7662,-6.8146,-6.842,-6.8068,-6.8146,-6.8378,-6.7161,-6.6812,-6.6812,-6.6812,-6.6812,-6.6812,-6.6812,-6.6812,-6.6812,-6.6812,-6.6812,-6.6812,-6.6812,-6.6812,-6.6779,-6.6609,-6.6711,-6.6829,-6.6874,-6.8475,-7.0045,-7.1089,-7.3188,-7.5307,-7.7213,-7.8344,-7.9426,-8.0911,-8.2594,-8.406,-8.5106,-8.6617,-8.7747,-8.829,-8.9646,-9.0621,-9.0934,-9.0815,-8.9932,-8.8155,-8.444,-8.1443,-7.9363,-7.8308,-7.7595,-7.7134,-7.7087,-7.7532,-7.8437,-7.886,-7.9508,0.0,0.0,0.0,0.0,0.0,0.0,-6.8043,-6.9389,0.0,0.0,0.0,0.0,0.0,0.0,0.0,0.0,0.0,0.0,0.0,0.0,0.0,0.0,0.0,0.0,0.0,0.0,0.0,0.0,0.0,0.0,0.0,0.0,0.0,0.0,0.0,0.0,-6.6812,-6.7184,-6.7184,-6.6812,-6.6812,-6.6812,-6.6812,-6.6812,-6.6812,-6.6812,-6.6812,-6.6826,-6.686,-6.681,-6.6826,-6.686,-6.681,-6.6812,-6.6862,-6.7866,-6.8189,-6.8189,-6.8189,-6.8189,-6.8068,-6.7078,-6.6812,-6.6812,-6.6812,-6.6812,-6.6812,-6.6812,-6.6812,-6.6812,-6.6812,-6.6812,-6.6812,-6.6812,-6.6812,-6.6812,-6.6812,-6.6812,-6.6711,-6.6339,-6.7312,-6.8336,-6.8795,-7.1549,-7.4176,-7.572,-7.7952,-7.9828,-8.0837,-8.3035,-8.4719,-8.5437,-8.7159,-8.846,-8.8957,-9.0426,-9.1484,-9.1914,-9.1914,-9.114,-8.9402,-8.7219,-8.4414,-8.1015,-7.9336,-7.8281,-7.7812,-7.7383,-7.7851,-7.9101,-7.9723,-8.0676,0.0,0.0,0.0,0.0,0.0,0.0,0.0,0.0,0.0,0.0,0.0,0.0,0.0,0.0,0.0,0.0,0.0,0.0,0.0,0.0,0.0,0.0,0.0,0.0,0.0,0.0,0.0,0.0,0.0,0.0,0.0,0.0,0.0,0.0,0.0,0.0,-6.6812,-6.6812,-6.6812,-6.6812,-6.6812,-6.6812,-6.6812,-6.6677,-6.6677,-6.6812,-6.681,-6.6907,-6.6996,-6.6711,-6.6702,-6.6823,-6.6548,-6.6508,-6.6743,-6.7895,-6.8239,-6.8189,-6.842,-6.8343,-6.8068,-6.7078,-6.6812,-6.6812,-6.6812,-6.6812,-6.6812,-6.6812,-6.6812,-6.6812,-6.6812,-6.6812,-6.6812,-6.6812,-6.6812,-6.6812,-6.6812,-6.6812,-6.6643,-6.6,-6.6373,-6.6846,-6.6981,-7.0065,-7.2741,-7.3635,-7.7272,-8.0,-8.0284,-8.3251,-8.5333,-8.5418,-8.7348,-8.8907,-8.9588,-9.0774,-9.1797,-9.25,-9.2578,-9.1875,-9.0273,-8.9258,-8.6875,-8.3047,-8.0469,-7.8945,-7.8515,-7.7773,-7.8125,-7.9492,-8.0359,-8.1567,0.0,0.0,0.0,0.0,0.0,0.0,0.0,0.0,0.0,0.0,0.0,0.0,0.0,0.0,0.0,0.0,0.0,0.0,0.0,0.0,0.0,0.0,0.0,0.0,0.0,0.0,0.0,0.0,0.0,0.0,0.0,0.0,0.0,0.0,0.0,0.0,-6.6812,-6.6812,-6.6812,-6.6812,-6.6812,-6.6812,-6.6779,-6.6136,-6.6203,-6.6779,-6.6896,-6.6954,-6.6969,-6.6298,-6.5987,-6.5994,-6.5221,-6.529,-6.6045,-6.7893,-6.8351,-6.8343,-6.9168,-6.8947,-6.8068,-6.7078,-6.6812,-6.6812,-6.6812,-6.6812,-6.6812,-6.6812,-6.6812,-6.6812,-6.6812,-6.6812,-6.6812,-6.6812,-6.6812,-6.6812,-6.6812,-6.6812,-6.6779,-6.6677,-6.6745,-6.7015,-6.7658,-6.9516,-7.1464,-7.3053,-7.6172,-7.8898,-8.028,-8.2809,-8.4666,-8.519,-8.782,-8.9488,-8.9339,-9.1248,-9.2383,-9.2265,-9.2461,-9.2148,-9.1172,-8.957,-8.7734,-8.5703,-8.3125,-8.0703,-7.8515,-7.8398,-7.8437,-7.8711,-8.0222,-8.1778,-4.826,0.0,0.0,0.0,0.0,0.0,0.0,0.0,0.0,0.0,0.0,0.0,0.0,0.0,0.0,0.0,0.0,0.0,0.0,0.0,0.0,0.0,0.0,0.0,0.0,0.0,0.0,0.0,0.0,0.0,0.0,-6.6812,-6.6812,-6.6812,-6.6406,0.0,-6.6812,-6.6,-6.5561,-6.5561,-6.5561,-6.5561,-6.5561,-6.5222,-6.5753,-6.693,-6.6497,-6.6438,-6.6423,-6.6051,-6.5654,-6.5308,-6.5336,-6.5198,-6.5332,-6.7651,-6.7815,-6.6999,-6.8357,-6.8223,-6.7373,-6.6946,-6.6812,-6.6812,-6.6812,-6.6812,-6.6812,-6.6812,-6.6812,-6.6812,-6.6812,-6.6812,-6.6812,-6.6812,-6.6812,-6.6812,-6.6812,-6.6812,-6.6812,-6.6812,-6.6812,-6.6914,-6.7252,-6.8829,-7.0461,-7.1723,-7.5073,-7.7694,-7.8503,-8.1478,-8.3759,-8.4132,-8.663,-8.8657,-8.9609,-9.1041,-9.2041,-9.2382,-9.2539,-9.2226,-9.1328,-9.0117,-8.8398,-8.625,-8.3059,-8.062,-7.8987,-7.7969,-7.7737,-7.8359,-7.9413,-8.1128,0.0,0.0,0.0,0.0,0.0,0.0,0.0,0.0,0.0,0.0,0.0,0.0,0.0,0.0,0.0,0.0,0.0,0.0,0.0,0.0,0.0,0.0,0.0,0.0,0.0,0.0,0.0,0.0,0.0,0.0,0.0,-6.6664,-6.6616,-6.6616,-6.6072,-6.6038,-6.6616,-6.5733,-6.5309,-6.5309,-6.4994,-6.5107,-6.5309,-6.4619,-6.5231,-6.6756,-6.5937,-6.5715,-6.5724,-6.543,-6.4996,-6.462,-6.51,-6.5027,-6.4913,-6.7377,-6.7225,-6.5995,-6.7669,-6.7512,-6.6542,-6.6745,-6.6812,-6.6812,-6.6812,-6.6812,-6.6812,-6.6812,-6.6812,-6.6812,-6.6812,-6.6812,-6.6812,-6.6812,-6.6812,-6.6812,-6.6812,-6.6812,-6.6812,-6.6812,-6.6812,-6.6812,-6.6812,-6.7933,-6.9203,-7.0413,-7.3483,-7.5849,-7.6393,-7.9658,-8.2011,-8.2333,-8.4629,-8.6906,-8.8711,-9.0119,-9.1273,-9.2159,-9.2447,-9.2304,-9.164,-9.0586,-8.8906,-8.6562,-8.2854,-8.0447,-7.9374,-7.775,-7.7205,-7.7816,-7.8497,-8.0154,0.0,0.0,0.0,0.0,0.0,0.0,0.0,0.0,0.0,0.0,0.0,0.0,0.0,0.0,0.0,0.0,0.0,0.0,0.0,0.0,0.0,0.0,0.0,0.0,0.0,0.0,0.0,0.0,0.0,0.0,-6.7271,-6.6446,-6.5959,-6.5959,-6.5925,-6.5925,-6.5959,-6.6705,-6.7164,-6.7164,-6.6268,-6.6342,-6.7094,-6.4633,-6.4518,-6.607,-6.5227,-6.4863,-6.4832,-6.41,-6.3823,-6.3788,-6.3823,-6.42,-6.5044,-6.6903,-6.6904,-6.6145,-6.7904,-6.7301,-6.5865,-6.6576,-6.6812,-6.6812,-6.6812,-6.6812,-6.6812,-6.6812,-6.6812,-6.6812,-6.6812,-6.6812,-6.6812,-6.6812,-6.6812,-6.6812,-6.6812,-6.6812,-6.6812,-6.6812,-6.6812,-6.6812,-6.6812,-6.6846,-6.7604,-6.9457,-7.1232,-7.2916,-7.4524,-7.7199,-7.9091,-7.946,-8.1949,-8.4171,-8.5622,-8.8237,-9.0178,-9.1021,-9.2054,-9.2578,-9.2539,-9.0898,-8.9179,-8.7461,-8.3625,-8.0883,-7.9374,-7.8363,-7.7439,-7.6696,-7.7562,-7.8893,0.0,0.0,0.0,0.0,0.0,0.0,0.0,0.0,0.0,0.0,0.0,0.0,0.0,0.0,0.0,0.0,0.0,0.0,0.0,0.0,0.0,0.0,0.0,0.0,0.0,0.0,0.0,0.0,0.0,0.0,-6.7148,-6.695,-6.6496,-6.6005,-6.5479,-6.4742,-6.376,-6.4591,-6.4725,-6.4296,-6.3964,-6.421,-6.5039,-6.4113,-6.4287,-6.5357,-6.4497,-6.41,-6.41,-6.3823,-6.3388,-6.2931,-6.3462,-6.3892,-6.4315,-6.599,-6.6003,-6.5417,-6.7004,-6.642,-6.5189,-6.6406,-6.6474,-6.617,-6.6677,-6.6812,-6.6812,-6.6812,-6.6812,-6.6812,-6.6812,-6.6812,-6.6812,-6.6812,-6.6812,-6.6812,-6.6812,-6.6812,-6.6812,-6.6812,-6.6812,-6.6812,-6.6812,-6.7291,-6.8146,-6.9493,-7.1156,-7.2525,-7.3128,-7.5402,-7.7021,-7.7276,-7.9378,-8.1469,-8.3154,-8.5598,-8.7674,-8.922,-9.0755,-9.1875,-9.2578,-9.0937,-8.9219,-8.7539,-8.3674,-8.0922,-7.9259,-7.7535,-7.6583,-7.6429,-7.6714,-7.8236,-4.5828,0.0,0.0,0.0,0.0,0.0,0.0,0.0,0.0,0.0,0.0,0.0,0.0,0.0,0.0,0.0,0.0,0.0,0.0,0.0,0.0,0.0,0.0,0.0,0.0,0.0,0.0,0.0,0.0,0.0,-6.6878,-6.6403,-6.5895,-6.5326,-6.4828,-6.4234,-6.3538,-6.3979,-6.3979,-6.3478,-6.3199,-6.3484,-6.4266,-6.3669,-6.3996,-6.4963,-6.3828,-6.3484,-6.3647,-6.3388,-6.2987,-6.2556,-6.3653,-6.4148,-6.4315,-6.5693,-6.5644,-6.502,-6.5942,-6.5559,-6.4864,-6.6378,-6.6779,-6.6724,-6.7525,-6.7742,-6.7662,-6.7373,-6.7291,-6.7243,-6.6896,-6.6812,-6.6812,-6.6812,-6.6812,-6.6812,-6.6812,-6.6812,-6.6812,-6.6812,-6.6812,-6.6812,-6.6812,-6.7291,-6.8146,-6.9493,-7.0942,-7.1997,-7.2453,-7.4275,-7.5476,-7.531,-7.6979,-7.8785,-8.0284,-8.2793,-8.4979,-8.6607,-8.8798,-9.0529,-9.1562,-9.0508,-8.9258,-8.7929,-8.4376,-8.1718,-8.0029,-7.7314,-7.6053,-7.6207,-7.6207,-7.8155,0.0,0.0,0.0,0.0,0.0,0.0,0.0,0.0,0.0,0.0,0.0,0.0,0.0,0.0,0.0,0.0,0.0,0.0,0.0,0.0,0.0,0.0,0.0,0.0,0.0,0.0,0.0,0.0,0.0,0.0,-6.6423,-6.4782,-6.3877,-6.3877,-6.3841,-6.4255,-6.5191,-6.5191,-6.5154,-6.5154,-6.4218,-6.431,-6.5176,-6.3406,-6.3494,-6.5032,-6.3396,-6.3021,-6.365,-6.2821,-6.2453,-6.2716,-6.4383,-6.5054,-6.5249,-6.6079,-6.5842,-6.4972,-6.4913,-6.4701,-6.481,-6.6566,-6.7565,-6.835,-6.9386,-6.9708,-6.9458,-6.8496,-6.8189,-6.7911,-6.7029,-6.6812,-6.6812,-6.6812,-6.6812,-6.6812,-6.6812,-6.6812,-6.6812,-6.6812,-6.6812,-6.6812,-6.6812,-6.6812,-6.7535,-6.9421,-7.0416,-7.1326,-7.2395,-7.3891,-7.4511,-7.3513,-7.4882,-7.6204,-7.6994,-7.9915,-8.2201,-8.3285,-8.625,-8.8494,-8.9607,-8.9647,-8.9336,-8.8671,-8.5799,-8.3483,-8.1762,-7.7929,-7.6053,-7.6053,-7.6092,-7.8802,-4.6113,0.0,0.0,0.0,0.0,0.0,0.0,0.0,0.0,0.0,0.0,0.0,0.0,0.0,0.0,0.0,0.0,0.0,0.0,0.0,0.0,0.0,0.0,0.0,0.0,0.0,0.0,0.0,0.0,-6.6498,-6.4613,-6.3602,-6.3121,-6.3121,-6.2537,-6.2347,-6.2622,-6.2034,-6.1777,-6.1741,-6.1506,-6.2128,-6.3452,-6.298,-6.3639,-6.515,-6.4058,-6.3632,-6.3814,-6.3541,-6.3795,-6.4383,-6.4862,-6.5411,-6.6079,-6.6295,-6.5842,-6.5039,-6.5545,-6.4546,-6.3419,-6.6221,-6.6837,-6.6994,-6.9069,-6.9168,-6.8572,-6.8266,-6.7708,-6.7161,-6.6896,-6.6812,-6.6812,-6.6812,-6.6812,-6.6812,-6.6812,-6.6812,-6.6812,-6.6812,-6.6812,-6.6812,-6.6812,-6.798,-6.9056,-6.9637,-7.1081,-7.217,-7.2475,-7.3413,-7.3912,-7.3627,-7.4937,-7.5879,-7.6118,-7.8473,-8.0583,-8.2131,-8.4214,-8.63,-8.8452,-8.7923,-8.7793,-8.8248,-8.6095,-8.4416,-8.3279,-7.9592,-7.7823,-7.7823,-7.8113,-8.0221,-4.7247,-4.6832,-4.6817,-4.7954,0.0,0.0,0.0,0.0,0.0,0.0,0.0,0.0,0.0,0.0,0.0,0.0,0.0,0.0,0.0,0.0,0.0,0.0,0.0,0.0,0.0,0.0,0.0,0.0,-6.5806,-6.4689,-6.2495,-6.2004,-6.1814,-6.1814,-6.1337,-6.108,-6.108,-6.0639,-6.0419,-6.0419,-6.0419,-6.0896,-6.1814,-6.1814,-6.2695,-6.4185,-6.3292,-6.353,-6.4456,-6.4072,-6.4183,-6.459,-6.4912,-6.5586,-6.6474,-6.6415,-6.6028,-6.5625,-6.5663,-6.4883,-6.4373,-6.6989,-6.7729,-6.8044,-7.0207,-7.0432,-6.9848,-6.9095,-6.7901,-6.6812,-6.6812,-6.6812,-6.6812,-6.6812,-6.6812,-6.6812,-6.6812,-6.6812,-6.6812,-6.6812,-6.6812,-6.6946,-6.7291,-6.8301,-6.9386,-7.016,-7.1223,-7.2071,-7.2438,-7.3193,-7.3707,-7.3707,-7.4735,-7.5403,-7.5403,-7.7214,-7.8737,-7.9776,-8.1652,-8.3601,-8.5511,-8.5689,-8.6204,-8.7149,-8.623,-8.5434,-8.4824,-8.2016,-8.07,-8.0739,-8.0829,-8.2189,-4.8521,-4.8151,-4.8342,-4.9733,-4.8673,0.0,-4.7834,-4.7022,0.0,0.0,0.0,0.0,0.0,0.0,0.0,0.0,0.0,0.0,0.0,0.0,0.0,0.0,0.0,0.0,0.0,0.0,0.0,-6.3943,-6.2879,-6.1594,-6.0089,-6.0015,-6.0015,-6.0015,-6.0015,-6.0015,-6.0015,-5.9905,-5.9905,-6.0015,-6.0015,-6.0089,-6.0272,-6.0272,-6.1153,-6.2658,-6.1924,-6.2915,-6.4971,-6.4237,-6.4018,-6.4173,-6.4932,-6.5694,-6.6386,-6.6525,-6.6391,-6.6139,-6.539,-6.5526,-6.6235,-6.8067,-6.9146,-7.0066,-7.1706,-7.2212,-7.1794,-6.9919,-6.8102,-6.6812,-6.6812,-6.6812,-6.6812,-6.6812,-6.6812,-6.6812,-6.6812,-6.6812,-6.6812,-6.6812,-6.6812,-6.7112,-6.7911,-6.8189,-6.8912,-7.0668,-7.1159,-7.1573,-7.238,-7.3193,-7.3707,-7.3817,-7.4625,-7.5212,-7.5322,-7.6588,-7.7399,-7.734,-7.9266,-8.0847,-8.1863,-8.3179,-8.4421,-8.5574,-8.6065,-8.644,-8.6517,-8.4747,-8.401,-8.4119,-8.3749,-8.4287,-5.0652,-5.0223,-4.963,-4.9907,-5.0222,0.0,-4.8274,-4.8612,0.0,0.0,0.0,0.0,0.0,0.0,0.0,0.0,0.0,0.0,0.0,0.0,0.0,0.0,0.0,0.0,0.0,0.0,0.0,-6.2144,-6.0126,-5.851,-5.7556,-5.7519,-5.7519,-5.7519,-5.7519,-5.7519,-5.7519,-5.6859,-5.6859,-5.7519,-5.7519,-5.818,-5.9428,-5.9428,-6.0309,-6.1814,-6.1667,-6.2254,-6.3282,-6.3135,-6.3804,-6.5128,-6.5896,-6.5966,-6.5705,-6.6975,-6.6531,-6.5406,-6.5934,-6.5725,-6.5485,-6.724,-6.8414,-6.9209,-7.0129,-7.0332,-6.9813,-6.7901,-6.7112,-6.6812,-6.6812,-6.6812,-6.6812,-6.6812,-6.6812,-6.6812,-6.6812,-6.6812,-6.6812,-6.6812,-6.6812,-6.6896,-6.7029,-6.8378,-6.953,-6.9919,-7.1223,-7.2285,-7.2496,-7.3193,-7.3927,-7.4588,-7.5983,-7.7121,-7.7818,-7.8774,-7.9246,-7.9037,-7.9423,-8.0029,-8.0772,-8.1104,-8.1989,-8.3544,-8.4816,-8.6661,-8.9171,-8.7012,-8.5819,-8.5632,-8.528,-8.5534,-5.1799,-5.1643,-5.1645,-5.1755,-5.0952,0.0,0.0,-4.8443,0.0,0.0,0.0,0.0,0.0,0.0,0.0,0.0,0.0,0.0,0.0,0.0,0.0,0.0,0.0,0.0,0.0,0.0,-6.0089,-5.9281,-5.7703,-5.6638,-5.6235,-5.6198,-5.6198,-5.6198,-5.6198,-5.6198,-5.6198,-5.5794,-5.5794,-5.6198,-5.6602,-5.7226,-5.8033,-5.8437,-5.9281,-6.0419,-6.0823,-6.1447,-6.2218,-6.2658,-6.3319,-6.4163,-6.4971,-6.5301,-6.5411,-6.6219,-6.6225,-6.5859,-6.6296,-6.6431,-6.6536,-6.7819,-6.8517,-6.8932,-6.9235,-6.8916,-6.8269,-6.7684,-6.7161,-6.6812,-6.6812,-6.6812,-6.6812,-6.6812,-6.6812,-6.6812,-6.6812,-6.6812,-6.6812,-6.6812,-6.6812,-6.7112,-6.8102,-6.9056,-7.0058,-7.0966,-7.1891,-7.2496,-7.2496,-7.2863,-7.3413,-7.4221,-7.5395,-7.6607,-7.7855,-7.8736,-7.9326,-7.9675,-7.9638,-7.9628,-7.9538,-7.9837,-8.0756,-8.2302,-8.3498,-8.51,-8.7111,-8.6809,-8.741,-8.877,-8.8303,-8.7995,-5.3066,-5.3121,0.0,0.0,0.0,-4.9746,0.0,0.0,0.0,0.0,0.0,0.0,0.0,0.0,0.0,0.0,0.0,0.0,0.0,0.0,0.0,0.0,0.0,0.0,0.0,0.0,0.0,-5.6418,-5.5721,-5.528,-5.5133,-5.5133,-5.5133,-5.5133,-5.5133,-5.5133,-5.5133,-5.5133,-5.5207,-5.5354,-5.6014,-5.6492,-5.6822,-5.7483,-5.829,-5.9245,-5.9905,-6.0713,-6.163,-6.2291,-6.2658,-6.2915,-6.3759,-6.4383,-6.4861,-6.5191,-6.5705,-6.6292,-6.6439,-6.7026,-6.7797,-6.8458,-6.8494,-6.8408,-6.8615,-6.7869,-6.6945,-6.7704,-6.7373,-6.6812,-6.6812,-6.6812,-6.6812,-6.6812,-6.6812,-6.6812,-6.6812,-6.6812,-6.6812,-6.6812,-6.6812,-6.7325,-6.8908,-6.9493,-7.0196,-7.1732,-7.2285,-7.2496,-7.2496,-7.2496,-7.2826,-7.3597,-7.4441,-7.5579,-7.7194,-7.8259,-7.9103,-7.9764,-7.9947,-7.9653,-7.8846,-7.9268,-8.0186,-8.1506,-8.2184,-8.3036,-8.4012,-8.5543,-8.7748,-9.0532,-9.0532,-9.0059,0.0,0.0,0.0,0.0,-5.3141,0.0,0.0,0.0,0.0,0.0,0.0,0.0,0.0,0.0,0.0,0.0,0.0,0.0,0.0,0.0,0.0,0.0,0.0,0.0,0.0,0.0,0.0,0.0,-5.4583,-5.4216,-5.3518,-5.3482,-5.3482,-5.3482,-5.3482,-5.3482,-5.3482,-5.3482,-5.3849,-5.4546,-5.462,-5.5427,-5.6822,-5.6895,-5.7776,-5.9208,-5.9318,-6.0199,-6.1594,-6.1704,-6.2144,-6.2915,-6.3759,-6.3686,-6.3282,-6.4751,-6.5375,-6.5558,-6.6256,-6.7026,-6.7724,-6.7797,-6.7221,-6.6652,-6.8111,-6.7272,-6.5997,-6.6743,-6.6896,-6.6812,-6.6812,-6.6812,-6.6812,-6.6812,-6.6812,-6.6812,-6.6812,-6.6812,-6.6812,-6.6812,-6.6812,-6.6896,-6.7112,-6.8531,-6.9778,-6.9989,-7.1448,-7.2496,-7.2496,-7.2496,-7.2826,-7.3597,-7.4441,-7.5579,-7.7194,-7.8736,-7.969,-7.9764,-8.0461,-8.0498,-7.969,-7.9742,-8.0133,-8.0878,-8.1007,-8.1739,-8.3143,-8.4032,-8.5393,-8.7121,-8.9299,-8.9748,0.0,0.0,0.0,0.0,0.0,0.0,-5.0899,0.0,-4.9763,0.0,0.0,0.0,0.0,0.0,0.0,0.0,0.0,0.0,0.0,0.0,0.0,0.0,0.0,0.0,0.0,0.0,0.0,0.0,0.0,-5.2744,-5.1944,-5.2724,-5.3225,-5.3225,-5.3225,-5.3225,-5.3225,-5.3225,-5.3371,-5.3702,-5.4179,-5.4766,-5.5427,-5.6381,-5.7189,-5.7886,-5.8804,-5.9612,-6.0236,-6.0713,-6.1374,-6.2144,-6.2511,-6.2695,-6.2915,-6.3613,-6.4163,-6.464,-6.4971,-6.5925,-6.701,-6.6972,-6.6243,-6.5573,-6.6144,-6.5765,-6.5222,-6.5933,-6.6474,-6.6812,-6.6812,-6.6812,-6.6812,-6.6812,-6.6812,-6.6812,-6.6812,-6.6812,-6.6812,-6.6812,-6.6812,-6.6812,-6.6812,-6.7945,-6.9241,-7.0297,-7.1159,-7.1854,-7.2438,-7.2496,-7.2642,-7.2973,-7.3707,-7.4661,-7.5836,-7.6974,-7.8075,-7.9029,-7.9837,-8.0351,-8.0498,-8.0021,-7.9952,-8.0244,-8.0244,-8.0533,-8.1177,-8.2312,-8.3247,-8.3966,-8.6867,-8.8447,-5.6748,0.0,0.0,0.0,0.0,0.0,0.0,0.0,0.0,0.0,0.0,0.0,0.0,0.0,-5.1705,-5.144,0.0,0.0,0.0,0.0,0.0,0.0,0.0,0.0,0.0,0.0,0.0,0.0,0.0,0.0,-5.131,-5.2279,-5.2968,-5.3188,-5.3225,-5.3225,-5.3225,-5.3225,-5.3225,-5.3225,-5.3812,-5.4179,-5.4436,-5.5831,-5.6602,-5.6895,-5.829,-5.9024,-5.9281,-5.9832,-6.0566,-6.13,-6.152,-6.1961,-6.2511,-6.2732,-6.3356,-6.409,-6.409,-6.5154,-6.6516,-6.6388,-6.5779,-6.4941,-6.4876,-6.4556,-6.4478,-6.5425,-6.6102,-6.6542,-6.6779,-6.6812,-6.6812,-6.6812,-6.6812,-6.6812,-6.6812,-6.6812,-6.6812,-6.6812,-6.6981,-6.7049,-6.6846,-6.7787,-6.9095,-7.0499,-7.1159,-7.1732,-7.2438,-7.2496,-7.2496,-7.2496,-7.301,-7.3707,-7.4515,-7.5322,-7.657,-7.8479,-7.914,-7.991,-8.0975,-8.0424,-8.0131,-8.0131,-8.0131,-8.0021,-7.98,-8.1118,-8.1747,-8.1784,-8.5122,-8.7209,0.0,0.0,0.0,-5.5962,0.0,0.0,0.0,0.0,-5.4079,0.0,0.0,0.0,0.0,-5.337,-5.3158,-5.2414,-5.1582,0.0,0.0,0.0,0.0,0.0,0.0,0.0,0.0,0.0,0.0,0.0,-4.9848,0.0,-5.1899,-5.2013,-5.238,-5.3188,-5.3225,-5.3225,-5.3225,-5.3225,-5.3225,-5.3225,-5.3225,-5.3665,-5.4436,-5.5244,-5.6051,-5.6859,-5.7666,-5.8474,-5.9208,-5.9245,-5.9722,-6.0529,-6.13,-6.163,-6.1741,-6.2511,-6.3356,-6.409,-6.409,-6.5154,-6.6516,-6.6388,-6.5779,-6.4941,-6.4876,-6.4179,-6.3835,-6.529,-6.5696,-6.5899,-6.6609,-6.6812,-6.6812,-6.6812,-6.6812,-6.6812,-6.6812,-6.6812,-6.6812,-6.6812,-6.7387,-6.7658,-6.6948,-6.8412,-6.9708,-6.9778,-7.1323,-7.2438,-7.2496,-7.2496,-7.2496,-7.2496,-7.2532,-7.2863,-7.367,-7.4478,-7.5983,-7.8442,-7.8626,-7.936,-8.0938,-8.0975,-8.0975,-8.0975,-8.0975,-8.0571,-7.98,-8.0608,-8.1076,-8.1139,-8.4767,-8.6417,0.0,0.0,-5.8637,-5.6731,0.0,0.0,0.0,0.0,0.0,0.0,0.0,0.0,0.0,-5.3351,-5.3235,-5.2935,-5.1813,-5.0701,0.0,0.0,0.0,0.0,0.0,0.0,0.0,0.0,0.0,-4.6763,-4.7818,0.0,0.0,-5.1188,-5.238,-5.3188,-5.3225,-5.3225,-5.3225,-5.3225,-5.3225,-5.3225,-5.3225,-5.3335,-5.3665,-5.4987,-5.5757,-5.6088,-5.7409,-5.8143,-5.84,-5.84,-5.8877,-5.9648,-5.9905,-6.0676,-6.1704,-6.2511,-6.2989,-6.3392,-6.453,-6.5264,-6.5783,-6.6243,-6.5779,-6.4835,-6.4285,-6.3768,-6.3734,-6.4681,-6.5324,-6.5865,-6.6609,-6.6812,-6.6812,-6.6812,-6.6812,-6.6812,-6.6812,-6.6812,-6.6812,-6.6812,-6.7015,-6.7117,-6.6846,-6.7866,-6.8947,-6.9637,-7.0264,-7.1095,-7.2343,-7.2496,-7.2496,-7.2496,-7.2496,-7.2606,-7.2899,-7.3634,-7.4698,-7.6056,-7.6644,-7.7451,-7.8516,-7.9103,-7.914,-7.8589,-7.9653,-7.98,-7.8993,-7.98,-8.0204,-8.0268,-8.1323,-8.3224,-5.8722,-5.9438,0.0,0.0,-5.6794,0.0,-5.395,0.0,0.0,0.0,0.0,0.0,0.0,-5.4647,-5.4069,-5.4069,-5.274,-5.1347,0.0,-4.9973,0.0,0.0,0.0,0.0,0.0,0.0,-4.5575,-4.4834,-4.6539,-4.7833,0.0,0.0,-5.194,-5.2747,-5.3078,-5.3225,-5.3225,-5.3225,-5.3225,-5.3225,-5.3225,-5.3225,-5.3261,-5.4583,-5.517,-5.5244,-5.6565,-5.7299,-5.7556,-5.7556,-5.807,-5.8804,-5.9098,-6.0015,-6.1263,-6.2071,-6.2548,-6.3025,-6.4383,-6.4861,-6.5014,-6.57,-6.5536,-6.4906,-6.4321,-6.3846,-6.3811,-6.48,-6.5209,-6.5527,-6.6542,-6.6812,-6.6812,-6.6812,-6.6812,-6.6812,-6.6812,-6.6812,-6.6812,-6.6812,-6.7015,-6.7117,-6.6846,-6.753,-6.83,-6.9056,-6.9458,-7.0127,-7.1386,-7.1794,-7.2011,-7.2011,-7.2285,-7.2496,-7.2496,-7.2973,-7.3634,-7.4441,-7.5249,-7.6056,-7.6864,-7.7965,-7.8589,-7.8626,-7.9103,-7.9396,-7.9433,-7.9103,-7.8919,-7.8883,-7.9315,-8.0907]}]]